[[{"header":{"parameterUnit":"m.s-1","parameterCategory":1,"la1":31.0,"la2":29.5877,"lo1":-88.7671,"lo2":-86.6584,"dy":0.0162,"dx":0.0185,"nx":115,"ny":88,"refTime":"2026-05-20T00:00:00:Z","depth":0,"parameterNumber":2,"parameterNumberName":"U-component_of_WINDS"},"data":[0.0,0.0,0.0,0.0,0.0,0.0,0.0,0.0,0.0,0.0,0.0,0.0,0.0,0.0,0.0,0.0,0.0,0.0,0.0,0.0,0.0,0.0,0.0,0.0,0.0,0.0,0.0,0.0,0.0,0.0,0.0,0.0,0.0,0.0,0.0,0.0,0.0,0.0,0.0,0.0,0.0,0.0,0.0,0.0,0.0,0.0,0.0,0.0,0.0,0.0,0.0,0.0,0.0,0.0,0.0,0.0,0.0,0.0,0.0,0.0,0.0,0.0,0.0,0.0,0.0,0.0,0.0,0.0,0.0,0.0,0.0,0.0,0.0,0.0,0.0,0.0,0.0,0.0,0.0,0.0,0.0,0.0,0.0,0.0,0.0,0.0,0.0,0.0,0.0,0.0,0.0,0.0,0.0,0.0,0.0,0.0,0.0,0.0,0.0,0.0,0.0,0.0,0.0,0.0,0.0,0.0,0.0,0.0,0.0,0.0,0.0,0.0,0.0,0.0,0.0,0.0,0.0,0.0,0.0,0.0,0.0,0.0,0.0,0.0,0.0,0.0,0.0,0.0,0.0,0.0,0.0,0.0,0.0,0.0,0.0,0.0,0.0,0.0,0.0,0.0,0.0,0.0,0.0,0.0,0.0,0.0,0.0,0.0,0.0,0.0,0.0,0.0,0.0,0.0,0.0,0.0,0.0,0.0,0.0,0.0,0.0,0.0,0.0,0.0,0.0,0.0,0.0,0.0,0.0,0.0,0.0,0.0,0.0,0.0,0.0,0.0,0.0,0.0,0.0,0.0,0.0,0.0,0.0,0.0,0.0,0.0,0.0,0.0,0.0,0.0,0.0,0.0,0.0,0.0,0.0,0.0,0.0,0.0,0.0,0.0,0.0,0.0,0.0,0.0,0.0,0.0,0.0,0.0,0.0,0.0,0.0,0.0,0.0,0.0,0.0,0.0,0.0,0.0,0.0,0.0,0.0,0.0,0.0,0.0,0.0,0.0,0.0,0.0,0.0,0.0,0.0,0.0,0.0,0.0,0.0,0.0,0.0,0.0,0.0,0.0,0.0,0.0,0.0,0.0,0.0,0.0,0.0,0.0,0.0,0.0,0.0,0.0,0.0,0.0,0.0,0.0,0.0,0.0,0.0,0.0,0.0,0.0,0.0,0.0,0.0,0.0,0.0,0.0,0.0,0.0,0.0,0.0,0.0,0.0,0.0,0.0,0.0,0.0,0.0,0.0,0.0,0.0,0.0,0.0,0.0,0.0,0.0,0.0,0.0,0.0,0.0,0.0,0.0,0.0,0.0,0.0,0.0,0.0,0.0,0.0,0.0,0.0,0.0,0.0,0.0,0.0,0.0,0.0,0.0,0.0,0.0,0.0,0.0,0.0,0.0,0.0,0.0,0.0,0.0,0.0,0.0,0.0,0.0,0.0,0.0,0.0,0.0,0.0,0.0,0.0,0.0,0.0,0.0,0.0,0.0,0.0,0.0,0.0,0.0,0.0,0.0,0.0,0.0,0.0,0.0,0.0,0.0,0.0,0.0,0.0,0.0,0.0,0.0,0.0,0.0,0.0,0.0,0.0,0.0,0.0,0.0,0.0,0.0,0.0,0.0,0.0,0.0,0.0,0.0,0.0,0.0,0.0,0.0,0.0,0.0,0.0,0.0,0.0,0.0,0.0,0.0,0.0,0.0,0.0,0.0,0.0,0.0,0.0,0.0,0.0,0.0,0.0,0.0,0.0,0.0,0.0,0.0,0.0,0.0,0.0,0.0,0.0,0.0,0.0,0.0,0.0,0.0,0.0,0.0,0.0,0.0,0.0,0.0,0.0,0.0,0.0,0.0,0.0,0.0,0.0,0.0,0.0,0.0,0.0,0.0,0.0,0.0,0.0,0.0,0.0,0.0,0.0,0.0,0.0,0.0,0.0,0.0,0.0,0.0,0.0,0.0,0.0,0.0,0.0,0.0,0.0,0.0,0.0,0.0,0.0,0.0,0.0,0.0,0.0,0.0,0.0,0.0,0.0,0.0,0.0,0.0,0.0,0.0,0.0,0.0,0.0,0.0,0.0,0.0,0.0,0.0,0.0,0.0,0.0,0.0,0.0,0.0,0.0,0.0,0.0,0.0,0.0,0.0,0.0,0.0,0.0,0.0,0.0,0.0,0.0,0.0,0.0,0.0,0.0,0.0,0.0,0.0,0.0,0.0,0.0,0.0,0.0,0.0,0.0,0.0,0.0,0.0,0.0,0.0,0.0,0.0,0.0,0.0,0.0,0.0,0.0,0.0,0.0,0.0,0.0,0.0,0.0,0.0,0.0,0.0,0.0,0.0,0.0,0.0,0.0,0.0,0.0,0.0,0.0,0.0,0.0,0.0,0.0,0.0,0.0,0.0,0.0,0.0,0.0,0.0,0.0,0.0,0.0,0.0,0.0,0.0,0.0,0.0,0.0,0.0,0.0,0.0,0.0,0.0,0.0,0.0,0.0,0.0,0.0,0.0,0.0,0.0,0.0,0.0,0.0,0.0,0.0,0.0,0.0,0.0,0.0,0.0,0.0,0.0,0.0,0.0,0.0,0.0,0.0,0.0,0.0,0.0,0.0,0.0,0.0,0.0,0.0,0.0,0.0,0.0,0.0,0.0,0.0,0.0,0.0,0.0,0.0,0.0,0.0,0.0,0.0,0.0,0.0,0.0,0.0,0.0,0.0,0.0,0.0,0.0,0.0,0.0,0.0,0.0,0.0,0.0,0.0,0.0,0.0,0.0,0.0,0.0,0.0,0.0,0.0,0.0,0.0,0.0,0.0,0.0,0.0,0.0,0.0,0.0,0.0,0.0,0.0,0.0,0.0,0.0,0.0,0.0,0.0,0.0,0.0,0.0,0.0,0.0,0.0,0.0,0.0,0.0,0.0,0.0,0.0,0.0,0.0,0.0,0.0,0.0,0.0,0.0,0.0,0.0,0.0,0.0,0.0,0.0,0.0,0.0,0.0,0.0,0.0,0.0,0.0,0.0,0.0,0.0,0.0,0.0,0.0,0.0,0.0,0.0,0.0,0.0,0.0,0.0,0.0,0.0,0.0,0.0,0.0,0.0,0.0,0.0,0.0,0.0,0.0,0.0,0.0,0.0,0.0,0.0,0.0,0.0,0.0,0.0,0.0,0.0,0.0,0.0,0.0,0.0,0.0,0.0,0.0,0.0,0.0,0.0,0.0,0.0,0.0,0.0,0.0,0.0,0.0,0.0,0.0,0.0,0.0,0.0,0.0,0.0,0.0,0.0,0.0,0.0,0.0,0.0,0.0,0.0,0.0,0.0,0.0,0.0,0.0,0.0,0.0,0.0,0.0,0.0,0.0,0.0,0.0,0.0,0.0,0.0,0.0,0.0,0.0,0.0,0.0,0.0,0.0,0.0,0.0,0.0,0.0,0.0,0.0,0.0,0.0,0.0,0.0,0.0,0.0,0.0,0.0,0.0,0.0,0.0,0.0,0.0,0.0,0.0,0.0,0.0,0.0,0.0,0.0,0.0,0.0,0.0,0.0,0.0,0.0,0.0,0.0,0.0,0.0,0.0,0.0,0.0,0.0,0.0,0.0,0.0,0.0,0.0,0.0,0.0,0.0,0.0,0.0,0.0,0.0,0.0,0.0,0.0,0.0,0.0,0.0,0.0,0.0,0.0,0.0,0.0,0.0,0.0,0.0,0.0,0.0,0.0,0.0,0.0,0.0,0.0,0.0,0.0,0.0,0.0,0.0,0.0,0.0,0.0,0.0,0.0,0.0,0.0,0.0,0.0,0.0,0.0,0.0,0.0,0.0,0.0,0.0,0.0,0.0,0.0,0.0,0.0,0.0,0.0,0.0,0.0,0.0,0.0,0.0,0.0,0.0,0.0,0.0,0.0,0.0,0.0,0.0,0.0,0.0,0.0,0.0,0.0,0.0,0.0,0.0,0.0,0.0,0.0,0.0,0.0,0.0,0.0,0.0,0.0,0.0,0.0,0.0,0.0,0.0,0.0,0.0,0.0,0.0,0.0,0.0,0.0,0.0,0.0,0.0,0.0,0.0,0.0,0.0,0.0,0.0,0.0,0.0,0.0,0.0,0.0,0.0,0.0,0.0,0.0,0.0,0.0,0.0,0.0,0.0,0.0,0.0,0.0,0.0,0.0,0.0,0.0,0.0,0.0,0.0,0.0,0.0,0.0,0.0,0.0,0.0,0.0,0.0,0.0,0.0,0.0,0.0,0.0,0.0,0.0,0.0,0.0,0.0,0.0,0.0,-4.873,0.0,0.0,0.0,0.0,0.0,0.0,0.0,0.0,0.0,0.0,0.0,0.0,0.0,0.0,0.0,0.0,0.0,0.0,0.0,0.0,0.0,0.0,0.0,0.0,0.0,0.0,0.0,0.0,0.0,0.0,0.0,0.0,0.0,0.0,0.0,0.0,0.0,0.0,0.0,0.0,0.0,0.0,0.0,0.0,0.0,0.0,0.0,0.0,0.0,0.0,0.0,0.0,0.0,0.0,0.0,0.0,0.0,0.0,0.0,0.0,0.0,0.0,0.0,0.0,0.0,0.0,0.0,0.0,0.0,0.0,0.0,0.0,0.0,0.0,0.0,0.0,0.0,0.0,0.0,0.0,0.0,0.0,0.0,0.0,0.0,0.0,0.0,0.0,0.0,0.0,0.0,0.0,0.0,0.0,0.0,0.0,0.0,0.0,0.0,0.0,0.0,0.0,0.0,0.0,0.0,0.0,0.0,0.0,0.0,0.0,-5.1894,-5.1426,-5.1504,-5.0723,-4.8945,0.0,0.0,0.0,0.0,0.0,0.0,0.0,0.0,0.0,0.0,0.0,0.0,0.0,0.0,0.0,0.0,0.0,0.0,0.0,0.0,0.0,0.0,0.0,0.0,0.0,0.0,0.0,0.0,0.0,0.0,0.0,0.0,0.0,0.0,0.0,0.0,0.0,0.0,0.0,0.0,0.0,0.0,0.0,0.0,0.0,0.0,0.0,0.0,0.0,0.0,0.0,0.0,0.0,0.0,0.0,0.0,0.0,0.0,0.0,0.0,0.0,0.0,0.0,0.0,0.0,0.0,0.0,0.0,0.0,0.0,0.0,0.0,0.0,0.0,0.0,0.0,0.0,0.0,0.0,0.0,0.0,0.0,0.0,0.0,0.0,0.0,0.0,0.0,0.0,0.0,0.0,0.0,0.0,0.0,0.0,0.0,0.0,0.0,0.0,0.0,0.0,0.0,0.0,0.0,0.0,0.0,0.0,0.0,0.0,0.0,0.0,0.0,-5.279,-5.2069,-4.9551,0.0,0.0,0.0,0.0,0.0,0.0,0.0,0.0,0.0,0.0,0.0,0.0,0.0,0.0,0.0,0.0,0.0,0.0,0.0,0.0,0.0,0.0,0.0,0.0,0.0,0.0,0.0,0.0,0.0,0.0,0.0,0.0,0.0,0.0,0.0,0.0,0.0,0.0,0.0,0.0,0.0,0.0,0.0,0.0,0.0,0.0,0.0,0.0,0.0,0.0,0.0,0.0,0.0,0.0,0.0,0.0,0.0,0.0,0.0,0.0,0.0,0.0,0.0,0.0,0.0,0.0,0.0,0.0,0.0,0.0,0.0,0.0,0.0,0.0,0.0,0.0,0.0,0.0,0.0,0.0,0.0,0.0,0.0,0.0,0.0,0.0,0.0,0.0,0.0,0.0,0.0,0.0,0.0,0.0,0.0,0.0,0.0,0.0,0.0,0.0,0.0,0.0,0.0,0.0,0.0,0.0,0.0,0.0,0.0,0.0,-5.2723,-5.3574,-5.4404,0.0,-5.1289,0.0,0.0,0.0,0.0,0.0,0.0,0.0,0.0,0.0,0.0,0.0,0.0,0.0,0.0,0.0,0.0,0.0,0.0,0.0,0.0,0.0,0.0,0.0,0.0,0.0,0.0,0.0,0.0,0.0,0.0,0.0,0.0,0.0,0.0,0.0,0.0,0.0,0.0,0.0,0.0,0.0,0.0,0.0,0.0,0.0,0.0,0.0,0.0,0.0,0.0,0.0,0.0,0.0,0.0,0.0,0.0,0.0,0.0,0.0,0.0,0.0,0.0,0.0,0.0,0.0,0.0,0.0,0.0,0.0,0.0,0.0,0.0,0.0,0.0,0.0,0.0,0.0,0.0,0.0,0.0,0.0,0.0,0.0,0.0,0.0,0.0,0.0,0.0,0.0,0.0,0.0,0.0,0.0,0.0,0.0,0.0,0.0,0.0,0.0,0.0,0.0,0.0,0.0,0.0,0.0,0.0,0.0,0.0,0.0,0.0,-5.4042,-5.4455,-5.3364,-5.2313,0.0,0.0,0.0,0.0,0.0,0.0,0.0,0.0,0.0,0.0,0.0,0.0,0.0,0.0,0.0,0.0,0.0,0.0,0.0,0.0,0.0,0.0,0.0,0.0,0.0,0.0,0.0,0.0,0.0,0.0,0.0,0.0,0.0,0.0,0.0,0.0,0.0,0.0,0.0,0.0,0.0,0.0,0.0,0.0,0.0,0.0,0.0,0.0,0.0,0.0,0.0,0.0,0.0,0.0,0.0,0.0,0.0,0.0,0.0,0.0,0.0,0.0,0.0,0.0,0.0,0.0,0.0,0.0,0.0,0.0,0.0,0.0,0.0,0.0,0.0,0.0,0.0,0.0,0.0,0.0,0.0,0.0,0.0,0.0,0.0,0.0,0.0,0.0,0.0,0.0,0.0,0.0,0.0,0.0,0.0,0.0,0.0,0.0,0.0,0.0,0.0,0.0,0.0,0.0,0.0,0.0,0.0,0.0,0.0,0.0,-5.4214,-5.5042,-5.5417,-5.3876,-5.2434,-5.1224,0.0,0.0,0.0,0.0,0.0,0.0,0.0,0.0,0.0,0.0,0.0,0.0,0.0,0.0,0.0,0.0,0.0,0.0,0.0,0.0,0.0,0.0,0.0,0.0,0.0,0.0,0.0,0.0,0.0,0.0,0.0,0.0,0.0,0.0,0.0,0.0,0.0,0.0,0.0,0.0,0.0,0.0,0.0,0.0,0.0,0.0,0.0,0.0,0.0,0.0,0.0,0.0,0.0,0.0,0.0,0.0,0.0,0.0,0.0,0.0,0.0,0.0,0.0,0.0,0.0,0.0,0.0,0.0,0.0,0.0,0.0,0.0,0.0,0.0,0.0,0.0,0.0,0.0,0.0,0.0,0.0,0.0,0.0,0.0,0.0,0.0,0.0,0.0,0.0,0.0,0.0,0.0,0.0,0.0,0.0,0.0,0.0,0.0,0.0,0.0,0.0,0.0,0.0,0.0,0.0,0.0,0.0,0.0,-5.532,-5.4879,-5.5355,-5.7052,-5.7288,-5.5455,0.0,0.0,0.0,0.0,0.0,0.0,0.0,0.0,0.0,0.0,0.0,0.0,0.0,0.0,0.0,0.0,0.0,0.0,0.0,0.0,0.0,0.0,0.0,0.0,0.0,0.0,0.0,0.0,0.0,0.0,0.0,0.0,0.0,0.0,0.0,0.0,0.0,0.0,0.0,0.0,0.0,0.0,0.0,0.0,0.0,0.0,0.0,0.0,0.0,0.0,0.0,0.0,0.0,0.0,0.0,0.0,0.0,0.0,0.0,0.0,0.0,0.0,0.0,0.0,0.0,0.0,0.0,0.0,0.0,0.0,0.0,0.0,0.0,0.0,0.0,0.0,0.0,0.0,0.0,0.0,0.0,0.0,0.0,0.0,0.0,0.0,0.0,0.0,0.0,0.0,0.0,0.0,0.0,0.0,0.0,0.0,0.0,0.0,0.0,0.0,0.0,0.0,0.0,0.0,0.0,0.0,0.0,0.0,0.0,-5.403,-5.5395,-5.693,-5.849,-5.5812,-5.3487,0.0,0.0,0.0,0.0,0.0,0.0,0.0,0.0,0.0,0.0,0.0,0.0,0.0,0.0,0.0,0.0,0.0,0.0,0.0,0.0,0.0,0.0,0.0,0.0,0.0,0.0,0.0,0.0,0.0,0.0,0.0,0.0,0.0,0.0,0.0,0.0,0.0,0.0,0.0,0.0,0.0,0.0,0.0,0.0,0.0,0.0,0.0,0.0,0.0,0.0,0.0,0.0,0.0,0.0,0.0,0.0,0.0,0.0,0.0,0.0,0.0,0.0,0.0,0.0,0.0,0.0,0.0,0.0,0.0,0.0,0.0,0.0,0.0,0.0,0.0,0.0,0.0,0.0,0.0,0.0,0.0,0.0,0.0,0.0,0.0,0.0,0.0,0.0,0.0,0.0,0.0,0.0,0.0,0.0,0.0,0.0,0.0,0.0,0.0,0.0,0.0,0.0,0.0,0.0,0.0,0.0,0.0,0.0,0.0,-5.3991,0.0,-5.8261,-5.8138,-5.518,-5.2737,0.0,0.0,0.0,0.0,0.0,0.0,0.0,0.0,0.0,0.0,0.0,0.0,0.0,0.0,0.0,0.0,0.0,0.0,0.0,0.0,0.0,0.0,0.0,0.0,0.0,0.0,0.0,0.0,0.0,0.0,0.0,0.0,0.0,0.0,0.0,0.0,0.0,0.0,0.0,0.0,0.0,0.0,0.0,0.0,0.0,0.0,0.0,0.0,0.0,0.0,0.0,0.0,0.0,0.0,0.0,0.0,0.0,0.0,0.0,0.0,0.0,0.0,0.0,0.0,0.0,0.0,0.0,0.0,0.0,0.0,0.0,0.0,0.0,0.0,0.0,0.0,0.0,0.0,0.0,0.0,0.0,0.0,0.0,0.0,0.0,0.0,0.0,0.0,0.0,0.0,0.0,0.0,0.0,0.0,0.0,0.0,0.0,0.0,0.0,0.0,0.0,0.0,0.0,0.0,0.0,0.0,0.0,0.0,-5.2405,-5.5607,-5.8915,-5.9108,-5.5964,-5.5851,-5.3598,0.0,0.0,0.0,0.0,0.0,0.0,0.0,0.0,0.0,0.0,0.0,0.0,0.0,0.0,0.0,0.0,0.0,0.0,0.0,0.0,0.0,0.0,0.0,0.0,0.0,0.0,0.0,0.0,0.0,0.0,0.0,0.0,0.0,0.0,0.0,0.0,0.0,0.0,0.0,0.0,0.0,0.0,0.0,0.0,0.0,0.0,0.0,0.0,0.0,0.0,0.0,0.0,0.0,0.0,0.0,0.0,0.0,0.0,0.0,0.0,0.0,0.0,0.0,0.0,0.0,0.0,0.0,0.0,0.0,0.0,0.0,0.0,0.0,0.0,0.0,0.0,0.0,0.0,0.0,0.0,0.0,0.0,0.0,0.0,0.0,0.0,0.0,0.0,0.0,0.0,0.0,0.0,0.0,0.0,0.0,0.0,0.0,0.0,0.0,0.0,0.0,0.0,0.0,0.0,0.0,0.0,0.0,0.0,0.0,-5.4934,-5.7627,-5.9127,-5.91,-5.5951,-5.3476,0.0,0.0,0.0,0.0,0.0,0.0,0.0,0.0,0.0,0.0,0.0,0.0,0.0,0.0,0.0,0.0,0.0,0.0,0.0,0.0,0.0,0.0,0.0,0.0,0.0,0.0,0.0,0.0,0.0,0.0,0.0,0.0,0.0,0.0,0.0,0.0,0.0,0.0,0.0,0.0,0.0,0.0,0.0,0.0,0.0,0.0,0.0,0.0,0.0,0.0,0.0,0.0,0.0,0.0,0.0,0.0,0.0,0.0,0.0,0.0,0.0,0.0,0.0,0.0,0.0,0.0,0.0,0.0,0.0,0.0,0.0,0.0,0.0,0.0,0.0,0.0,0.0,0.0,0.0,0.0,0.0,0.0,0.0,0.0,0.0,0.0,0.0,0.0,0.0,0.0,0.0,0.0,0.0,0.0,0.0,0.0,0.0,0.0,0.0,0.0,0.0,0.0,0.0,0.0,0.0,0.0,0.0,0.0,0.0,-5.6934,-5.9031,-6.0204,-6.03,-5.6377,-5.367,-5.2384,0.0,0.0,0.0,0.0,0.0,0.0,0.0,0.0,0.0,0.0,0.0,0.0,0.0,0.0,0.0,0.0,0.0,0.0,0.0,0.0,0.0,0.0,0.0,0.0,0.0,0.0,0.0,0.0,0.0,0.0,0.0,0.0,0.0,0.0,0.0,0.0,0.0,0.0,0.0,0.0,0.0,0.0,0.0,0.0,0.0,0.0,0.0,0.0,0.0,0.0,0.0,0.0,0.0,0.0,0.0,0.0,0.0,0.0,0.0,0.0,0.0,0.0,0.0,0.0,0.0,0.0,0.0,0.0,0.0,0.0,0.0,0.0,0.0,0.0,0.0,0.0,0.0,0.0,0.0,0.0,0.0,0.0,0.0,0.0,0.0,0.0,0.0,0.0,0.0,0.0,0.0,0.0,0.0,0.0,0.0,0.0,0.0,0.0,0.0,0.0,0.0,0.0,0.0,0.0,0.0,0.0,0.0,0.0,-6.0762,-6.2493,-6.2243,-5.9992,-5.728,-5.4362,0.0,0.0,0.0,0.0,0.0,0.0,0.0,0.0,0.0,0.0,0.0,0.0,0.0,0.0,0.0,0.0,0.0,0.0,0.0,0.0,0.0,0.0,0.0,0.0,0.0,0.0,0.0,0.0,0.0,0.0,0.0,0.0,0.0,0.0,0.0,0.0,0.0,0.0,0.0,0.0,0.0,0.0,0.0,0.0,0.0,0.0,0.0,0.0,0.0,0.0,0.0,0.0,0.0,0.0,0.0,0.0,0.0,0.0,0.0,0.0,0.0,0.0,0.0,0.0,0.0,0.0,0.0,0.0,0.0,0.0,0.0,0.0,0.0,0.0,0.0,0.0,0.0,0.0,0.0,0.0,0.0,0.0,0.0,0.0,0.0,0.0,0.0,0.0,0.0,0.0,0.0,0.0,0.0,0.0,0.0,0.0,0.0,0.0,0.0,0.0,0.0,0.0,0.0,0.0,0.0,0.0,0.0,0.0,0.0,-6.0781,-6.3051,-6.4243,-6.4109,-5.9954,-5.6928,0.0,0.0,0.0,0.0,0.0,0.0,0.0,0.0,0.0,0.0,0.0,0.0,0.0,0.0,0.0,0.0,0.0,0.0,0.0,0.0,0.0,0.0,0.0,0.0,0.0,0.0,0.0,0.0,0.0,0.0,0.0,0.0,0.0,0.0,0.0,0.0,0.0,0.0,0.0,0.0,0.0,0.0,0.0,0.0,0.0,0.0,0.0,0.0,0.0,0.0,0.0,0.0,0.0,0.0,0.0,0.0,0.0,0.0,0.0,0.0,0.0,0.0,0.0,0.0,0.0,0.0,0.0,0.0,0.0,0.0,0.0,0.0,0.0,0.0,0.0,0.0,0.0,0.0,0.0,0.0,0.0,0.0,0.0,0.0,0.0,0.0,0.0,0.0,0.0,0.0,0.0,0.0,0.0,0.0,0.0,0.0,0.0,0.0,0.0,0.0,0.0,0.0,0.0,0.0,0.0,0.0,0.0,0.0,-5.9992,-6.2358,-6.4532,-6.5897,-6.6378,-6.2185,-5.88,0.0,0.0,0.0,0.0,0.0,0.0,0.0,0.0,0.0,0.0,0.0,0.0,0.0,0.0,0.0,0.0,0.0,0.0,0.0,0.0,0.0,0.0,0.0,0.0,0.0,0.0,0.0,0.0,0.0,0.0,0.0,0.0,0.0,0.0,0.0,0.0,0.0,0.0,0.0,0.0,0.0,0.0,0.0,0.0,0.0,0.0,0.0,0.0,0.0,0.0,0.0,0.0,0.0,0.0,0.0,0.0,0.0,0.0,0.0,0.0,0.0,0.0,0.0,0.0,0.0,0.0,0.0,0.0,0.0,0.0,0.0,0.0,0.0,0.0,0.0,0.0,0.0,0.0,0.0,0.0,0.0,0.0,0.0,0.0,0.0,0.0,0.0,0.0,0.0,0.0,0.0,0.0,0.0,0.0,0.0,0.0,0.0,0.0,0.0,0.0,0.0,0.0,0.0,0.0,0.0,0.0,0.0,0.0,-6.1204,-6.4397,-6.6109,-6.6974,-6.6878,-6.3782,-6.0177,0.0,0.0,0.0,0.0,0.0,0.0,0.0,0.0,0.0,0.0,0.0,0.0,0.0,0.0,0.0,0.0,0.0,0.0,0.0,0.0,0.0,0.0,0.0,0.0,0.0,0.0,0.0,0.0,0.0,0.0,0.0,0.0,0.0,0.0,0.0,0.0,0.0,0.0,0.0,0.0,0.0,0.0,0.0,0.0,0.0,0.0,0.0,0.0,0.0,0.0,0.0,0.0,0.0,0.0,0.0,0.0,0.0,0.0,0.0,0.0,0.0,0.0,0.0,0.0,0.0,0.0,0.0,0.0,0.0,0.0,0.0,0.0,0.0,0.0,0.0,0.0,0.0,0.0,0.0,0.0,0.0,0.0,0.0,0.0,0.0,0.0,0.0,0.0,0.0,0.0,0.0,0.0,0.0,0.0,0.0,0.0,0.0,0.0,0.0,0.0,0.0,0.0,0.0,0.0,0.0,0.0,0.0,0.0,-6.1512,-6.3531,-6.5263,-6.6147,-6.6147,-6.3524,-6.0723,0.0,0.0,0.0,0.0,0.0,0.0,0.0,0.0,0.0,0.0,0.0,0.0,0.0,0.0,0.0,0.0,0.0,0.0,0.0,0.0,0.0,0.0,0.0,0.0,0.0,0.0,0.0,0.0,0.0,0.0,0.0,0.0,0.0,0.0,0.0,0.0,0.0,0.0,0.0,0.0,0.0,0.0,0.0,0.0,0.0,0.0,0.0,0.0,-5.3001,0.0,0.0,0.0,0.0,0.0,0.0,0.0,0.0,0.0,0.0,0.0,0.0,0.0,0.0,0.0,0.0,0.0,0.0,0.0,0.0,0.0,0.0,0.0,0.0,0.0,0.0,0.0,0.0,0.0,0.0,0.0,0.0,0.0,0.0,0.0,0.0,0.0,0.0,0.0,0.0,0.0,0.0,0.0,0.0,0.0,0.0,0.0,0.0,0.0,0.0,0.0,0.0,0.0,0.0,0.0,0.0,0.0,0.0,0.0,-6.2224,-6.3878,-6.5224,-6.5878,-6.5801,-6.3801,-6.1281,0.0,0.0,0.0,0.0,0.0,0.0,0.0,0.0,0.0,0.0,0.0,0.0,0.0,0.0,0.0,0.0,0.0,0.0,0.0,0.0,0.0,0.0,0.0,0.0,0.0,0.0,0.0,0.0,0.0,0.0,0.0,0.0,0.0,0.0,0.0,0.0,0.0,0.0,0.0,0.0,0.0,0.0,0.0,0.0,0.0,0.0,0.0,0.0,0.0,0.0,0.0,0.0,0.0,0.0,0.0,0.0,0.0,0.0,0.0,0.0,0.0,0.0,0.0,0.0,0.0,0.0,0.0,0.0,0.0,0.0,0.0,0.0,0.0,0.0,0.0,0.0,0.0,0.0,0.0,0.0,0.0,0.0,0.0,0.0,0.0,0.0,0.0,0.0,0.0,0.0,0.0,0.0,0.0,0.0,0.0,0.0,0.0,0.0,0.0,0.0,0.0,0.0,0.0,0.0,0.0,0.0,0.0,-6.0254,-6.2647,-6.4532,-6.5436,-6.584,-6.5667,-6.4128,-6.1654,-5.8242,0.0,0.0,0.0,0.0,0.0,0.0,0.0,0.0,0.0,0.0,0.0,0.0,0.0,0.0,0.0,0.0,0.0,0.0,0.0,0.0,0.0,0.0,0.0,0.0,0.0,0.0,0.0,0.0,0.0,0.0,0.0,0.0,0.0,0.0,0.0,0.0,0.0,0.0,-5.2327,-5.3876,0.0,0.0,0.0,0.0,0.0,0.0,0.0,0.0,-5.2268,0.0,0.0,0.0,0.0,0.0,0.0,0.0,0.0,0.0,0.0,0.0,0.0,0.0,0.0,0.0,0.0,0.0,0.0,0.0,0.0,0.0,0.0,0.0,0.0,0.0,0.0,0.0,0.0,0.0,0.0,0.0,0.0,0.0,0.0,0.0,0.0,0.0,0.0,0.0,0.0,0.0,0.0,0.0,0.0,0.0,0.0,0.0,0.0,0.0,0.0,0.0,0.0,0.0,0.0,0.0,0.0,-5.9031,-5.9646,-6.1454,-6.4532,-6.5455,-6.5551,-6.4839,-6.3839,-6.1396,-5.7464,0.0,0.0,0.0,0.0,0.0,0.0,0.0,0.0,0.0,0.0,0.0,0.0,0.0,0.0,0.0,0.0,0.0,0.0,0.0,0.0,0.0,0.0,0.0,0.0,0.0,0.0,0.0,0.0,0.0,0.0,0.0,0.0,0.0,0.0,0.0,0.0,0.0,0.0,0.0,-5.5934,-5.6896,0.0,0.0,0.0,0.0,0.0,0.0,0.0,0.0,-5.3146,0.0,0.0,0.0,0.0,0.0,0.0,0.0,0.0,0.0,0.0,0.0,0.0,0.0,0.0,0.0,0.0,0.0,0.0,0.0,0.0,0.0,0.0,0.0,0.0,0.0,0.0,0.0,0.0,0.0,0.0,0.0,0.0,0.0,0.0,0.0,0.0,0.0,0.0,0.0,0.0,0.0,0.0,0.0,0.0,0.0,0.0,0.0,0.0,0.0,0.0,0.0,0.0,0.0,0.0,0.0,-5.8127,-5.9935,-6.1858,-6.3858,-6.4339,-6.4359,-6.3916,-6.2243,-5.9973,0.0,0.0,0.0,0.0,0.0,0.0,0.0,0.0,0.0,0.0,0.0,0.0,0.0,0.0,0.0,0.0,0.0,0.0,0.0,0.0,0.0,0.0,0.0,0.0,0.0,0.0,0.0,0.0,0.0,0.0,0.0,0.0,0.0,0.0,0.0,0.0,0.0,0.0,0.0,0.0,-5.6069,-5.6646,-5.7511,0.0,0.0,0.0,0.0,0.0,0.0,-5.2529,-5.255,0.0,0.0,0.0,0.0,0.0,0.0,0.0,0.0,0.0,0.0,0.0,0.0,0.0,0.0,0.0,0.0,0.0,0.0,0.0,0.0,0.0,0.0,0.0,0.0,0.0,0.0,0.0,0.0,0.0,0.0,0.0,0.0,0.0,0.0,0.0,0.0,0.0,0.0,0.0,0.0,0.0,0.0,0.0,0.0,0.0,0.0,0.0,0.0,0.0,0.0,0.0,0.0,0.0,0.0,0.0,-5.6791,-5.9773,-6.1897,-6.3012,-6.3224,-6.3243,-6.3031,-6.0916,-5.8742,0.0,0.0,0.0,0.0,0.0,0.0,0.0,0.0,0.0,0.0,0.0,0.0,0.0,0.0,0.0,0.0,0.0,0.0,0.0,0.0,0.0,0.0,0.0,0.0,0.0,0.0,0.0,0.0,0.0,0.0,0.0,0.0,0.0,0.0,0.0,0.0,0.0,0.0,0.0,0.0,0.0,-5.6607,-5.6926,-5.5714,0.0,0.0,0.0,0.0,-5.2404,-5.2423,0.0,0.0,0.0,0.0,0.0,0.0,0.0,0.0,0.0,0.0,0.0,0.0,0.0,0.0,0.0,0.0,0.0,0.0,0.0,0.0,0.0,0.0,0.0,0.0,0.0,0.0,0.0,0.0,0.0,0.0,0.0,0.0,0.0,0.0,0.0,0.0,0.0,0.0,0.0,0.0,0.0,0.0,0.0,0.0,0.0,0.0,0.0,0.0,0.0,0.0,0.0,0.0,0.0,0.0,0.0,0.0,-5.578,-5.7742,-5.9877,-6.2127,-6.2935,-6.2954,-6.2255,-6.1204,-5.88,0.0,0.0,0.0,0.0,0.0,0.0,0.0,0.0,0.0,0.0,0.0,0.0,0.0,0.0,0.0,0.0,0.0,0.0,0.0,0.0,0.0,0.0,0.0,0.0,0.0,0.0,0.0,0.0,0.0,0.0,0.0,0.0,0.0,0.0,0.0,0.0,0.0,0.0,0.0,0.0,0.0,-5.855,-5.7195,-5.6184,-5.5472,0.0,0.0,-5.3318,-5.4087,-5.4184,0.0,0.0,0.0,0.0,0.0,0.0,0.0,0.0,0.0,0.0,0.0,0.0,0.0,0.0,0.0,0.0,0.0,0.0,0.0,0.0,0.0,0.0,0.0,0.0,0.0,0.0,0.0,0.0,0.0,0.0,0.0,0.0,0.0,0.0,0.0,0.0,0.0,0.0,0.0,0.0,0.0,0.0,0.0,0.0,0.0,0.0,0.0,0.0,0.0,0.0,0.0,0.0,0.0,0.0,0.0,-5.3068,-5.503,-5.7627,-5.9742,-6.1281,-6.1704,-6.1473,-6.0646,-5.9338,-5.7107,0.0,0.0,0.0,0.0,0.0,0.0,0.0,0.0,0.0,0.0,0.0,0.0,0.0,0.0,0.0,0.0,0.0,0.0,0.0,0.0,0.0,0.0,0.0,0.0,0.0,0.0,0.0,0.0,0.0,0.0,0.0,0.0,0.0,0.0,0.0,0.0,0.0,0.0,0.0,0.0,0.0,0.0,-5.7761,-5.6992,0.0,0.0,0.0,-5.3895,-5.378,0.0,0.0,0.0,0.0,0.0,0.0,0.0,0.0,0.0,0.0,0.0,0.0,0.0,0.0,0.0,0.0,0.0,0.0,0.0,0.0,0.0,0.0,0.0,0.0,0.0,0.0,0.0,0.0,0.0,0.0,0.0,0.0,0.0,0.0,0.0,0.0,0.0,0.0,0.0,0.0,0.0,0.0,0.0,0.0,0.0,0.0,0.0,0.0,0.0,0.0,0.0,0.0,0.0,0.0,0.0,0.0,0.0,-5.4511,-5.7607,-5.9723,-6.0742,-6.08,-6.0396,-5.9511,-5.8069,0.0,0.0,0.0,0.0,0.0,0.0,0.0,0.0,0.0,0.0,0.0,0.0,0.0,0.0,0.0,0.0,0.0,0.0,0.0,0.0,0.0,0.0,0.0,0.0,0.0,0.0,0.0,-4.4563,0.0,0.0,0.0,0.0,0.0,0.0,0.0,0.0,0.0,0.0,0.0,0.0,0.0,0.0,-5.6905,-5.7544,-5.7104,-5.6498,0.0,0.0,-5.4027,-5.3587,-5.3617,-5.3221,0.0,0.0,0.0,0.0,0.0,0.0,0.0,0.0,0.0,0.0,0.0,0.0,0.0,0.0,0.0,0.0,0.0,0.0,0.0,0.0,0.0,0.0,0.0,0.0,0.0,0.0,0.0,0.0,0.0,0.0,0.0,0.0,0.0,0.0,0.0,0.0,0.0,0.0,0.0,0.0,0.0,0.0,0.0,0.0,0.0,0.0,0.0,0.0,0.0,0.0,0.0,0.0,0.0,0.0,-5.2068,-5.4491,-5.7049,-5.9146,-6.0704,-6.08,-6.0377,-5.9531,-5.8646,-5.6242,0.0,0.0,0.0,0.0,0.0,0.0,0.0,0.0,0.0,0.0,0.0,0.0,0.0,0.0,0.0,0.0,0.0,0.0,0.0,0.0,0.0,0.0,0.0,0.0,0.0,0.0,0.0,0.0,0.0,0.0,0.0,0.0,0.0,0.0,0.0,0.0,0.0,0.0,0.0,0.0,0.0,-5.5804,-5.5867,-5.5813,-5.6037,0.0,-5.4812,-5.3546,-5.4298,-5.4738,-5.4142,-5.1745,0.0,0.0,0.0,0.0,0.0,0.0,0.0,0.0,0.0,0.0,0.0,0.0,0.0,0.0,0.0,0.0,0.0,0.0,0.0,0.0,0.0,0.0,0.0,0.0,0.0,0.0,0.0,0.0,0.0,0.0,0.0,0.0,0.0,0.0,0.0,0.0,0.0,0.0,0.0,0.0,0.0,0.0,0.0,0.0,0.0,0.0,0.0,0.0,0.0,0.0,0.0,0.0,0.0,-5.1433,-5.2914,-5.5934,-5.8069,-5.9204,-5.9261,-5.8858,-5.7973,-5.7146,-5.4972,0.0,0.0,0.0,0.0,0.0,0.0,0.0,0.0,0.0,0.0,0.0,0.0,0.0,0.0,0.0,0.0,0.0,0.0,0.0,0.0,0.0,0.0,0.0,0.0,0.0,0.0,0.0,0.0,-4.5502,-4.5015,-4.5489,0.0,0.0,0.0,0.0,0.0,0.0,0.0,0.0,0.0,0.0,-5.4538,-5.5538,-5.5708,0.0,0.0,-5.4937,-5.411,-5.4446,-5.3755,-5.2945,-5.2202,-5.1123,0.0,0.0,0.0,0.0,0.0,0.0,0.0,0.0,0.0,0.0,0.0,0.0,0.0,0.0,0.0,0.0,0.0,0.0,0.0,0.0,0.0,0.0,0.0,0.0,0.0,0.0,0.0,0.0,0.0,0.0,0.0,0.0,0.0,0.0,0.0,0.0,0.0,0.0,0.0,0.0,0.0,0.0,0.0,0.0,0.0,0.0,0.0,0.0,0.0,0.0,0.0,0.0,-5.1087,-5.1923,-5.5261,-5.7415,-5.83,-5.8288,-5.7896,-5.7041,-5.6406,-5.444,0.0,0.0,0.0,0.0,0.0,0.0,0.0,0.0,0.0,0.0,0.0,0.0,0.0,0.0,0.0,0.0,0.0,0.0,0.0,0.0,0.0,0.0,0.0,0.0,0.0,0.0,0.0,0.0,-4.5834,-4.5228,-4.5123,0.0,0.0,0.0,0.0,0.0,0.0,0.0,0.0,0.0,0.0,-5.3709,-5.5112,-5.5317,-5.5336,-5.53,-5.4419,-5.3745,-5.3746,-5.2853,-5.209,-5.1907,0.0,0.0,0.0,0.0,0.0,0.0,0.0,0.0,0.0,0.0,0.0,0.0,0.0,0.0,0.0,0.0,0.0,0.0,0.0,0.0,0.0,0.0,0.0,0.0,0.0,0.0,0.0,-5.0702,0.0,0.0,-5.0683,0.0,0.0,0.0,0.0,0.0,0.0,0.0,0.0,0.0,0.0,0.0,0.0,0.0,0.0,0.0,0.0,0.0,0.0,0.0,0.0,0.0,0.0,-5.1068,-5.1904,-5.5203,-5.7376,-5.8212,-5.8269,-5.7827,-5.6981,-5.6934,-5.514,-5.1311,0.0,0.0,0.0,0.0,0.0,0.0,0.0,0.0,0.0,0.0,0.0,0.0,0.0,0.0,0.0,0.0,0.0,0.0,0.0,0.0,0.0,0.0,0.0,0.0,0.0,0.0,-4.5786,-4.4762,-4.3955,0.0,0.0,0.0,0.0,0.0,0.0,0.0,0.0,0.0,-4.943,-5.1706,-5.3466,-5.4317,-5.4424,-5.4412,-5.4427,-5.3104,-5.2093,-5.2132,-5.2362,-5.2025,0.0,0.0,0.0,0.0,0.0,0.0,0.0,0.0,0.0,0.0,0.0,0.0,0.0,0.0,0.0,0.0,0.0,0.0,0.0,0.0,0.0,0.0,0.0,0.0,0.0,0.0,0.0,-5.2895,-5.2375,0.0,0.0,0.0,0.0,0.0,0.0,0.0,0.0,0.0,0.0,0.0,-5.1096,-5.1645,0.0,0.0,0.0,0.0,0.0,0.0,0.0,0.0,0.0,0.0,0.0,0.0,-5.026,-5.1183,-5.3895,-5.5604,-5.6161,-5.6167,-5.5912,-5.5342,-5.4239,-5.2037,-4.8551,0.0,0.0,0.0,0.0,0.0,0.0,0.0,0.0,0.0,0.0,0.0,0.0,0.0,0.0,0.0,0.0,0.0,0.0,0.0,0.0,0.0,0.0,0.0,0.0,0.0,-4.5794,0.0,0.0,0.0,0.0,0.0,0.0,0.0,0.0,0.0,0.0,-4.7058,-4.8324,-4.9445,-5.1224,-5.2711,-5.35,-5.361,-5.361,0.0,0.0,0.0,0.0,0.0,0.0,0.0,0.0,0.0,0.0,0.0,0.0,0.0,0.0,-4.8171,-4.7335,-4.6822,-4.6548,-4.6548,0.0,0.0,0.0,0.0,0.0,0.0,0.0,0.0,0.0,0.0,0.0,0.0,0.0,0.0,-5.4116,-5.3828,-5.3708,0.0,0.0,0.0,0.0,0.0,0.0,0.0,0.0,-5.3539,-5.3462,-5.2827,-5.3376,-5.2914,0.0,-5.0991,-4.9769,0.0,0.0,0.0,0.0,0.0,0.0,0.0,0.0,-4.9744,-5.0933,-5.2989,-5.4167,-5.4429,-5.4453,-5.4187,-5.3629,-5.2153,-5.0197,-4.7777,-4.6344,-4.5223,0.0,0.0,0.0,0.0,0.0,0.0,0.0,0.0,0.0,0.0,0.0,0.0,0.0,0.0,0.0,0.0,0.0,0.0,0.0,0.0,0.0,0.0,0.0,-4.5995,0.0,0.0,0.0,0.0,0.0,0.0,0.0,0.0,0.0,-4.6654,-4.7902,-4.9169,-5.029,-5.1573,-5.2619,-5.3133,0.0,0.0,0.0,0.0,0.0,0.0,0.0,-5.1106,-5.075,-5.0509,-5.0247,-4.9907,-4.9646,-4.9286,-4.8785,0.0,0.0,-4.78,-4.7527,-4.7424,-4.7405,-4.7738,-4.7781,-4.6959,-4.6933,-4.6635,0.0,0.0,0.0,0.0,0.0,0.0,0.0,0.0,-5.4472,-5.443,0.0,-5.4687,0.0,0.0,0.0,0.0,-5.1949,-5.2327,0.0,0.0,-5.4798,-5.4854,-5.4487,-5.4468,-5.4056,-5.3268,-5.3161,-5.2119,-5.0175,-4.8469,0.0,0.0,0.0,0.0,0.0,0.0,-4.9598,-5.1243,-5.2485,-5.3141,-5.3198,-5.3145,-5.2767,-5.1922,-5.0808,-4.9789,-4.8986,-4.8062,-4.6559,-4.4219,-4.3312,0.0,0.0,0.0,0.0,0.0,0.0,0.0,0.0,0.0,0.0,0.0,0.0,0.0,0.0,0.0,0.0,0.0,0.0,0.0,0.0,-4.5865,0.0,0.0,0.0,0.0,0.0,0.0,0.0,0.0,0.0,-4.8306,-4.8361,-4.9132,-5.0235,-5.1701,0.0,0.0,0.0,0.0,-5.3185,-5.3185,-5.2546,-5.2071,-5.2089,-5.2034,-5.1465,-4.9922,0.0,0.0,-4.8636,-4.8361,-4.8399,-4.8324,-4.8325,-4.8421,-4.8757,-4.8443,-4.8196,-4.8158,-4.795,-4.7469,-4.6713,-4.6941,-4.693,-5.9101,0.0,0.0,0.0,0.0,-5.6463,-5.6757,-5.7356,-5.7019,-5.6689,-5.6311,-5.5636,0.0,0.0,0.0,0.0,0.0,0.0,-5.2641,-5.3571,-5.3682,-5.3996,-5.4496,-5.451,-5.4378,-5.4116,-5.3495,-5.2907,-5.2279,-5.0883,-4.8836,-4.6158,0.0,0.0,0.0,0.0,-4.921,-5.0785,-5.128,-5.1908,-5.2758,-5.2197,-5.1388,-5.0324,-4.9954,-4.9381,-4.8532,-4.7721,-4.6947,-4.6211,-4.4575,0.0,0.0,0.0,0.0,0.0,0.0,0.0,0.0,0.0,0.0,0.0,0.0,0.0,0.0,0.0,0.0,0.0,0.0,0.0,-4.4195,-4.5204,-4.5681,0.0,0.0,0.0,0.0,0.0,0.0,0.0,0.0,0.0,-4.9939,-5.0784,-5.1261,0.0,0.0,-5.3004,-5.2417,-5.2839,-5.3185,-5.3185,-5.3002,0.0,-5.2876,-5.238,-5.1646,-5.0618,-5.0178,-4.9776,-4.9317,-4.9243,-4.9022,-4.8434,-4.8324,-4.8345,-4.8421,-4.8365,-4.827,-4.8252,-4.8181,-4.8071,-4.785,-4.7886,-4.77,-6.0587,-5.9374,-5.7992,-5.7256,-5.7115,-5.7097,-5.7473,-5.805,-5.7885,-5.7733,-5.7583,-5.6949,-5.5715,-5.4062,-5.2554,0.0,0.0,0.0,-5.2709,-5.3698,-5.352,-5.3835,-5.4484,-5.4503,-5.4503,-5.4446,-5.3604,-5.311,-5.2928,-5.1516,-4.9474,-4.6906,0.0,-4.7435,-4.6802,-4.7582,-4.8802,-5.0378,-5.038,-5.0682,-5.138,-5.062,-4.9825,-4.9115,-4.9077,-4.8838,-4.8324,-4.7847,-4.7424,-4.7094,-4.5599,-4.4378,0.0,0.0,0.0,0.0,0.0,0.0,0.0,0.0,0.0,0.0,0.0,-4.3167,-4.2378,0.0,0.0,0.0,-4.3791,-4.4562,-4.4892,-4.581,0.0,0.0,0.0,0.0,0.0,0.0,0.0,-4.7645,-4.8416,-4.9315,-5.0637,-5.1499,-5.194,-5.1775,-5.2601,-5.3041,-5.2546,0.0,-5.3185,-5.3185,-5.3185,-5.3185,-5.3185,-5.2527,-5.1628,-5.049,-4.9627,-4.9095,-4.9096,-4.9077,-4.8875,-4.8471,-4.8324,-4.8324,-4.8324,-4.8324,-4.8324,-4.8324,-4.8324,-4.8324,-4.8324,-4.8324,-4.8067,-6.1667,-6.1397,-5.9265,-5.8072,-5.755,-5.755,-5.7725,-5.7951,-5.7603,-5.7905,-5.86,-5.8165,-5.714,-5.5559,-5.3247,0.0,-5.3381,-5.2935,-5.3418,-5.4559,-5.4091,-5.4072,-5.4484,-5.4409,-5.4406,-5.4387,-5.3564,-5.3009,-5.2604,-5.1042,-4.9658,-4.8527,-4.8788,-4.866,-4.8133,-4.7874,-4.8497,-5.002,-4.9694,-4.95,-4.95,-4.871,-4.8324,-4.8324,-4.8324,-4.8324,-4.8324,-4.8306,-4.7957,-4.7223,-4.6452,-4.5296,-4.3772,0.0,0.0,0.0,0.0,0.0,0.0,0.0,0.0,0.0,0.0,0.0,0.0,0.0,0.0,0.0,-4.5002,0.0,-4.6947,-4.7058,0.0,0.0,0.0,-4.5975,-4.6177,-4.6801,-4.7223,-4.7278,0.0,0.0,-5.071,-5.1481,-5.2289,-5.3075,-5.3185,-5.3167,-5.3133,-5.3112,-5.3185,-5.3185,-5.313,-5.3115,-5.2983,-5.227,-5.1206,-4.9904,-4.8875,-4.8398,-4.8342,-4.8361,-4.8324,-4.8324,-4.8324,-4.8324,-4.8324,-4.8324,-4.8324,-4.8324,-4.8324,-4.8324,-4.8306,-4.8213,-4.792,-6.2163,-6.1563,-6.0978,-5.9987,-5.8768,-5.8768,-5.8479,-5.8001,-5.7894,-5.7962,-5.8113,-5.7433,-5.6552,-5.5593,-5.4999,-5.4851,-5.5036,-5.4912,-5.5023,-5.5277,-5.458,-5.4324,-5.4389,-5.38,-5.3504,-5.3484,-5.3299,-5.3147,-5.3007,-5.2031,-5.1088,-5.0216,-4.9689,-4.8735,-4.7423,-4.7887,-4.8679,-4.9693,-4.8988,-4.8618,-4.8618,-4.8416,-4.8324,-4.8324,-4.8324,-4.8324,-4.8324,-4.8324,-4.8195,-4.7993,-4.7241,-4.6361,-4.5351,-4.3222,0.0,0.0,0.0,0.0,0.0,0.0,0.0,0.0,0.0,-4.2892,-4.1499,0.0,-4.3479,0.0,-4.5516,-4.6636,-4.625,-4.6746,0.0,0.0,-4.6379,-4.6654,-4.8509,-4.8306,-4.8288,-4.8949,-4.9903,-5.06,-5.0784,-5.1499,-5.2289,-5.3057,-5.3185,-5.2965,-5.2417,-5.2839,-5.3185,-5.313,-5.2692,-5.2289,-5.2179,-5.1059,-5.0069,-4.9665,-4.8875,-4.8324,-4.8324,-4.8324,-4.8324,-4.8324,-4.8324,-4.8324,-4.8324,-4.8324,-4.8324,-4.8324,-4.8324,-4.8324,-4.8306,-4.781,-4.7333,-6.2548,-6.2126,-6.2126,-6.1429,-6.0236,-5.9496,-5.8946,-5.851,-5.8162,-5.7978,-5.7941,-5.7171,-5.6565,-5.6124,-5.578,-5.5614,-5.5614,-5.5614,-5.5614,-5.5559,-5.4766,-5.4418,-5.4363,-5.3592,-5.3185,-5.3185,-5.3185,-5.3185,-5.313,-5.2032,-5.1242,-5.0784,-4.9609,-4.8563,-4.7681,-4.8086,-4.8545,-4.9023,-4.8545,-4.8324,-4.8324,-4.8324,-4.8324,-4.8324,-4.8324,-4.8141,-4.781,-4.7755,-4.7609,-4.7241,-4.6819,-4.6177,-4.5388,-4.3754,-4.247,0.0,0.0,0.0,0.0,0.0,0.0,0.0,0.0,0.0,0.0,0.0,-4.4176,-4.4544,-4.6122,-4.6911,-4.6489,-4.7149,-4.7626,-4.7626,-4.7241,-4.7517,-4.8875,-4.893,-4.9058,-4.9555,-4.9996,-5.0545,-5.1224,-5.1408,-5.1903,-5.3041,-5.3185,-5.3038,-5.2674,-5.2949,-5.3075,-5.2711,-5.2289,-5.1701,-5.1079,-5.0198,-4.9482,-4.9077,-4.8618,-4.8324,-4.8324,-4.8324,-4.8324,-4.8324,-4.8324,-4.8324,-4.8324,-4.8324,-4.8324,-4.8324,-4.8324,-4.8177,-4.7828,-4.7406,-4.6966,-6.2823,-6.2823,-6.2823,-6.2401,-6.163,-6.0052,-5.9294,-5.9129,-5.8364,-5.7978,-5.796,-5.7262,-5.6969,-5.6914,-5.6216,-5.5926,-5.5886,-5.5908,-5.5831,-5.5702,-5.4932,-5.4491,-5.4381,-5.357,-5.3185,-5.3185,-5.3185,-5.3185,-5.313,-5.1573,-5.082,-5.0729,-4.9132,-4.8324,-4.8324,-4.8324,-4.8324,-4.8324,-4.8324,-4.8324,-4.8324,-4.8324,-4.8324,-4.8306,-4.8214,-4.781,-4.7131,-4.6984,-4.6636,-4.5957,-4.5902,-4.5571,-4.4874,-4.3993,-4.3185,0.0,-4.159,0.0,0.0,0.0,0.0,0.0,0.0,0.0,0.0,-4.3994,-4.5296,-4.5993,-4.6782,-4.7259,-4.7259,-4.7883,-4.8324,-4.8324,-4.8324,-4.8343,-4.8471,-4.9224,-4.9757,-4.9757,-4.9849,-5.0492,-5.174,-5.1371,-5.1555,-5.2892,-5.3185,-5.3167,-5.3167,-5.3167,-5.2949,-5.2123,-5.1832,-5.1022,-4.9831,-4.9463,-4.9151,-4.8489,-4.8343,-4.8324,-4.8324,-4.8324,-4.8324,-4.8324,-4.8324,-4.8324,-4.8324,-4.8324,-4.8324,-4.8324,-4.8196,-4.7883,-4.7314,-4.6984,-4.6452,-6.2823,-6.2823,-6.2823,-6.2707,-6.2456,-6.086,-5.9813,-5.9148,-5.8364,-5.7978,-5.7978,-5.7831,-5.7776,-5.7758,-5.7611,-5.7556,-5.7538,-5.7538,-5.7189,-5.6547,-5.5739,-5.5023,-5.4381,-5.3592,-5.3185,-5.3185,-5.3185,-5.3185,-5.3148,-5.1591,-5.082,-5.0765,-4.9132,-4.8324,-4.8324,0.0,0.0,0.0,-4.8324,-4.8324,-4.8324,-4.8324,-4.8324,-4.8306,-4.7681,0.0,-4.7094,-4.6471,-4.6067,-4.592,-4.5902,0.0,0.0,0.0,0.0,0.0,0.0,0.0,0.0,0.0,0.0,0.0,-4.2396,-4.258,-4.3259,-4.5351,-4.6709,-4.6874,-4.7608,-4.8086,-4.8048,-4.8196,-4.8324,-4.8324,-4.8324,-4.8581,-4.928,-5.005,-5.0563,-5.0582,-5.1132,-5.1628,-5.1922,-5.1848,-5.2123,-5.302,-5.3185,-5.3185,-5.3185,-5.3167,-5.2894,-5.2105,-5.0932,-4.9738,-4.8691,-4.8581,-4.8581,-4.8324,-4.8324,-4.8324,-4.8324,-4.8324,-4.8324,-4.8324,-4.8324,-4.8306,-4.8288,-4.8324,-4.8251,-4.8306,-4.7755,-4.7278,-4.7113,-4.6562,-4.5847,-6.2823,-6.2823,-6.2823,-6.2823,0.0,-6.1098,-6.0181,-5.9722,-5.851,-5.7978,-5.7978,-5.7978,-5.7978,-5.7978,-5.7978,-5.7978,-5.7978,-5.7593,-5.7189,-5.6748,-5.5556,-5.4785,-5.4363,-5.3552,-5.3185,-5.3185,-5.3185,-5.3185,-5.3112,-5.1573,-5.082,-5.0784,-4.9132,-4.8324,-4.8324,-4.8324,-4.8324,-4.8324,-4.8324,-4.8324,-4.8324,-4.8324,-4.8324,-4.8306,-4.7901,0.0,0.0,0.0,0.0,0.0,0.0,0.0,0.0,0.0,0.0,-4.3461,-4.2727,-4.2286,-4.2286,-4.2268,-4.2451,-4.2855,-4.3608,-4.425,-4.4654,-4.6177,-4.7259,-4.7663,-4.8048,-4.8324,-4.8324,-4.8324,-4.8324,-4.8324,-4.8324,-4.8489,-4.9003,-5.0068,-5.0802,-5.0875,-5.1499,-5.2123,-5.2546,-5.2197,-5.2344,-5.3059,-5.3185,-5.3185,-5.3148,-5.2858,-5.2215,-5.1024,-4.9811,-4.8838,-4.8416,-4.8324,-4.8324,-4.8324,-4.8324,-4.8324,-4.8324,-4.8324,-4.8324,-4.8324,-4.8324,-4.8214,-4.781,-4.77,-4.7609,-4.7205,-4.6801,-4.6324,-4.6012,-4.5572,-4.5076,-6.2823,-6.2823,-6.2823,-6.2823,-6.2695,-6.1098,-6.0254,-5.9905,-5.8565,0.0,0.0,-5.7978,-5.7978,-5.7978,-5.7978,-5.7923,-5.774,-5.7116,-5.6657,-5.6308,-5.5005,-5.4326,-5.4142,-5.3497,-5.3185,-5.3185,-5.3185,-5.3112,-5.2931,-5.1518,-5.0729,-5.0472,-4.9058,-4.8324,-4.8324,-4.8324,-4.8324,-4.8324,-4.8324,-4.8324,-4.8324,-4.8324,-4.8324,-4.8324,-4.8177,-4.7407,-4.5975,-4.5755,-4.5002,-4.3588,-4.3479,-4.3479,-4.3479,-4.3479,-4.3479,-4.3479,-4.3479,-4.3479,-4.3479,-4.3479,-4.357,-4.3699,-4.5057,-4.5957,-4.6104,-4.6856,-4.759,-4.8251,-4.8324,-4.8324,-4.8324,-4.8324,-4.8324,-4.8324,-4.8324,-4.8324,-4.8416,-4.9627,-5.0545,-5.0674,-5.1261,-5.2068,-5.2784,-5.238,-5.2289,-5.2983,-5.3185,-5.3041,-5.2766,-5.2179,-5.1316,-4.9978,-4.9022,-4.8343,-4.8324,-4.8324,-4.8324,-4.8324,-4.8324,-4.8324,-4.8324,-4.8324,-4.8324,-4.8324,-4.8324,-4.7975,-4.7296,-4.7149,-4.6801,-4.6049,-4.5773,-4.5498,-4.4892,-4.4563,-4.4287,-6.2823,-6.2823,-6.2823,-6.2823,-6.267,-6.108,-5.963,-5.8327,-5.8088,-5.7978,-5.7978,-5.7978,-5.7978,-5.7978,-5.7978,-5.7611,-5.6987,-5.6859,-5.6069,-5.4748,-5.4509,-5.4051,-5.3369,-5.324,-5.3185,-5.3185,-5.3185,-5.2839,-5.2123,-5.1224,-5.0453,-4.9739,-4.8783,-4.8324,-4.8324,-4.8324,-4.8324,-4.8324,-4.8324,-4.8324,-4.8324,-4.8324,-4.8324,-4.8269,-4.7645,-4.6837,-4.5938,-4.5259,-4.4452,-4.357,-4.3479,-4.3479,-4.3479,-4.3479,-4.3479,-4.3479,-4.3479,-4.3479,-4.3479,-4.3479,-4.3791,-4.4507,-4.5388,-4.6177,-4.6874,-4.7663,-4.8196,-4.8324,-4.8324,-4.8324,-4.8324,-4.8324,-4.8324,-4.8287,-4.8305,-4.8305,-4.8286,-4.9129,-4.9753,-4.9809,-5.0453,-5.1277,-5.1977,-5.2029,-5.221,-5.2947,-5.3057,-5.2729,-5.161,-5.1059,-5.0582,-4.9739,-4.8857,-4.8379,-4.8324,-4.8324,-4.8324,-4.8324,-4.8324,-4.8324,-4.8324,-4.8324,-4.8324,-4.8324,-4.8269,-4.7901,-4.7204,-4.7094,-4.6599,-4.5865,-4.5278,-4.4819,-4.4599,-4.4176,-4.3698,-6.2823,-6.2823,-6.2823,-6.2823,-6.267,-6.108,-5.9483,-5.8033,-5.7978,-5.7978,-5.7978,-5.7978,-5.7978,-5.7978,-5.7978,-5.7556,-5.6785,-5.6345,-5.5519,-5.4399,-5.394,-5.3573,-5.3203,-5.3185,-5.3185,-5.3167,-5.2747,-5.2362,-5.1903,-5.0767,-4.9978,-4.9555,-4.8728,-4.8324,-4.8324,-4.8324,-4.8324,-4.8324,-4.8324,-4.8324,-4.8324,-4.8324,-4.8324,-4.8324,-4.7939,-4.7388,-4.6581,-4.5773,-4.4984,-4.4195,-4.3753,-4.3479,-4.3479,-4.3479,-4.3479,-4.3479,-4.3479,-4.3479,-4.3479,-4.392,-4.4488,-4.5296,-4.6104,-4.6874,-4.77,-4.8086,-4.8324,-4.8324,-4.8324,-4.8324,-4.8324,-4.8324,-4.8324,-4.8324,-4.8015,-4.7818,-4.7868,-4.8215,-4.8699,-4.9026,-4.947,-5.0188,-5.1236,-5.1435,-5.1721,-5.2388,-5.2546,-5.2048,-5.0947,-5.038,-4.9829,-4.904,-4.8545,-4.8361,-4.8324,-4.8324,-4.8324,-4.8324,-4.8324,-4.8324,-4.8324,-4.8324,-4.8324,-4.8269,-4.7975,-4.7351,-4.6617,-4.6067,-4.5516,-4.4782,-4.436,-4.4048,-4.3975,-4.3718,-4.3516,-6.2823,-6.2823,-6.2823,-6.2603,-6.2144,-6.075,-5.9318,-5.8033,-5.7978,-5.7978,-5.7978,-5.7978,-5.7978,-5.7978,-5.7978,-5.7464,-5.6547,-5.5886,-5.506,-5.4124,-5.35,-5.3185,-5.3185,-5.3185,-5.3093,-5.2894,-5.2289,-5.1811,-5.1373,-5.0198,-4.95,-4.9262,-4.8618,-4.8324,-4.8324,-4.8324,-4.8324,-4.8324,-4.8324,-4.8324,-4.8324,-4.8324,-4.8324,-4.8324,-4.8306,-4.7901,-4.7131,-4.6507,-4.581,-4.5021,-4.4378,-4.3974,-4.379,-4.3773,-4.3698,-4.3516,-4.3479,-4.3571,-4.3791,-4.4342,-4.5131,-4.6104,-4.6727,-4.7443,-4.8196,-4.8324,-4.8324,-4.8324,-4.8324,-4.8324,-4.8287,-4.8152,-4.8094,-4.8075,-4.7551,-4.7176,-4.7182,-4.7321,-4.7583,-4.8048,-4.8259,-4.881,-4.98,-5.0335,-5.0818,-5.1587,-5.1544,-5.1037,-5.0558,-4.9658,-4.8648,-4.835,-4.8191,-4.8287,-4.8324,-4.8324,-4.8324,-4.8324,-4.8324,-4.8324,-4.8324,-4.8324,-4.8324,-4.8251,-4.7645,-4.6911,-4.6085,-4.5296,-4.4562,-4.3864,-4.3608,-4.3534,-4.3552,-4.3534,-4.3479,-6.2823,-6.2823,-6.2823,-6.1961,-6.0639,-5.9698,-5.8841,-5.8052,-5.7978,-5.7978,-5.7978,-5.7978,-5.7978,-5.7978,-5.7978,-5.7189,-5.5794,-5.5629,-5.4785,-5.3424,-5.3222,-5.3185,-5.3185,-5.3185,-5.2821,-5.2197,-5.1995,-5.1206,-4.9996,-4.9684,-4.9169,-4.8508,-4.8343,-4.8324,-4.8324,-4.8324,-4.8324,-4.8324,-4.8324,-4.8324,-4.8324,-4.8324,-4.8324,-4.8324,-4.8324,-4.7939,-4.7186,-4.7021,-4.6617,-4.5883,-4.57,-4.5333,-4.469,-4.4581,-4.4268,-4.3608,-4.3516,-4.3791,-4.4507,-4.4636,-4.5388,-4.6801,-4.7076,-4.7461,-4.8214,-4.8324,-4.8324,-4.8324,-4.8324,-4.8324,-4.8267,-4.7858,-4.7614,-4.7614,-4.6977,-4.6501,-4.6519,-4.6507,-4.6537,-4.6584,-4.6678,-4.698,-4.7951,-4.8734,-4.9681,-5.0969,-5.0186,-4.9525,-4.9505,-4.8183,-4.721,-4.7464,-4.7897,-4.8191,-4.8191,-4.8287,-4.8132,-4.8191,-4.8248,-4.8191,-4.8152,-4.8229,-4.8324,-4.8213,-4.7553,-4.6727,-4.6049,-4.5259,-4.4415,-4.3736,-4.3479,-4.3479,-4.3479,-4.3479,-4.3479,-6.2823,-6.2823,-6.2823,-6.1887,-6.0401,-5.9557,-5.8749,-5.7997,-5.7978,-5.7978,-5.7978,-5.7978,-5.7978,-5.7978,-5.7978,-5.7116,-5.5647,-5.5614,-5.4748,-5.3277,-5.3185,-5.3185,-5.3185,-5.3185,-5.2784,-5.1995,-5.1518,-5.0692,-4.9702,-4.9058,-4.8655,-4.8361,-4.8324,-4.8324,-4.8324,-4.8324,-4.8324,-4.8324,-4.8324,-4.8324,-4.8324,-4.8324,-4.8324,-4.8324,-4.8324,-4.8177,-4.7791,-4.7351,-4.6947,-4.6599,-4.6159,-4.5736,-4.5443,-4.5406,-4.5278,-4.4929,-4.4928,-4.5057,-4.5388,-4.5828,-4.6397,-4.7076,-4.7553,-4.7957,-4.8269,-4.8324,-4.8324,-4.8324,-4.8324,-4.8324,-4.8287,-4.8075,-4.7937,-4.7797,-4.7026,-4.6365,-4.6389,-4.5757,-4.5433,-4.574,-4.5545,-4.5778,-4.6839,-4.8048,-4.9199,-5.0102,-4.9447,-4.8759,-4.8508,-4.7264,-4.6637,-4.6756,-4.7044,-4.7154,-4.7198,-4.7176,-4.7198,-4.7198,-4.7176,-4.7219,-4.7718,-4.7777,-4.7856,-4.821,-4.7241,-4.6434,-4.5993,-4.4819,-4.3846,-4.3497,-4.3479,-4.3479,-4.3479,-4.3479,-4.3479,-6.2658,-6.242,-6.201,-6.1129,-6.0015,-5.9184,-5.8547,-5.8033,-5.7978,-5.7978,-5.7978,-5.7978,-5.7978,-5.7978,-5.7978,-5.7116,-5.5743,-5.5614,-5.473,-5.3314,-5.3185,-5.3185,-5.3185,-5.3185,-5.2674,-5.172,-5.1096,-5.027,-4.9298,-4.8636,-4.8324,-4.8324,-4.8324,-4.8324,-4.8324,-4.8324,-4.8324,-4.8324,-4.8324,-4.8324,-4.8324,-4.8324,-4.8324,-4.8324,-4.8324,-4.8324,-4.8268,-4.7736,-4.7424,-4.7424,-4.6874,-4.6452,-4.6232,-4.6232,-4.614,-4.592,-4.5902,-4.6012,-4.6214,-4.6782,-4.7204,-4.7443,-4.7994,-4.8324,-4.8324,-4.8324,-4.8324,-4.8324,-4.8324,-4.8324,-4.8305,-4.7995,-4.7797,-4.7697,-4.6664,-4.5915,-4.5815,-4.5079,-4.4769,-4.5142,-4.4917,-4.4998,-4.6091,-4.7176,-4.8111,-4.8767,-4.8391,-4.7924,-4.7367,-4.6582,-4.5915,-4.6094,-4.6021,-4.6088,-4.6312,-4.6483,-4.6389,-4.6389,-4.6483,-4.6756,-4.7237,-4.7385,-4.7397,-4.7621,-4.6562,-4.5792,-4.5406,-4.436,-4.3533,-4.3497,-4.3479,-4.3479,-4.3479,-4.3479,-4.3479,-6.2365,-6.1465,-5.9992,-5.9423,-5.9203,-5.8437,-5.8052,-5.7978,-5.7978,-5.7978,-5.7978,-5.7978,-5.7978,-5.7978,-5.7923,-5.7097,-5.5761,-5.5537,-5.4693,-5.3277,-5.3185,-5.3185,-5.3185,-5.3167,-5.2399,-5.1059,-5.0875,-4.9994,-4.8489,-4.8343,-4.8324,-4.8324,-4.8324,-4.8324,-4.8324,-4.8324,-4.8324,-4.8324,-4.8324,-4.8324,-4.8324,-4.8324,-4.8324,-4.8324,-4.8324,-4.8324,-4.8306,-4.8269,-4.8213,-4.8233,-4.8141,-4.7791,-4.7149,-4.7039,-4.6709,-4.6085,-4.5957,-4.6287,-4.6929,-4.7131,-4.7443,-4.8086,-4.8251,-4.8324,-4.8324,-4.8324,-4.8324,-4.8324,-4.8324,-4.8324,-4.8191,-4.7409,-4.6756,-4.6641,-4.552,-4.4906,-4.4786,-4.4786,-4.4598,-4.4665,-4.4637,-4.4936,-4.5637,-4.5772,-4.6351,-4.6771,-4.6396,-4.6105,-4.6428,-4.5564,-4.5194,-4.5372,-4.5294,-4.5072,-4.607,-4.6119,-4.6192,-4.6143,-4.6063,-4.6478,-4.7021,-4.7398,-4.7282,-4.7048,-4.6283,-4.5535,-4.4856,-4.425,-4.3681,-4.3479,-4.3479,-4.3479,-4.3479,-4.3479,-4.3479,-6.1557,-6.0731,-5.9667,-5.9203,-5.9111,-5.8345,-5.7978,-5.7978,-5.7978,-5.7978,-5.7978,-5.7978,-5.7978,-5.7978,-5.7464,-5.6638,-5.5614,-5.5078,-5.4234,-5.3259,-5.3185,-5.3185,-5.3185,-5.3185,-5.2362,-5.1004,-5.0802,-4.9939,-4.8471,-4.8324,-4.8324,-4.8324,-4.8324,-4.8324,-4.8324,-4.8324,-4.8324,-4.8324,-4.8324,-4.8324,-4.8324,-4.8324,-4.8324,-4.8324,-4.8324,-4.8324,-4.8324,-4.8324,-4.8324,-4.8324,-4.8324,-4.8158,-4.7921,-4.7865,-4.7736,-4.748,-4.7443,-4.7572,-4.7829,-4.7884,-4.7975,-4.8251,-4.8324,-4.8324,-4.8324,-4.8324,-4.8324,-4.8324,-4.8324,-4.8324,-4.8152,-4.7512,-4.7044,-4.6887,-4.5957,-4.5196,-4.5089,-4.4824,-4.4598,-4.4598,-4.4598,-4.4891,-4.549,-4.5686,-4.5821,-4.6007,-4.5855,-4.5817,-4.5793,-4.5405,-4.5267,-4.5399,-4.532,-4.5178,-4.5089,-4.5232,-4.5232,-4.5232,-4.5284,-4.5545,-4.5989,-4.6281,-4.6253,-4.6187,-4.5644,-4.5163,-4.4418,-4.4014,-4.3536,-4.3479,-4.3479,-4.3479,-4.3479,-4.3479,-4.3479,-6.075,-5.996,-5.9171,-5.8804,-5.8767,-5.8235,-5.7978,-5.7978,-5.7978,-5.7978,-5.7978,-5.7978,-5.7868,-5.7501,-5.6767,-5.5959,-5.5207,-5.4638,-5.3977,-5.3243,-5.3185,-5.3185,-5.3185,-5.3185,-5.2362,-5.0894,-5.0215,-4.937,-4.8453,-4.8324,-4.8324,-4.8324,-4.8324,-4.8324,-4.8324,-4.8324,-4.8324,-4.8324,-4.8324,-4.8324,-4.8324,-4.8324,-4.8324,-4.8324,-4.8324,-4.8324,-4.8324,-4.8324,-4.8324,-4.8324,-4.8324,-4.8324,-4.8324,-4.8324,-4.8324,-4.8324,-4.8306,-4.8324,-4.8324,-4.8324,-4.8306,-4.8324,-4.8324,-4.8324,-4.8324,-4.8324,-4.8324,-4.8324,-4.8324,-4.8324,-4.8172,-4.7756,-4.7406,-4.7281,-4.6407,-4.5808,-4.5757,-4.5433,-4.5142,-4.5015,-4.5142,-4.5373,-4.5593,-4.5799,-4.5952,-4.5942,-4.5925,-4.589,-4.5821,-4.5783,-4.5681,-4.5545,-4.5485,-4.5178,-4.4944,-4.4852,-4.4852,-4.4841,-4.4841,-4.4998,-4.5205,-4.5372,-4.5378,-4.5247,-4.495,-4.4545,-4.412,-4.3706,-4.3538,-4.3497,-4.3479,-4.3479,-4.3479,-4.3479,-4.3479,-5.9924,-5.9129,-5.8345,-5.807,-5.8088,-5.8015,-5.7978,-5.7978,-5.7978,-5.7978,-5.7978,-5.7978,-5.7593,-5.6822,-5.6106,-5.5225,-5.4583,-5.4344,-5.3885,-5.3222,-5.3185,-5.3185,-5.3185,-5.3185,-5.2362,-5.0765,-4.915,-4.8416,-4.8324,-4.8324,-4.8324,-4.8324,-4.8324,-4.8324,-4.8324,-4.8324,-4.8324,-4.8324,-4.8324,-4.8324,-4.8324,-4.8324,-4.8324,-4.8324,-4.8324,-4.8324,-4.8324,-4.8324,-4.8324,-4.8324,-4.8324,-4.8324,-4.8324,-4.8324,-4.8324,-4.8324,-4.8324,-4.8324,-4.8324,-4.8324,-4.8324,-4.8324,-4.8324,-4.8324,-4.8324,-4.8324,-4.8324,-4.8324,-4.8324,-4.8324,-4.821,-4.7818,-4.7449,-4.7342,-4.6728,-4.6312,-4.6336,-4.6359,-4.6143,-4.5707,-4.5908,-4.6088,-4.5843,-4.598,-4.6246,-4.6196,-4.6277,-4.6259,-4.6178,-4.6264,-4.6143,-4.5699,-4.5571,-4.5442,-4.4981,-4.4598,-4.4598,-4.4626,-4.4637,-4.4759,-4.5052,-4.5241,-4.4984,-4.4834,-4.4481,-4.407,-4.3956,-4.3597,-4.3537,-4.3479,-4.3479,-4.3479,-4.3479,-4.3479,-4.3479,-5.9116,-5.8382,-5.8107,-5.7978,-5.7978,-5.7978,-5.7978,-5.7978,-5.7978,-5.7978,-5.7978,-5.7978,-5.7556,-5.6767,-5.5959,-5.5152,-5.4381,-5.3867,-5.3445,-5.3222,-5.3185,-5.3185,-5.3185,-5.3167,-5.2362,-5.0765,-4.9095,-4.8324,-4.8324,-4.8324,-4.8324,-4.8324,-4.8324,-4.8324,-4.8324,-4.8324,-4.8324,-4.8324,-4.8324,-4.8324,-4.8324,-4.8324,-4.8324,-4.8324,-4.8324,-4.8324,-4.8324,-4.8324,-4.8324,-4.8324,-4.8324,-4.8324,-4.8324,-4.8324,-4.8324,-4.8324,-4.8324,-4.8324,-4.8324,-4.8324,-4.8324,-4.8324,-4.8324,-4.8324,-4.8324,-4.8324,-4.8324,-4.8324,-4.8324,-4.8324,-4.8267,-4.8152,-4.7838,-4.7446,-4.6819,-4.646,-4.6507,-4.646,-4.6294,-4.6192,-4.6288,-4.6288,-4.6192,-4.6365,-4.6336,-4.5989,-4.6167,-4.6318,-4.6014,-4.6524,-4.6589,-4.5757,-4.579,-4.5605,-4.4954,-4.4598,-4.4598,-4.4598,-4.4598,-4.4626,-4.4879,-4.5001,-4.4713,-4.4377,-4.4025,-4.3754,-4.3636,-4.3524,-4.3413,-4.3444,-4.3462,-4.3462,-4.3479,-4.3479,-4.3479,-5.8749,-5.8015,-5.7978,-5.7978,-5.7978,-5.7978,-5.7978,-5.7978,-5.7978,-5.7978,-5.7941,-5.7666,-5.7116,-5.6308,-5.5519,-5.4711,-5.394,-5.3427,-5.3185,-5.3185,-5.3185,-5.3185,-5.3075,-5.2546,-5.1867,-5.0692,-4.9095,-4.8324,-4.8324,-4.8324,-4.8324,-4.8324,-4.8324,-4.8324,-4.8324,-4.8324,-4.8324,-4.8324,-4.8324,-4.8324,-4.8324,-4.8324,-4.8324,-4.8324,-4.8324,-4.8324,-4.8324,-4.8324,-4.8324,-4.8324,-4.8324,-4.8324,-4.8324,-4.8324,-4.8324,-4.8324,-4.8324,-4.8324,-4.8324,-4.8324,-4.8324,-4.8324,-4.8324,-4.8324,-4.8324,-4.8324,-4.8324,-4.8324,-4.8324,-4.8324,-4.8324,-4.8305,-4.8094,-4.7777,-4.7409,-4.7132,-4.711,-4.711,-4.6959,-4.6914,-4.6999,-4.6864,-4.6548,-4.6914,-4.6687,-4.6185,-4.6359,-4.6524,-4.6209,-4.6501,-4.6167,-4.5858,-4.5732,-4.5355,-4.4759,-4.4598,-4.4598,-4.4598,-4.4598,-4.4598,-4.472,-4.4759,-4.4586,-4.4199,-4.3825,-4.3437,-4.3289,-4.3205,-4.3105,-4.3232,-4.3412,-4.3462,-4.3479,-4.3479,-4.3479,-5.8786,-5.8033,-5.7978,-5.7978,-5.7978,-5.7978,-5.7978,-5.7978,-5.7978,-5.7978,-5.7831,-5.7244,-5.6436,-5.5592,-5.4895,-5.4087,-5.3335,-5.3261,-5.3185,-5.3185,-5.3185,-5.3185,-5.3038,-5.1775,-5.1022,-5.06,-4.9114,-4.8361,-4.8324,-4.8324,-4.8324,-4.8324,-4.8324,-4.8324,-4.8324,-4.8324,-4.8324,-4.8324,-4.8324,-4.8324,-4.8324,-4.8324,-4.8324,-4.8324,-4.8324,-4.8324,-4.8324,-4.8324,-4.8324,-4.8324,-4.8324,-4.8324,-4.8324,-4.8324,-4.8324,-4.8324,-4.8324,-4.8324,-4.8324,-4.8324,-4.8324,-4.8324,-4.8324,-4.8324,-4.8324,-4.8324,-4.8324,-4.8324,-4.8324,-4.8324,-4.8324,-4.8324,-4.8267,-4.8287,-4.8113,-4.8113,-4.8248,-4.8191,-4.7951,-4.7762,-4.7949,-4.7949,-4.6911,-4.7633,-4.7407,-4.6664,-4.6705,-4.6682,-4.6281,-4.6088,-4.6014,-4.5808,-4.5511,-4.5267,-4.472,-4.4598,-4.4598,-4.4598,-4.4598,-4.4598,-4.4598,-4.4581,-4.4592,-4.4186,-4.3765,-4.3323,-4.3115,-4.3147,-4.3107,-4.3227,-4.336,-4.3448,-4.3479,-4.3479,-4.3479,-5.9263,-5.8033,-5.7978,-5.7978,-5.7978,-5.7978,-5.7978,-5.7978,-5.7978,-5.7978,-5.7813,-5.7152,-5.6326,-5.5556,-5.473,-5.3959,-5.3332,-5.3185,-5.3185,-5.3185,-5.3185,-5.3185,-5.2855,-5.1573,-5.0802,-5.0527,-4.9132,-4.8324,-4.8324,-4.8324,-4.8324,-4.8324,-4.8324,-4.8324,-4.8324,-4.8324,-4.8324,-4.8324,-4.8324,-4.8324,-4.8324,-4.8324,-4.8324,-4.8324,-4.8324,-4.8324,-4.8324,-4.8324,-4.8324,-4.8324,-4.8324,-4.8324,-4.8324,-4.8324,-4.8324,-4.8324,-4.8324,-4.8324,-4.8324,-4.8324,-4.8324,-4.8324,-4.8324,-4.8324,-4.8324,-4.8324,-4.8324,-4.8324,-4.8324,-4.8343,-4.8343,-4.8379,-4.8379,-4.8324,-4.8471,-4.8416,-4.8324,-4.8323,-4.843,-4.8919,-4.907,-4.8629,-4.8207,-4.8079,-4.7792,-4.6438,-4.6231,-4.6329,-4.5767,-4.5808,-4.5858,-4.5372,-4.5062,-4.4998,-4.4841,-4.4665,-4.4598,-4.4598,-4.4598,-4.4598,-4.4598,-4.4598,-4.4592,-4.4436,-4.4,-4.3563,-4.3509,-4.351,-4.3429,-4.324,-4.3125,-4.3156,-4.3394,-4.348,-4.3462,-5.8841,-5.7978,-5.7978,-5.7978,-5.7978,-5.7978,-5.7978,-5.7978,-5.7978,-5.7978,-5.774,-5.6767,-5.6033,-5.5522,-5.4399,-5.3683,-5.3222,-5.3185,-5.3185,-5.3185,-5.3185,-5.3002,-5.2472,-5.1353,-5.0637,-5.016,-4.8948,-4.8398,-4.8324,-4.8324,-4.8324,-4.8324,-4.8324,-4.8324,-4.8324,-4.8324,-4.8324,-4.8324,-4.8324,-4.8324,-4.8324,-4.8324,-4.8324,-4.8324,-4.8324,-4.8324,-4.8324,-4.8324,-4.8324,-4.8324,-4.8324,-4.8324,-4.8324,-4.8324,-4.8324,-4.8324,-4.8324,-4.8324,-4.8324,-4.8324,-4.8324,-4.8324,-4.8324,-4.8324,-4.8324,-4.8324,-4.8324,-4.8324,-4.8618,-4.882,-4.8912,-4.9132,-4.9315,-4.9444,-4.9352,-4.9058,-4.8415,-4.8382,-4.8591,-4.8985,-4.9122,-4.8915,-4.8336,-4.8473,-4.7576,-4.6361,-4.6178,-4.571,-4.5073,-4.5433,-4.5571,-4.5089,-4.4814,-4.4759,-4.4759,-4.4637,-4.4598,-4.4598,-4.4598,-4.4598,-4.4598,-4.4598,-4.4637,-4.4533,-4.4192,-4.395,-4.3844,-4.3677,-4.3354,-4.3151,-4.2949,-4.3039,-4.3375,-4.345,-4.3432,-5.807,-5.7978,-5.7978,-5.7978,-5.7978,-5.7978,-5.7978,-5.7978,-5.7978,-5.7905,-5.7519,-5.6235,-5.5592,-5.539,-5.3959,-5.3203,-5.3185,-5.3185,-5.3185,-5.3185,-5.3112,-5.2803,-5.183,-5.1206,-5.0417,-4.9684,-4.8728,-4.8379,-4.8324,-4.8324,-4.8324,-4.8324,-4.8324,-4.8324,-4.8324,-4.8324,-4.8324,-4.8324,-4.8324,-4.8324,-4.8324,-4.8324,-4.8324,-4.8324,-4.8324,-4.8324,-4.8324,-4.8324,-4.8324,-4.8324,-4.8324,-4.8324,-4.8324,-4.8324,-4.8324,-4.8324,-4.8324,-4.8324,-4.8324,-4.8324,-4.8324,-4.8324,-4.8324,-4.8324,-4.8324,-4.8324,-4.8379,-4.86,-4.915,-4.9462,-4.9794,-5.0325,-5.0527,-5.0508,-5.0637,-4.9993,-4.8917,-4.8545,-4.8654,-4.8735,-4.8883,-4.85,-4.8225,-4.8146,-4.8015,-4.6494,-4.6327,-4.5966,-4.536,-4.5333,-4.5237,-4.4786,-4.4637,-4.4626,-4.4626,-4.4598,-4.4598,-4.4598,-4.4598,-4.4598,-4.4598,-4.4626,-4.4665,-4.4599,-4.4421,-4.4263,-4.411,-4.3829,-4.3469,-4.3417,-4.3447,-4.3508,-4.3578,-4.344,-4.3374,-5.8584,-5.7978,-5.7978,-5.7978,-5.7978,-5.7978,-5.7978,-5.7978,-5.7978,-5.7666,-5.695,-5.5996,-5.5262,-5.4638,-5.3702,-5.3185,-5.3185,-5.3185,-5.3185,-5.3185,-5.3185,-5.2344,-5.1334,-5.082,-5.0325,-4.9499,-4.8691,-4.8324,-4.8324,-4.8324,-4.8324,-4.8324,-4.8324,-4.8324,-4.8324,-4.8324,-4.8324,-4.8324,-4.8324,-4.8324,-4.8324,-4.8324,-4.8324,-4.8324,-4.8324,-4.8324,-4.8324,-4.8324,-4.8324,-4.8324,-4.8324,-4.8324,-4.8324,-4.8324,-4.8324,-4.8324,-4.8324,-4.8324,-4.8324,-4.8324,-4.8324,-4.8324,-4.8324,-4.8324,-4.8324,-4.8361,-4.8655,-4.9114,-4.9519,-4.9994,-5.0563,-5.071,-5.0949,-5.1022,-5.0947,-5.0563,-4.9669,-4.941,-4.9604,-4.9934,-4.9759,-4.9398,-4.8729,-4.8674,-4.8114,-4.6906,-4.6484,-4.6321,-4.5908,-4.5466,-4.5145,-4.484,-4.4615,-4.4615,-4.4598,-4.4598,-4.4598,-4.4598,-4.4598,-4.4598,-4.4598,-4.4609,-4.4665,-4.4742,-4.4794,-4.4653,-4.4548,-4.4107,-4.3761,-4.3863,-4.3968,-4.389,-4.38,-4.3563,-4.3456,-5.84,-5.7997,-5.7978,-5.7978,-5.7978,-5.7978,-5.7978,-5.7978,-5.7978,-5.7556,-5.6767,-5.5959,-5.5152,-5.4363,-5.3592,-5.3185,-5.3185,-5.3185,-5.3185,-5.3093,-5.2839,-5.1958,-5.0949,-5.0343,-4.9811,-4.9022,-4.8563,-4.8324,-4.8324,-4.8324,-4.8324,-4.8324,-4.8324,-4.8324,-4.8324,-4.8324,-4.8324,-4.8324,-4.8324,-4.8324,-4.8324,-4.8324,-4.8324,-4.8324,-4.8324,-4.8324,-4.8324,-4.8324,-4.8324,-4.8324,-4.8324,-4.8324,-4.8324,-4.8324,-4.8324,-4.8324,-4.8324,-4.8324,-4.8324,-4.8324,-4.8324,-4.8324,-4.8324,-4.8324,-4.8453,-4.8618,-4.9077,-4.9647,-5.029,-5.1041,-5.1793,-5.1958,-5.1922,-5.194,-5.1883,-5.1575,-5.0887,-5.0246,-4.9744,-4.9925,-4.9517,-4.929,-4.905,-4.8976,-4.8557,-4.7475,-4.731,-4.7115,-4.637,-4.594,-4.5568,-4.5213,-4.479,-4.4615,-4.4598,-4.4598,-4.4598,-4.4598,-4.4598,-4.4598,-4.4598,-4.4637,-4.4692,-4.4797,-4.4927,-4.5171,-4.5052,-4.4593,-4.4474,-4.4921,-4.497,-4.4488,-4.4147,-4.411,-4.3943,-5.7978,-5.7978,-5.7978,-5.7978,-5.7978,-5.7978,-5.7978,-5.7978,-5.7978,-5.7446,-5.662,-5.5849,-5.506,-5.4197,-5.3537,-5.3203,-5.3148,-5.2947,-5.2855,-5.2803,-5.2105,-5.1334,-5.0527,-4.9903,-4.9279,-4.8398,-4.8324,-4.8324,-4.8324,-4.8324,-4.8324,-4.8324,-4.8324,-4.8324,-4.8324,-4.8324,-4.8324,-4.8324,-4.8324,-4.8324,-4.8324,-4.8324,-4.8324,-4.8324,-4.8324,-4.8324,-4.8324,-4.8324,-4.8324,-4.8324,-4.8324,-4.8324,-4.8324,-4.8324,-4.8324,-4.8324,-4.8324,-4.8324,-4.8324,-4.8324,-4.8324,-4.8324,-4.8508,-4.8545,-4.871,-4.9297,-4.9867,-5.0492,-5.1224,-5.2307,-5.3075,-5.2779,-5.2877,-5.2972,-5.3005,-5.2595,-5.191,-5.0713,-4.9829,-4.9333,-4.9263,-4.9104,-4.9042,-4.8978,-4.8555,-4.8227,-4.8091,-4.7804,-4.7073,-4.6549,-4.6261,-4.594,-4.5602,-4.5162,-4.5077,-4.5021,-4.497,-4.4733,-4.4699,-4.4666,-4.4649,-4.4626,-4.4692,-4.4879,-4.5062,-4.5267,-4.5407,-4.5182,-4.5328,-4.5978,-4.5894,-4.5304,-4.4938,-4.4701,-4.4551,-5.7978,-5.7978,-5.7978,-5.7978,-5.7978,-5.7978,-5.7978,-5.7978,-5.7941,-5.7152,-5.5904,-5.5611,-5.473,-5.372,-5.3314,-5.3185,-5.3004,-5.2619,-5.227,-5.2068,-5.1353,-5.0582,-4.9996,-4.9592,-4.906,-4.8526,-4.8324,-4.8324,-4.8324,-4.8324,-4.8324,-4.8324,-4.8324,-4.8324,-4.8324,-4.8324,-4.8324,-4.8324,-4.8324,-4.8324,-4.8324,-4.8324,-4.8324,-4.8324,-4.8324,-4.8324,-4.8324,-4.8324,-4.8324,-4.8324,-4.8324,-4.8324,-4.8324,-4.8324,-4.8324,-4.8324,-4.8324,-4.8324,-4.8324,-4.8324,-4.8324,-4.8471,-4.8893,-4.9335,-4.9574,-5.0123,-5.0802,-5.1555,-5.2252,-5.302,-5.3167,-5.2831,-5.2684,-5.2725,-5.2307,-5.1562,-5.118,-5.054,-4.9889,-4.9522,-4.9257,-4.9018,-4.9018,-4.9018,-4.8815,-4.8646,-4.8595,-4.8359,-4.7817,-4.7445,-4.7208,-4.6887,-4.6566,-4.6092,-4.5686,-4.5585,-4.5466,-4.5026,-4.4891,-4.4818,-4.4767,-4.4632,-4.4692,-4.4869,-4.4988,-4.5115,-4.5258,-4.5433,-4.579,-4.6121,-4.6088,-4.5982,-4.568,-4.5354,-4.5432,-5.7978,-5.7978,-5.7978,-5.7978,-5.7978,-5.7978,-5.7978,-5.7923,-5.7556,-5.6712,-5.5739,-5.5133,-5.4344,-5.3424,-5.3185,-5.3002,-5.2527,-5.2215,-5.1775,-5.1316,-5.0545,-5.0013,-4.95,-4.9188,-4.8728,-4.8398,-4.8324,-4.8324,-4.8324,-4.8324,-4.8324,-4.8324,-4.8324,-4.8324,-4.8324,-4.8324,-4.8324,-4.8324,-4.8324,-4.8324,-4.8324,-4.8324,-4.8324,-4.8324,-4.8324,-4.8324,-4.8324,-4.8324,-4.8324,-4.8324,-4.8324,-4.8324,-4.8324,-4.8324,-4.8324,-4.8324,-4.8324,-4.8324,-4.8324,-4.8343,-4.8489,-4.8967,-4.9427,-4.9812,-5.0288,-5.0949,-5.1738,-5.2454,-5.2821,-5.3185,-5.3185,-5.2809,-5.2725,-5.2509,-5.1946,-5.1292,-5.0689,-5.0241,-4.9907,-4.9622,-4.9273,-4.9018,-4.9018,-4.9018,-4.9018,-4.9018,-4.9018,-4.8765,-4.8426,-4.8139,-4.7821,-4.7614,-4.7242,-4.6819,-4.6413,-4.6295,-4.6075,-4.5618,-4.528,-4.5162,-4.4959,-4.4891,-4.48,-4.4786,-4.4906,-4.4998,-4.5258,-4.5485,-4.5865,-4.6167,-4.5989,-4.589,-4.6018,-4.6044,-4.5955,-5.7978,-5.7978,-5.7978,-5.7978,-5.7978,-5.7978,-5.7978,-5.7831,-5.7171,-5.6381,-5.5559,-5.4766,-5.3995,-5.3369,-5.3093,-5.2803,-5.2013,-5.1867,-5.1261,-5.049,-4.9719,-4.9317,-4.9114,-4.8765,-4.8343,-4.8361,-4.8324,-4.8324,-4.8324,-4.8324,-4.8324,-4.8324,-4.8324,-4.8324,-4.8324,-4.8324,-4.8324,-4.8324,-4.8324,-4.8324,-4.8324,-4.8324,-4.8324,-4.8324,-4.8324,-4.8324,-4.8324,-4.8324,-4.8324,-4.8324,-4.8324,-4.8324,-4.8324,-4.8324,-4.8324,-4.8324,-4.8324,-4.8324,-4.8343,-4.8618,-4.893,-4.9408,-4.9904,-5.0437,-5.0986,-5.1756,-5.2491,-5.3038,-5.3185,-5.3185,-5.3164,-5.3039,-5.2684,-5.2242,-5.1808,-5.1274,-5.0417,-4.985,-4.9504,-4.9256,-4.9063,-4.9018,-4.9018,-4.9018,-4.9018,-4.9018,-4.9018,-4.9018,-4.8697,-4.8511,-4.8274,-4.8122,-4.7817,-4.7445,-4.7158,-4.7056,-4.6769,-4.6346,-4.6024,-4.5838,-4.5517,-4.5229,-4.5089,-4.4873,-4.4852,-4.4998,-4.5284,-4.5459,-4.5707,-4.5815,-4.5775,-4.5863,-4.61,-4.6034,-4.5824,-5.7978,-5.7978,-5.7978,-5.7978,-5.7978,-5.7978,-5.7978,-5.7886,-5.7116,-5.6363,-5.5537,-5.4711,-5.3904,-5.3332,-5.3185,-5.2729,-5.1977,-5.1316,-5.06,-4.9701,-4.8948,-4.86,-4.8508,-4.8416,-4.8324,-4.8324,-4.8324,-4.8324,-4.8324,-4.8324,-4.8324,-4.8324,-4.8324,-4.8324,-4.8324,-4.8324,-4.8324,-4.8324,-4.8324,-4.8324,-4.8324,-4.8324,-4.8324,-4.8324,-4.8324,-4.8324,-4.8324,-4.8324,-4.8324,-4.8324,-4.8324,-4.8324,-4.8324,-4.8324,-4.8324,-4.8324,-4.8324,-4.8324,-4.8489,-4.893,-4.9519,-5.0051,-5.0802,-5.1593,-5.1995,-5.2454,-5.2983,-5.3112,-5.3185,-5.3185,-5.3082,-5.2662,-5.2312,-5.1783,-5.1223,-5.0635,-4.9936,-4.958,-4.9226,-4.9152,-4.9032,-4.9018,-4.9018,-4.9018,-4.9018,-4.9018,-4.9018,-4.9018,-4.8968,-4.8765,-4.8663,-4.8511,-4.8443,-4.8088,-4.7902,-4.78,-4.7581,-4.7158,-4.6819,-4.6532,-4.621,-4.5821,-4.5213,-4.5072,-4.499,-4.4858,-4.4934,-4.5125,-4.5433,-4.552,-4.5459,-4.5833,-4.6318,-4.6088,-4.5597,-5.7978,-5.7978,-5.7978,-5.7978,-5.7978,-5.7978,-5.7978,-5.7721,-5.6657,-5.5923,-5.5372,-5.4252,-5.3518,-5.3222,-5.3185,-5.2472,-5.1481,-5.0967,-5.005,-4.9114,-4.8526,-4.8324,-4.8343,-4.8324,-4.8324,-4.8324,-4.8324,-4.8324,-4.8324,-4.8324,-4.8324,-4.8324,-4.8324,-4.8324,-4.8324,-4.8324,-4.8324,-4.8324,-4.8324,-4.8324,-4.8324,-4.8324,-4.8324,-4.8324,-4.8324,-4.8324,-4.8324,-4.8324,-4.8324,-4.8324,-4.8324,-4.8324,-4.8324,-4.8361,-4.8471,-4.9058,-4.9058,-4.9058,-4.9095,-4.9445,-5.0033,-5.0802,-5.1628,-5.2105,-5.2582,-5.2949,-5.3185,-5.3185,-5.3185,-5.3185,-5.3185,-5.2915,-5.2266,-5.1611,-5.0858,-5.0129,-4.9652,-4.9316,-4.9032,-4.9001,-4.9018,-4.9018,-4.9018,-4.9018,-4.9018,-4.9018,-4.9018,-4.9018,-4.9018,-4.8934,-4.89,-4.8917,-4.8866,-4.8765,-4.8629,-4.8528,-4.8477,-4.8105,-4.7631,-4.7327,-4.6972,-4.6515,-4.5855,-4.5246,-4.5021,-4.4851,-4.4677,-4.4759,-4.5008,-4.5098,-4.5178,-4.5494,-4.5783,-4.5433,-4.5142,-5.7978,-5.7978,-5.7978,-5.7978,-5.796,-5.7795,-5.7685,-5.7483,-5.5978,-5.5299,-5.4932,-5.3885,-5.3222,-5.3185,-5.3093,-5.2491,-5.1187,-5.0912,-4.9939,-4.9003,-4.8416,-4.8324,-4.8324,-4.8324,-4.8324,-4.8324,-4.8324,-4.8324,-4.8324,-4.8324,-4.8324,-4.8324,-4.8324,-4.8324,-4.8324,-4.8324,-4.8324,-4.8324,-4.8324,-4.8324,-4.8324,-4.8324,-4.8324,-4.8324,-4.8324,-4.8324,-4.8324,-4.8324,-4.8324,-4.8324,-4.8324,-4.8324,-4.8324,-4.8343,-4.871,-4.9242,-4.9463,-4.9812,-5.0088,-5.0492,-5.0894,-5.1591,-5.2289,-5.2619,-5.2983,-5.3185,-5.3185,-5.3185,-5.3185,-5.3185,-5.3164,-5.302,-5.2242,-5.1512,-5.085,-5.0022,-4.9329,-4.9138,-4.9001,-4.9018,-4.9018,-4.9018,-4.9018,-4.9018,-4.9018,-4.9018,-4.9018,-4.9018,-4.9018,-4.9018,-4.9018,-4.9018,-4.9001,-4.8968,-4.8951,-4.8934,-4.9001,-4.89,-4.8426,-4.8003,-4.7564,-4.7039,-4.643,-4.5838,-4.5246,-4.4902,-4.4733,-4.4666,-4.4598,-4.4759,-4.4889,-4.4944,-4.4971,-4.472,-4.4692,-5.7978,-5.7978,-5.7978,-5.7941,-5.7905,-5.7189,-5.6914,-5.6748,-5.5207,-5.4546,-5.4363,-5.3628,-5.3185,-5.3185,-5.3112,-5.2711,-5.183,-5.1132,-5.027,-4.9444,-4.8765,-4.8434,-4.8361,-4.8324,-4.8324,-4.8324,-4.8324,-4.8324,-4.8324,-4.8324,-4.8324,-4.8324,-4.8324,-4.8324,-4.8324,-4.8324,-4.8324,-4.8324,-4.8324,-4.8324,-4.8324,-4.8324,-4.8324,-4.8324,-4.8324,-4.8324,-4.8324,-4.8324,-4.8324,-4.8324,-4.8324,-4.8324,-4.8324,-4.8471,-4.8948,-4.9572,-4.9978,-5.0547,-5.1279,-5.1538,-5.1775,-5.216,-5.2582,-5.2983,-5.3167,-5.3185,-5.3185,-5.3185,-5.3185,-5.3185,-5.2999,-5.2617,-5.2154,-5.1519,-5.0929,-5.0174,-4.9551,-4.9121,-4.9032,-4.9001,-4.9018,-4.9018,-4.9018,-4.9018,-4.9018,-4.9018,-4.9018,-4.9018,-4.9018,-4.9018,-4.9018,-4.9018,-4.9018,-4.9001,-4.9001,-4.9018,-4.9018,-4.9018,-4.8748,-4.8392,-4.802,-4.7479,-4.6955,-4.6363,-4.5771,-4.528,-4.4835,-4.4733,-4.4649,-4.4615,-4.4637,-4.4759,-4.4759,-4.4665,-4.4598,-5.7978,-5.7941,-5.7483,-5.7262,-5.7244,-5.695,-5.6528,-5.5941,-5.4876,-5.4106,-5.3665,-5.3332,-5.3185,-5.3185,-5.3148,-5.2766,-5.205,-5.1738,-5.0767,-4.9886,-4.9225,-4.8802,-4.8581,-4.8361,-4.8324,-4.8324,-4.8324,-4.8324,-4.8324,-4.8324,-4.8324,-4.8324,-4.8324,-4.8324,-4.8324,-4.8324,-4.8324,-4.8324,-4.8324,-4.8324,-4.8324,-4.8324,-4.8324,-4.8324,-4.8324,-4.8324,-4.8324,-4.8324,-4.8324,-4.8324,-4.8324,-4.8343,-4.8489,-4.8802,-4.9444,-5.0251,-5.0655,-5.1518,-5.2234,-5.2362,-5.2215,-5.2729,-5.3041,-5.3185,-5.3185,-5.3185,-5.3185,-5.3185,-5.3185,-5.3185,-5.3103,-5.2937,-5.2554,-5.1808,-5.1042,-5.0324,-4.978,-4.9359,-4.9015,-4.9032,-4.9032,-4.9018,-4.9018,-4.9018,-4.9018,-4.9018,-4.9018,-4.9018,-4.9018,-4.9018,-4.9018,-4.9018,-4.9018,-4.9018,-4.9018,-4.9018,-4.9018,-4.9018,-4.9018,-4.8731,-4.8392,-4.7956,-4.7415,-4.687,-4.6295,-4.5771,-4.528,-4.4857,-4.4671,-4.4632,-4.4615,-4.4626,-4.4598,-4.4598,-4.4598,-5.785,-5.7593,-5.7042,-5.6804,-5.6748,-5.629,-5.5776,-5.517,-5.4363,-5.3775,-5.3185,-5.3185,-5.3185,-5.3185,-5.3167,-5.2986,-5.2344,-5.1811,-5.1132,-5.0437,-4.9849,-4.9297,-4.8857,-4.8655,-4.8655,-4.8434,-4.8324,-4.8324,-4.8324,-4.8324,-4.8324,-4.8324,-4.8324,-4.8324,-4.8324,-4.8324,-4.8324,-4.8324,-4.8324,-4.8324,-4.8324,-4.8324,-4.8324,-4.8324,-4.8324,-4.8324,-4.8324,-4.8324,-4.8324,-4.8324,-4.8343,-4.8471,-4.8802,-4.9315,-5.0105,-5.0949,-5.1701,-5.238,-5.2784,-5.2839,-5.2619,-5.3041,-5.313,-5.3185,-5.3185,-5.3185,-5.3185,-5.3185,-5.3185,-5.3185,-5.3164,-5.2893,-5.2576,-5.1838,-5.13,-5.0635,-5.009,-4.9622,-4.9286,-4.9046,-4.9032,-4.9032,-4.9032,-4.9032,-4.9063,-4.9032,-4.9018,-4.9018,-4.9018,-4.9018,-4.9018,-4.9018,-4.9018,-4.9018,-4.9018,-4.9018,-4.9018,-4.9018,-4.9018,-4.9018,-4.8714,-4.8342,-4.7956,-4.7513,-4.6921,-4.6278,-4.5754,-4.5314,-4.4942,-4.4649,-4.4632,-4.4598,-4.4598,-4.4598,-4.4598,-5.7538,-5.6859,-5.6744,-5.6712,-5.6473,-5.5115,-5.4491,-5.4363,-5.3683,-5.3277,-5.3185,-5.3185,-5.3185,-5.3185,-5.3185,-5.3075,-5.2784,-5.1793,-5.1261,-5.1336,-5.0343,-4.9739,-4.9427,-4.9242,-4.8765,-4.8416,-4.8324,-4.8324,-4.8324,-4.8324,-4.8324,-4.8324,-4.8324,-4.8324,-4.8324,-4.8324,-4.8324,-4.8324,-4.8324,-4.8324,-4.8324,-4.8324,-4.8324,-4.8324,-4.8324,-4.8324,-4.8324,-4.8324,-4.8324,-4.8324,-4.8489,-4.8802,-4.9353,-4.9721,-5.0565,-5.172,-5.1958,-5.2472,-5.3078,-5.3112,-5.3148,-5.3167,-5.3185,-5.3185,-5.3185,-5.3185,-5.3185,-5.3185,-5.3185,-5.3185,-5.2977,-5.2702,-5.2427,-5.2136,-5.1618,-5.1164,-5.0635,-5.0146,-4.9867,-4.9449,-4.9199,-4.9032,-4.9032,-4.9046,-4.9107,-4.9077,-4.9032,-4.9018,-4.9018,-4.9018,-4.9018,-4.9018,-4.9018,-4.9018,-4.9018,-4.9018,-4.9018,-4.9018,-4.9018,-4.9018,-4.9018,-4.8798,-4.8443,-4.8071,-4.7567,-4.7005,-4.6363,-4.5737,-4.5534,-4.5343,-4.475,-4.4615,-4.4598,-4.4699,-4.4835,-5.7042,-5.6712,-5.5666,-5.5207,-5.5133,-5.4656,-5.4124,-5.3628,-5.3314,-5.3185,-5.3185,-5.3185,-5.3185,-5.3185,-5.3185,-5.3185,-5.3038,-5.2928,-5.2564,-5.183,-5.082,-5.0123,-4.9702,-4.915,-4.8655,-4.8398,-4.8324,-4.8324,-4.8324,-4.8324,-4.8324,-4.8324,-4.8324,-4.8324,-4.8324,-4.8324,-4.8324,-4.8324,-4.8324,-4.8324,-4.8324,-4.8343,-4.8361,-4.8379,-4.8379,-4.8379,-4.8343,-4.8343,-4.8434,-4.8526,-4.8765,-4.9372,-4.9922,-5.0326,-5.1353,-5.2123,-5.2362,-5.2876,-5.3148,-5.3167,-5.3185,-5.3222,-5.3203,-5.3203,-5.3203,-5.3185,-5.3185,-5.324,-5.3332,-5.3314,-5.3082,-5.306,-5.2893,-5.2729,-5.2335,-5.1928,-5.1444,-5.0981,-5.0572,-5.0033,-4.9681,-4.9759,-4.9781,-4.9894,-4.9915,-4.9617,-4.9545,-4.9151,-4.9035,-4.9018,-4.9018,-4.9018,-4.9018,-4.9018,-4.9018,-4.9018,-4.9018,-4.9018,-4.9018,-4.9018,-4.9018,-4.9018,-4.89,-4.8545,-4.8156,-4.7703,-4.7077,-4.6549,-4.638,-4.6058,-4.5461,-4.4987,-4.4953,-4.5128,-4.5399,-5.6216,-5.5849,-5.484,-5.4234,-5.4014,-5.3995,-5.3665,-5.324,-5.3185,-5.3185,-5.3185,-5.3185,-5.3185,-5.3185,-5.3185,-5.3185,-5.3167,-5.2839,-5.2965,-5.2197,-5.1261,-5.06,-4.9884,-4.9114,-4.8746,-4.8453,-4.8324,-4.8324,-4.8324,-4.8324,-4.8324,-4.8324,-4.8324,-4.8324,-4.8324,-4.8324,-4.8324,-4.8324,-4.8324,-4.8508,-4.8691,-4.882,-4.8802,-4.8802,-4.8746,-4.8655,-4.8508,-4.8545,-4.8746,-4.8948,-4.9426,-5.0106,-5.0657,-5.1263,-5.2142,-5.2509,-5.2803,-5.317,-5.3185,-5.3185,-5.3314,-5.3683,-5.3408,-5.3371,-5.3427,-5.3408,-5.3739,-5.383,-5.372,-5.3812,-5.3885,-5.383,-5.3476,-5.335,-5.2948,-5.2518,-5.209,-5.159,-5.1491,-5.0926,-5.0826,-5.0812,-5.076,-5.0829,-5.0929,-5.0497,-5.009,-4.963,-4.9187,-4.9221,-4.9137,-4.9018,-4.9018,-4.9018,-4.9018,-4.9018,-4.9018,-4.9018,-4.9018,-4.9018,-4.9018,-4.9018,-4.9018,-4.9001,-4.8629,-4.824,-4.78,-4.7394,-4.6955,-4.6549,-4.6092,-4.5686,-4.5382,-4.5635,-4.6058,-5.5097,-5.4454,-5.4381,-5.3904,-5.3295,-5.3277,-5.3243,-5.3185,-5.3185,-5.3185,-5.3185,-5.3185,-5.3185,-5.3185,-5.3185,-5.3185,-5.313,-5.2527,-5.2582,-5.2417,-5.1389,-5.0875,-5.0288,-4.9646,-4.8857,-4.8453,-4.8324,-4.8324,-4.8324,-4.8324,-4.8324,-4.8324,-4.8324,-4.8324,-4.8324,-4.8324,-4.8324,-4.8324,-4.8563,-4.8857,-4.9206,-4.9574,-4.961,-4.9574,-4.9463,-4.9077,-4.8893,-4.8893,-4.9242,-4.9664,-5.0251,-5.1077,-5.1665,-5.1995,-5.2546,-5.2931,-5.317,-5.3167,-5.3185,-5.3185,-5.3628,-5.3977,-5.3702,-5.383,-5.4032,-5.4032,-5.4308,-5.4656,-5.473,-5.4932,-5.51,-5.462,-5.4161,-5.3806,-5.3402,-5.2992,-5.258,-5.236,-5.2404,-5.2299,-5.2351,-5.2324,-5.214,-5.2109,-5.1824,-5.1368,-5.0857,-5.0243,-4.9864,-4.9712,-4.9543,-4.9018,-4.9018,-4.9018,-4.9018,-4.9018,-4.9018,-4.9018,-4.9018,-4.9018,-4.9018,-4.9018,-4.9018,-4.9018,-4.9018,-4.8731,-4.8308,-4.78,-4.7259,-4.6938,-4.6989,-4.6532,-4.6278,-4.6515,-4.6836,-5.462,-5.4344,-5.3794,-5.3405,-5.3203,-5.3185,-5.3185,-5.3185,-5.3185,-5.3185,-5.3185,-5.3185,-5.3185,-5.3185,-5.3185,-5.3167,-5.3075,-5.2949,-5.2582,-5.205,-5.1187,-5.0527,-4.9866,-4.9187,-4.86,-4.8416,-4.8324,-4.8324,-4.8324,-4.8324,-4.8324,-4.8324,-4.8324,-4.8324,-4.8324,-4.8324,-4.8324,-4.8471,-4.882,-4.9317,-4.9794,-5.0198,-5.0306,-5.038,-5.0014,-4.961,-4.9445,-4.9022,-4.9279,-4.9776,-5.0417,-5.1206,-5.1903,-5.2491,-5.3096,-5.3112,-5.3185,-5.3185,-5.3185,-5.3185,-5.3592,-5.4271,-5.4179,-5.4583,-5.4876,-5.5078,-5.5115,-5.5445,-5.5537,-5.5611,-5.5427,-5.5005,-5.4638,-5.4289,-5.3867,-5.3408,-5.3121,-5.3404,-5.3458,-5.3868,-5.3914,-5.3682,-5.3492,-5.3083,-5.2782,-5.2276,-5.1705,-5.1074,-5.0507,-5.0355,-4.9932,-4.939,-4.9018,-4.9018,-4.9018,-4.9018,-4.9018,-4.9018,-4.9018,-4.9018,-4.9018,-4.9018,-4.9018,-4.9018,-4.9018,-4.8951,-4.8798,-4.8325,-4.7902,-4.824,-4.8291,-4.7682,-4.7259,-4.7445,-4.7581,-5.394,-5.3867,-5.3427,-5.3185,-5.3185,-5.3185,-5.3185,-5.3185,-5.3185,-5.3185,-5.3185,-5.3185,-5.3185,-5.3133,-5.2876,-5.2674,-5.2656,-5.2179,-5.1848,-5.1426,-5.0729,-5.0141,-4.9427,-4.8765,-4.8434,-4.8324,-4.8324,-4.8324,-4.8324,-4.8324,-4.8324,-4.8324,-4.8324,-4.8324,-4.8324,-4.8324,-4.8324,-4.8618,-4.9058,-4.9684,-5.0233,-5.0802,-5.1132,-5.1169,-5.0675,-5.0418,-5.0124,-4.9572,-5.0031,-5.0583,-5.1316,-5.194,-5.2491,-5.2986,-5.3167,-5.3185,-5.3185,-5.3185,-5.3185,-5.3185,-5.3849,-5.4509,-5.4876,-5.5556,-5.5794,-5.5978,-5.6198,-5.6455,-5.6235,-5.6014,-5.5666,-5.5335,-5.5042,-5.4748,-5.4271,-5.3812,-5.4047,-5.4396,-5.4838,-5.5309,-5.5291,-5.5014,-5.466,-5.4151,-5.3661,-5.308,-5.2626,-5.217,-5.1471,-5.0947,-5.0405,-4.9779,-4.9306,-4.9018,-4.9018,-4.9018,-4.9052,-4.9052,-4.9018,-4.9018,-4.9018,-4.9018,-4.9018,-4.9018,-4.9018,-4.8968,-4.8917,-4.8951,-4.8781,-4.9018,-4.9018,-4.8494,-4.8105,-4.8223,-4.8325,-5.3203,-5.3222,-5.3185,-5.3185,-5.3206,-5.3093,-5.3038,-5.3078,-5.2892,-5.3075,-5.313,-5.3185,-5.3112,-5.2858,-5.2417,-5.205,-5.183,-5.1408,-5.1059,-5.071,-5.0143,-4.9629,-4.9169,-4.8728,-4.8379,-4.8324,-4.8324,-4.8324,-4.8324,-4.8324,-4.8324,-4.8324,-4.8324,-4.8324,-4.8324,-4.8324,-4.8434,-4.8838,-4.9444,-5.0143,-5.082,-5.1481,-5.2068,-5.2068,-5.183,-5.1591,-5.1224,-5.1371,-5.194,-5.2215,-5.2491,-5.2876,-5.3093,-5.3148,-5.3185,-5.3185,-5.3185,-5.3185,-5.3185,-5.3185,-5.4124,-5.4913,-5.5633,-5.6326,-5.662,-5.673,-5.6932,-5.7189,-5.7042,-5.6785,-5.6473,-5.6051,-5.5702,-5.5299,-5.4821,-5.4821,-5.5244,-5.5503,-5.5733,-5.611,-5.6079,-5.5749,-5.4942,-5.4372,-5.3933,-5.3594,-5.3278,-5.2925,-5.235,-5.1606,-5.0913,-5.0219,-4.9746,-4.9306,-4.9018,-4.9035,-4.9103,-4.9103,-4.9103,-4.9221,-4.9373,-4.9238,-4.9018,-4.9018,-4.9018,-4.9018,-4.9001,-4.9018,-4.9018,-4.9018,-4.9018,-4.9018,-4.8934,-4.8832,-4.8798,-5.3185,-5.3185,-5.3185,-5.3185,-5.3093,-5.2546,-5.2307,-5.2234,-5.161,-5.2087,-5.302,-5.3133,-5.2821,-5.2234,-5.205,-5.1665,-5.1059,-5.0655,-5.038,-5.0031,-4.9574,-4.915,-4.8765,-4.8489,-4.8324,-4.8324,-4.8324,-4.8324,-4.8324,-4.8324,-4.8324,-4.8324,-4.8324,-4.8324,-4.8324,-4.8324,-4.8563,-4.9114,-4.9921,-5.049,-5.0986,-5.2123,-5.2892,-5.2692,-5.2454,-5.205,-5.1646,-5.1334,-5.1665,-5.194,-5.2105,-5.2564,-5.313,-5.3167,-5.3185,-5.3185,-5.3185,-5.3185,-5.3222,-5.335,-5.4161,-5.5042,-5.5812,-5.6675,-5.7207,-5.7336,-5.7519,-5.7758,-5.7795,-5.7501,-5.7189,-5.6748,-5.6381,-5.5904,-5.539,-5.5868,-5.6326,-5.6506,-5.6624,-5.6708,-5.675,-5.6069,-5.5232,-5.4622,-5.4212,-5.3859,-5.3564,-5.323,-5.2706,-5.2063,-5.142,-5.076,-5.0219,-4.9779,-4.9424,-4.9357,-4.9593,-4.9509,-4.9475,-4.9593,-4.9695,-4.9357,-4.9018,-4.9018,-4.9018,-4.9018,-4.9018,-4.9018,-4.9018,-4.9018,-4.9018,-4.9018,-4.9018,-4.8934,-4.8968,-5.3185,-5.3185,-5.3185,-5.2986,-5.2619,-5.216,-5.1811,-5.1408,-5.0986,-5.1298,-5.2121,-5.2417,-5.2215,-5.1536,-5.1463,-5.1022,-5.0306,-4.9811,-4.9389,-4.9095,-4.9058,-4.8728,-4.8434,-4.8324,-4.8324,-4.8324,-4.8324,-4.8324,-4.8324,-4.8324,-4.8324,-4.8324,-4.8324,-4.8324,-4.8324,-4.8379,-4.8783,-4.9592,-5.0435,-5.0967,-5.1316,-5.2454,-5.3148,-5.2965,-5.2821,-5.2509,-5.2435,-5.2068,-5.2234,-5.2435,-5.2619,-5.2747,-5.313,-5.3185,-5.3185,-5.3185,-5.3185,-5.3185,-5.3259,-5.3628,-5.4234,-5.517,-5.6051,-5.6932,-5.7611,-5.774,-5.774,-5.7941,-5.7941,-5.7703,-5.7483,-5.7097,-5.7116,-5.684,-5.6069,-5.5868,-5.6547,-5.7098,-5.7238,-5.7357,-5.6986,-5.6004,-5.5161,-5.4328,-5.395,-5.3758,-5.35,-5.3484,-5.301,-5.2672,-5.1978,-5.1437,-5.0997,-5.0642,-5.0388,-5.0304,-5.0323,-5.0185,-4.9949,-4.9644,-4.9543,-4.9238,-4.9018,-4.9018,-4.9018,-4.9018,-4.9018,-4.9018,-4.9018,-4.9018,-4.9018,-4.9018,-4.9035,-4.9137,-4.9289,-5.3185,-5.3185,-5.3185,-5.2747,-5.205,-5.1848,-5.1371,-5.0692,-5.049,-5.0435,-5.0582,-5.1298,-5.1187,-5.0857,-5.0618,-5.005,-4.9517,-4.9022,-4.8508,-4.8434,-4.8416,-4.8398,-4.8398,-4.8324,-4.8324,-4.8324,-4.8324,-4.8324,-4.8324,-4.8324,-4.8324,-4.8324,-4.8324,-4.8324,-4.8324,-4.8545,-4.9022,-4.9903,-5.0729,-5.1444,-5.2123,-5.2803,-5.3075,-5.3185,-5.3185,-5.3185,-5.3206,-5.3188,-5.3188,-5.3151,-5.3078,-5.3115,-5.313,-5.3185,-5.3185,-5.3185,-5.3185,-5.3185,-5.3314,-5.3885,-5.4656,-5.5541,-5.6345,-5.7079,-5.7758,-5.7978,-5.7978,-5.7978,-5.7978,-5.7905,-5.7685,-5.7593,-5.7648,-5.7593,-5.6748,-5.6143,-5.6932,-5.7482,-5.753,-5.7618,-5.6685,-5.5695,-5.4926,-5.4059,-5.3783,-5.3568,-5.3518,-5.3518,-5.3416,-5.3196,-5.2756,-5.2401,-5.2063,-5.1725,-5.1234,-5.105,-5.0948,-5.1014,-5.0727,-4.9999,-4.9458,-4.9441,-4.9306,-4.9018,-4.9018,-4.9018,-4.9018,-4.9018,-4.9018,-4.9018,-4.9018,-4.9069,-4.9407,-4.9526,-4.9729,-5.3185,-5.3185,-5.3185,-5.2729,-5.1922,-5.1298,-5.0563,-4.9794,-4.9095,-4.8783,-4.9114,-4.9646,-4.9904,-4.9812,-4.9831,-4.9407,-4.882,-4.8361,-4.8343,-4.8324,-4.8324,-4.8324,-4.8324,-4.8324,-4.8324,-4.8324,-4.8324,-4.8324,-4.8324,-4.8324,-4.8324,-4.8324,-4.8324,-4.8361,-4.8434,-4.8838,-4.9609,-5.0398,-5.1224,-5.2013,-5.2656,-5.3075,-5.313,-5.3185,-5.3185,-5.3185,-5.3185,-5.3185,-5.3185,-5.3185,-5.3185,-5.3185,-5.3185,-5.3185,-5.3185,-5.3185,-5.3185,-5.3185,-5.3424,-5.4124,-5.4932,-5.5578,-5.6381,-5.7226,-5.7721,-5.7978,-5.7978,-5.7978,-5.7978,-5.7978,-5.7831,-5.7831,-5.7868,-5.7868,-5.7373,-5.7336,-5.7703,-5.7352,-5.6993,-5.6501,-5.5695,-5.4909,-5.4218,-5.3734,-5.3651,-5.3518,-5.3518,-5.3518,-5.3518,-5.3467,-5.3416,-5.3179,-5.2909,-5.2215,-5.1455,-5.1506,-5.1472,-5.1606,-5.1454,-5.0642,-5.0101,-4.9949,-4.9729,-4.9187,-4.9018,-4.9018,-4.9018,-4.9018,-4.9018,-4.9018,-4.9018,-4.9137,-4.9543,-4.9915,-5.0118]},{"header":{"parameterUnit":"m.s-1","parameterCategory":1,"la1":31.0,"la2":29.5877,"lo1":-88.7671,"lo2":-86.6584,"dy":0.0162,"dx":0.0185,"nx":115,"ny":88,"refTime":"2026-05-20T00:00:00:Z","depth":0,"parameterNumber":3,"parameterNumberName":"V-component_of_WINDS"},"data":[0.0,0.0,0.0,0.0,0.0,0.0,0.0,0.0,0.0,0.0,0.0,0.0,0.0,0.0,0.0,0.0,0.0,0.0,0.0,0.0,0.0,0.0,0.0,0.0,0.0,0.0,0.0,0.0,0.0,0.0,0.0,0.0,0.0,0.0,0.0,0.0,0.0,0.0,0.0,0.0,0.0,0.0,0.0,0.0,0.0,0.0,0.0,0.0,0.0,0.0,0.0,0.0,0.0,0.0,0.0,0.0,0.0,0.0,0.0,0.0,0.0,0.0,0.0,0.0,0.0,0.0,0.0,0.0,0.0,0.0,0.0,0.0,0.0,0.0,0.0,0.0,0.0,0.0,0.0,0.0,0.0,0.0,0.0,0.0,0.0,0.0,0.0,0.0,0.0,0.0,0.0,0.0,0.0,0.0,0.0,0.0,0.0,0.0,0.0,0.0,0.0,0.0,0.0,0.0,0.0,0.0,0.0,0.0,0.0,0.0,0.0,0.0,0.0,0.0,0.0,0.0,0.0,0.0,0.0,0.0,0.0,0.0,0.0,0.0,0.0,0.0,0.0,0.0,0.0,0.0,0.0,0.0,0.0,0.0,0.0,0.0,0.0,0.0,0.0,0.0,0.0,0.0,0.0,0.0,0.0,0.0,0.0,0.0,0.0,0.0,0.0,0.0,0.0,0.0,0.0,0.0,0.0,0.0,0.0,0.0,0.0,0.0,0.0,0.0,0.0,0.0,0.0,0.0,0.0,0.0,0.0,0.0,0.0,0.0,0.0,0.0,0.0,0.0,0.0,0.0,0.0,0.0,0.0,0.0,0.0,0.0,0.0,0.0,0.0,0.0,0.0,0.0,0.0,0.0,0.0,0.0,0.0,0.0,0.0,0.0,0.0,0.0,0.0,0.0,0.0,0.0,0.0,0.0,0.0,0.0,0.0,0.0,0.0,0.0,0.0,0.0,0.0,0.0,0.0,0.0,0.0,0.0,0.0,0.0,0.0,0.0,0.0,0.0,0.0,0.0,0.0,0.0,0.0,0.0,0.0,0.0,0.0,0.0,0.0,0.0,0.0,0.0,0.0,0.0,0.0,0.0,0.0,0.0,0.0,0.0,0.0,0.0,0.0,0.0,0.0,0.0,0.0,0.0,0.0,0.0,0.0,0.0,0.0,0.0,0.0,0.0,0.0,0.0,0.0,0.0,0.0,0.0,0.0,0.0,0.0,0.0,0.0,0.0,0.0,0.0,0.0,0.0,0.0,0.0,0.0,0.0,0.0,0.0,0.0,0.0,0.0,0.0,0.0,0.0,0.0,0.0,0.0,0.0,0.0,0.0,0.0,0.0,0.0,0.0,0.0,0.0,0.0,0.0,0.0,0.0,0.0,0.0,0.0,0.0,0.0,0.0,0.0,0.0,0.0,0.0,0.0,0.0,0.0,0.0,0.0,0.0,0.0,0.0,0.0,0.0,0.0,0.0,0.0,0.0,0.0,0.0,0.0,0.0,0.0,0.0,0.0,0.0,0.0,0.0,0.0,0.0,0.0,0.0,0.0,0.0,0.0,0.0,0.0,0.0,0.0,0.0,0.0,0.0,0.0,0.0,0.0,0.0,0.0,0.0,0.0,0.0,0.0,0.0,0.0,0.0,0.0,0.0,0.0,0.0,0.0,0.0,0.0,0.0,0.0,0.0,0.0,0.0,0.0,0.0,0.0,0.0,0.0,0.0,0.0,0.0,0.0,0.0,0.0,0.0,0.0,0.0,0.0,0.0,0.0,0.0,0.0,0.0,0.0,0.0,0.0,0.0,0.0,0.0,0.0,0.0,0.0,0.0,0.0,0.0,0.0,0.0,0.0,0.0,0.0,0.0,0.0,0.0,0.0,0.0,0.0,0.0,0.0,0.0,0.0,0.0,0.0,0.0,0.0,0.0,0.0,0.0,0.0,0.0,0.0,0.0,0.0,0.0,0.0,0.0,0.0,0.0,0.0,0.0,0.0,0.0,0.0,0.0,0.0,0.0,0.0,0.0,0.0,0.0,0.0,0.0,0.0,0.0,0.0,0.0,0.0,0.0,0.0,0.0,0.0,0.0,0.0,0.0,0.0,0.0,0.0,0.0,0.0,0.0,0.0,0.0,0.0,0.0,0.0,0.0,0.0,0.0,0.0,0.0,0.0,0.0,0.0,0.0,0.0,0.0,0.0,0.0,0.0,0.0,0.0,0.0,0.0,0.0,0.0,0.0,0.0,0.0,0.0,0.0,0.0,0.0,0.0,0.0,0.0,0.0,0.0,0.0,0.0,0.0,0.0,0.0,0.0,0.0,0.0,0.0,0.0,0.0,0.0,0.0,0.0,0.0,0.0,0.0,0.0,0.0,0.0,0.0,0.0,0.0,0.0,0.0,0.0,0.0,0.0,0.0,0.0,0.0,0.0,0.0,0.0,0.0,0.0,0.0,0.0,0.0,0.0,0.0,0.0,0.0,0.0,0.0,0.0,0.0,0.0,0.0,0.0,0.0,0.0,0.0,0.0,0.0,0.0,0.0,0.0,0.0,0.0,0.0,0.0,0.0,0.0,0.0,0.0,0.0,0.0,0.0,0.0,0.0,0.0,0.0,0.0,0.0,0.0,0.0,0.0,0.0,0.0,0.0,0.0,0.0,0.0,0.0,0.0,0.0,0.0,0.0,0.0,0.0,0.0,0.0,0.0,0.0,0.0,0.0,0.0,0.0,0.0,0.0,0.0,0.0,0.0,0.0,0.0,0.0,0.0,0.0,0.0,0.0,0.0,0.0,0.0,0.0,0.0,0.0,0.0,0.0,0.0,0.0,0.0,0.0,0.0,0.0,0.0,0.0,0.0,0.0,0.0,0.0,0.0,0.0,0.0,0.0,0.0,0.0,0.0,0.0,0.0,0.0,0.0,0.0,0.0,0.0,0.0,0.0,0.0,0.0,0.0,0.0,0.0,0.0,0.0,0.0,0.0,0.0,0.0,0.0,0.0,0.0,0.0,0.0,0.0,0.0,0.0,0.0,0.0,0.0,0.0,0.0,0.0,0.0,0.0,0.0,0.0,0.0,0.0,0.0,0.0,0.0,0.0,0.0,0.0,0.0,0.0,0.0,0.0,0.0,0.0,0.0,0.0,0.0,0.0,0.0,0.0,0.0,0.0,0.0,0.0,0.0,0.0,0.0,0.0,0.0,0.0,0.0,0.0,0.0,0.0,0.0,0.0,0.0,0.0,0.0,0.0,0.0,0.0,0.0,0.0,0.0,0.0,0.0,0.0,0.0,0.0,0.0,0.0,0.0,0.0,0.0,0.0,0.0,0.0,0.0,0.0,0.0,0.0,0.0,0.0,0.0,0.0,0.0,0.0,0.0,0.0,0.0,0.0,0.0,0.0,0.0,0.0,0.0,0.0,0.0,0.0,0.0,0.0,0.0,0.0,0.0,0.0,0.0,0.0,0.0,0.0,0.0,0.0,0.0,0.0,0.0,0.0,0.0,0.0,0.0,0.0,0.0,0.0,0.0,0.0,0.0,0.0,0.0,0.0,0.0,0.0,0.0,0.0,0.0,0.0,0.0,0.0,0.0,0.0,0.0,0.0,0.0,0.0,0.0,0.0,0.0,0.0,0.0,0.0,0.0,0.0,0.0,0.0,0.0,0.0,0.0,0.0,0.0,0.0,0.0,0.0,0.0,0.0,0.0,0.0,0.0,0.0,0.0,0.0,0.0,0.0,0.0,0.0,0.0,0.0,0.0,0.0,0.0,0.0,0.0,0.0,0.0,0.0,0.0,0.0,0.0,0.0,0.0,0.0,0.0,0.0,0.0,0.0,0.0,0.0,0.0,0.0,0.0,0.0,0.0,0.0,0.0,0.0,0.0,0.0,0.0,0.0,0.0,0.0,0.0,0.0,0.0,0.0,0.0,0.0,0.0,0.0,0.0,0.0,0.0,0.0,0.0,0.0,0.0,0.0,0.0,0.0,0.0,0.0,0.0,0.0,0.0,0.0,0.0,0.0,0.0,0.0,0.0,0.0,0.0,0.0,0.0,0.0,0.0,0.0,0.0,0.0,0.0,0.0,0.0,0.0,0.0,0.0,0.0,0.0,0.0,0.0,0.0,0.0,0.0,0.0,0.0,0.0,0.0,0.0,0.0,0.0,0.0,0.0,0.0,0.0,0.0,0.0,0.0,0.0,0.0,0.0,0.0,0.0,0.0,0.0,0.0,0.0,0.0,0.0,0.0,0.0,0.0,0.0,0.0,0.0,0.0,0.0,0.0,0.0,0.0,0.0,0.0,0.0,0.0,0.0,0.0,0.0,0.0,0.0,0.0,0.0,0.0,0.0,0.0,0.0,0.0,0.0,0.0,0.0,0.0,0.0,0.0,0.0,0.0,0.0,0.0,0.0,0.0,0.0,0.0,0.0,0.0,0.0,0.0,0.0,0.0,0.0,0.0,0.0,0.0,0.0,0.0,0.0,0.0,0.0,0.0,0.0,0.0,0.0,0.0,0.0,0.0,0.0,0.0,0.0,0.0,0.0,0.0,0.0,0.0,0.0,0.0,0.0,0.0,0.0,0.0,0.0,0.0,0.0,0.0,0.0,0.0,0.0,0.0,0.0,0.0,0.0,0.0,0.0,0.0,0.0,0.0,0.0,0.0,0.0,0.0,0.0,0.0,0.0,0.0,0.0,0.0,0.0,0.0,0.0,0.0,0.0,0.0,0.0,0.0,0.0,0.0,0.0,0.0,0.0,0.0,0.0,0.0,0.0,0.0,0.0,0.0,0.0,0.0,0.0,0.0,0.0,0.0,0.0,0.0,0.0,0.0,0.0,0.0,0.0,0.0,0.0,0.0,0.0,0.0,0.0,0.0,0.0,0.0,0.0,0.0,0.0,0.0,0.0,0.0,0.0,0.0,0.0,0.0,0.0,0.0,0.0,0.0,0.0,0.0,0.0,0.0,0.0,0.0,0.0,0.0,0.0,0.0,0.0,0.0,0.0,0.0,0.0,0.0,0.0,0.0,0.0,0.0,0.0,0.0,0.0,0.0,0.0,0.0,0.0,0.0,0.0,0.0,0.0,0.0,0.0,0.0,0.0,0.0,0.0,0.0,0.0,0.0,0.0,0.0,0.0,0.0,0.0,0.0,0.0,0.0,0.0,0.0,0.0,0.0,0.0,0.0,0.0,0.0,0.0,0.0,0.0,0.0,0.0,0.0,0.0,0.0,0.0,0.0,0.0,0.0,0.0,0.0,0.0,0.0,0.0,0.0,0.0,0.0,0.0,0.0,0.0,0.0,0.0576,0.0398,0.0,0.0,0.0,0.0,0.0,0.0,0.0,0.0,0.0,0.0,0.0,0.0,0.0,0.0,0.0,0.0,0.0,0.0,0.0,0.0,0.0,0.0,0.0,0.0,0.0,0.0,0.0,0.0,0.0,0.0,0.0,0.0,0.0,0.0,0.0,0.0,0.0,0.0,0.0,0.0,0.0,0.0,0.0,0.0,0.0,0.0,0.0,0.0,0.0,0.0,0.0,0.0,0.0,0.0,0.0,0.0,0.0,0.0,0.0,0.0,0.0,0.0,0.0,0.0,0.0,0.0,0.0,0.0,0.0,0.0,0.0,0.0,0.0,0.0,0.0,0.0,0.0,0.0,0.0,0.0,0.0,0.0,0.0,0.0,0.0,0.0,0.0,0.0,0.0,0.0,0.0,0.0,0.0,0.0,0.0,0.0,0.0,0.0,0.0,0.0,0.0,0.0,0.0,0.0,0.0,0.0,0.0,0.0,0.0,0.0,0.0,0.3687,0.2515,0.2316,0.0,0.0,0.0,0.0,0.0,0.0,0.0,0.0,0.0,0.0,0.0,0.0,0.0,0.0,0.0,0.0,0.0,0.0,0.0,0.0,0.0,0.0,0.0,0.0,0.0,0.0,0.0,0.0,0.0,0.0,0.0,0.0,0.0,0.0,0.0,0.0,0.0,0.0,0.0,0.0,0.0,0.0,0.0,0.0,0.0,0.0,0.0,0.0,0.0,0.0,0.0,0.0,0.0,0.0,0.0,0.0,0.0,0.0,0.0,0.0,0.0,0.0,0.0,0.0,0.0,0.0,0.0,0.0,0.0,0.0,0.0,0.0,0.0,0.0,0.0,0.0,0.0,0.0,0.0,0.0,0.0,0.0,0.0,0.0,0.0,0.0,0.0,0.0,0.0,0.0,0.0,0.0,0.0,0.0,0.0,0.0,0.0,0.0,0.0,0.0,0.0,0.0,0.0,0.0,0.0,0.0,0.0,0.0,0.0,0.0,0.0,0.0,0.4609,0.4106,0.3147,0.2284,0.0,0.0,0.0,0.0,0.0,0.0,0.0,0.0,0.0,0.0,0.0,0.0,0.0,0.0,0.0,0.0,0.0,0.0,0.0,0.0,0.0,0.0,0.0,0.0,0.0,0.0,0.0,0.0,0.0,0.0,0.0,0.0,0.0,0.0,0.0,0.0,0.0,0.0,0.0,0.0,0.0,0.0,0.0,0.0,0.0,0.0,0.0,0.0,0.0,0.0,0.0,0.0,0.0,0.0,0.0,0.0,0.0,0.0,0.0,0.0,0.0,0.0,0.0,0.0,0.0,0.0,0.0,0.0,0.0,0.0,0.0,0.0,0.0,0.0,0.0,0.0,0.0,0.0,0.0,0.0,0.0,0.0,0.0,0.0,0.0,0.0,0.0,0.0,0.0,0.0,0.0,0.0,0.0,0.0,0.0,0.0,0.0,0.0,0.0,0.0,0.0,0.0,0.0,0.0,0.0,0.0,0.0,0.0,0.0,0.0,0.6717,0.6028,0.5641,0.3708,0.2633,0.2573,0.0,0.0,0.0,0.0,0.0,0.0,0.0,0.0,0.0,0.0,0.0,0.0,0.0,0.0,0.0,0.0,0.0,0.0,0.0,0.0,0.0,0.0,0.0,0.0,0.0,0.0,0.0,0.0,0.0,0.0,0.0,0.0,0.0,0.0,0.0,0.0,0.0,0.0,0.0,0.0,0.0,0.0,0.0,0.0,0.0,0.0,0.0,0.0,0.0,0.0,0.0,0.0,0.0,0.0,0.0,0.0,0.0,0.0,0.0,0.0,0.0,0.0,0.0,0.0,0.0,0.0,0.0,0.0,0.0,0.0,0.0,0.0,0.0,0.0,0.0,0.0,0.0,0.0,0.0,0.0,0.0,0.0,0.0,0.0,0.0,0.0,0.0,0.0,0.0,0.0,0.0,0.0,0.0,0.0,0.0,0.0,0.0,0.0,0.0,0.0,0.0,0.0,0.0,0.0,0.0,0.0,0.0,0.0,0.963,0.943,0.8705,0.7321,0.4194,0.2421,0.0,0.0,0.0,0.0,0.0,0.0,0.0,0.0,0.0,0.0,0.0,0.0,0.0,0.0,0.0,0.0,0.0,0.0,0.0,0.0,0.0,0.0,0.0,0.0,0.0,0.0,0.0,0.0,0.0,0.0,0.0,0.0,0.0,0.0,0.0,0.0,0.0,0.0,0.0,0.0,0.0,0.0,0.0,0.0,0.0,0.0,0.0,0.0,0.0,0.0,0.0,0.0,0.0,0.0,0.0,0.0,0.0,0.0,0.0,0.0,0.0,0.0,0.0,0.0,0.0,0.0,0.0,0.0,0.0,0.0,0.0,0.0,0.0,0.0,0.0,0.0,0.0,0.0,0.0,0.0,0.0,0.0,0.0,0.0,0.0,0.0,0.0,0.0,0.0,0.0,0.0,0.0,0.0,0.0,0.0,0.0,0.0,0.0,0.0,0.0,0.0,0.0,0.0,0.0,0.0,0.0,0.0,0.0,0.0,0.9527,0.9768,0.9718,0.9264,0.5989,0.421,0.0,0.0,0.0,0.0,0.0,0.0,0.0,0.0,0.0,0.0,0.0,0.0,0.0,0.0,0.0,0.0,0.0,0.0,0.0,0.0,0.0,0.0,0.0,0.0,0.0,0.0,0.0,0.0,0.0,0.0,0.0,0.0,0.0,0.0,0.0,0.0,0.0,0.0,0.0,0.0,0.0,0.0,0.0,0.0,0.0,0.0,0.0,0.0,0.0,0.0,0.0,0.0,0.0,0.0,0.0,0.0,0.0,0.0,0.0,0.0,0.0,0.0,0.0,0.0,0.0,0.0,0.0,0.0,0.0,0.0,0.0,0.0,0.0,0.0,0.0,0.0,0.0,0.0,0.0,0.0,0.0,0.0,0.0,0.0,0.0,0.0,0.0,0.0,0.0,0.0,0.0,0.0,0.0,0.0,0.0,0.0,0.0,0.0,0.0,0.0,0.0,0.0,0.0,0.0,0.0,0.0,0.0,0.0,0.0,0.952,0.0,1.0273,1.0186,0.7326,0.5543,0.0,0.0,0.0,0.0,0.0,0.0,0.0,0.0,0.0,0.0,0.0,0.0,0.0,0.0,0.0,0.0,0.0,0.0,0.0,0.0,0.0,0.0,0.0,0.0,0.0,0.0,0.0,0.0,0.0,0.0,0.0,0.0,0.0,0.0,0.0,0.0,0.0,0.0,0.0,0.0,0.0,0.0,0.0,0.0,0.0,0.0,0.0,0.0,0.0,0.0,0.0,0.0,0.0,0.0,0.0,0.0,0.0,0.0,0.0,0.0,0.0,0.0,0.0,0.0,0.0,0.0,0.0,0.0,0.0,0.0,0.0,0.0,0.0,0.0,0.0,0.0,0.0,0.0,0.0,0.0,0.0,0.0,0.0,0.0,0.0,0.0,0.0,0.0,0.0,0.0,0.0,0.0,0.0,0.0,0.0,0.0,0.0,0.0,0.0,0.0,0.0,0.0,0.0,0.0,0.0,0.0,0.0,0.0,0.9181,0.9805,1.0388,1.0422,0.9805,0.8036,0.6284,0.0,0.0,0.0,0.0,0.0,0.0,0.0,0.0,0.0,0.0,0.0,0.0,0.0,0.0,0.0,0.0,0.0,0.0,0.0,0.0,0.0,0.0,0.0,0.0,0.0,0.0,0.0,0.0,0.0,0.0,0.0,0.0,0.0,0.0,0.0,0.0,0.0,0.0,0.0,0.0,0.0,0.0,0.0,0.0,0.0,0.0,0.0,0.0,0.0,0.0,0.0,0.0,0.0,0.0,0.0,0.0,0.0,0.0,0.0,0.0,0.0,0.0,0.0,0.0,0.0,0.0,0.0,0.0,0.0,0.0,0.0,0.0,0.0,0.0,0.0,0.0,0.0,0.0,0.0,0.0,0.0,0.0,0.0,0.0,0.0,0.0,0.0,0.0,0.0,0.0,0.0,0.0,0.0,0.0,0.0,0.0,0.0,0.0,0.0,0.0,0.0,0.0,0.0,0.0,0.0,0.0,0.0,0.0,0.0,0.9686,1.0161,1.0426,1.0354,0.8424,0.71,0.0,0.0,0.0,0.0,0.0,0.0,0.0,0.0,0.0,0.0,0.0,0.0,0.0,0.0,0.0,0.0,0.0,0.0,0.0,0.0,0.0,0.0,0.0,0.0,0.0,0.0,0.0,0.0,0.0,0.0,0.0,0.0,0.0,0.0,0.0,0.0,0.0,0.0,0.0,0.0,0.0,0.0,0.0,0.0,0.0,0.0,0.0,0.0,0.0,0.0,0.0,0.0,0.0,0.0,0.0,0.0,0.0,0.0,0.0,0.0,0.0,0.0,0.0,0.0,0.0,0.0,0.0,0.0,0.0,0.0,0.0,0.0,0.0,0.0,0.0,0.0,0.0,0.0,0.0,0.0,0.0,0.0,0.0,0.0,0.0,0.0,0.0,0.0,0.0,0.0,0.0,0.0,0.0,0.0,0.0,0.0,0.0,0.0,0.0,0.0,0.0,0.0,0.0,0.0,0.0,0.0,0.0,0.0,0.0,1.0039,1.0409,1.0616,1.0633,0.9118,0.7961,0.7304,0.0,0.0,0.0,0.0,0.0,0.0,0.0,0.0,0.0,0.0,0.0,0.0,0.0,0.0,0.0,0.0,0.0,0.0,0.0,0.0,0.0,0.0,0.0,0.0,0.0,0.0,0.0,0.0,0.0,0.0,0.0,0.0,0.0,0.0,0.0,0.0,0.0,0.0,0.0,0.0,0.0,0.0,0.0,0.0,0.0,0.0,0.0,0.0,0.0,0.0,0.0,0.0,0.0,0.0,0.0,0.0,0.0,0.0,0.0,0.0,0.0,0.0,0.0,0.0,0.0,0.0,0.0,0.0,0.0,0.0,0.0,0.0,0.0,0.0,0.0,0.0,0.0,0.0,0.0,0.0,0.0,0.0,0.0,0.0,0.0,0.0,0.0,0.0,0.0,0.0,0.0,0.0,0.0,0.0,0.0,0.0,0.0,0.0,0.0,0.0,0.0,0.0,0.0,0.0,0.0,0.0,0.0,0.0,1.0714,1.1019,1.0975,1.0578,1.01,0.8975,0.0,0.0,0.0,0.0,0.0,0.0,0.0,0.0,0.0,0.0,0.0,0.0,0.0,0.0,0.0,0.0,0.0,0.0,0.0,0.0,0.0,0.0,0.0,0.0,0.0,0.0,0.0,0.0,0.0,0.0,0.0,0.0,0.0,0.0,0.0,0.0,0.0,0.0,0.0,0.0,0.0,0.0,0.0,0.0,0.0,0.0,0.0,0.0,0.0,0.0,0.0,0.0,0.0,0.0,0.0,0.0,0.0,0.0,0.0,0.0,0.0,0.0,0.0,0.0,0.0,0.0,0.0,0.0,0.0,0.0,0.0,0.0,0.0,0.0,0.0,0.0,0.0,0.0,0.0,0.0,0.0,0.0,0.0,0.0,0.0,0.0,0.0,0.0,0.0,0.0,0.0,0.0,0.0,0.0,0.0,0.0,0.0,0.0,0.0,0.0,0.0,0.0,0.0,0.0,0.0,0.0,0.0,0.0,0.0,1.0717,1.1118,1.1328,1.1304,1.0571,0.9846,0.0,0.0,0.0,0.0,0.0,0.0,0.0,0.0,0.0,0.0,0.0,0.0,0.0,0.0,0.0,0.0,0.0,0.0,0.0,0.0,0.0,0.0,0.0,0.0,0.0,0.0,0.0,0.0,0.0,0.0,0.0,0.0,0.0,0.0,0.0,0.0,0.0,0.0,0.0,0.0,0.0,0.0,0.0,0.0,0.0,0.0,0.0,0.0,0.0,0.0,0.0,0.0,0.0,0.0,0.0,0.0,0.0,0.0,0.0,0.0,0.0,0.0,0.0,0.0,0.0,0.0,0.0,0.0,0.0,0.0,0.0,0.0,0.0,0.0,0.0,0.0,0.0,0.0,0.0,0.0,0.0,0.0,0.0,0.0,0.0,0.0,0.0,0.0,0.0,0.0,0.0,0.0,0.0,0.0,0.0,0.0,0.0,0.0,0.0,0.0,0.0,0.0,0.0,0.0,0.0,0.0,0.0,0.0,1.0578,1.0995,1.1379,1.1619,1.1704,1.0965,1.0368,0.0,0.0,0.0,0.0,0.0,0.0,0.0,0.0,0.0,0.0,0.0,0.0,0.0,0.0,0.0,0.0,0.0,0.0,0.0,0.0,0.0,0.0,0.0,0.0,0.0,0.0,0.0,0.0,0.0,0.0,0.0,0.0,0.0,0.0,0.0,0.0,0.0,0.0,0.0,0.0,0.0,0.0,0.0,0.0,0.0,0.0,0.0,0.0,0.0,0.0,0.0,0.0,0.0,0.0,0.0,0.0,0.0,0.0,0.0,0.0,0.0,0.0,0.0,0.0,0.0,0.0,0.0,0.0,0.0,0.0,0.0,0.0,0.0,0.0,0.0,0.0,0.0,0.0,0.0,0.0,0.0,0.0,0.0,0.0,0.0,0.0,0.0,0.0,0.0,0.0,0.0,0.0,0.0,0.0,0.0,0.0,0.0,0.0,0.0,0.0,0.0,0.0,0.0,0.0,0.0,0.0,0.0,0.0,1.0792,1.1355,1.1657,1.1809,1.1792,1.1246,1.0543,0.0,0.0,0.0,0.0,0.0,0.0,0.0,0.0,0.0,0.0,0.0,0.0,0.0,0.0,0.0,0.0,0.0,0.0,0.0,0.0,0.0,0.0,0.0,0.0,0.0,0.0,0.0,0.0,0.0,0.0,0.0,0.0,0.0,0.0,0.0,0.0,0.0,0.0,0.0,0.0,0.0,0.0,0.0,0.0,0.0,0.0,0.0,0.0,0.0,0.0,0.0,0.0,0.0,0.0,0.0,0.0,0.0,0.0,0.0,0.0,0.0,0.0,0.0,0.0,0.0,0.0,0.0,0.0,0.0,0.0,0.0,0.0,0.0,0.0,0.0,0.0,0.0,0.0,0.0,0.0,0.0,0.0,0.0,0.0,0.0,0.0,0.0,0.0,0.0,0.0,0.0,0.0,0.0,0.0,0.0,0.0,0.0,0.0,0.0,0.0,0.0,0.0,0.0,0.0,0.0,0.0,0.0,0.0,1.0846,1.1202,1.1508,1.1664,1.1664,1.113,1.0707,0.0,0.0,0.0,0.0,0.0,0.0,0.0,0.0,0.0,0.0,0.0,0.0,0.0,0.0,0.0,0.0,0.0,0.0,0.0,0.0,0.0,0.0,0.0,0.0,0.0,0.0,0.0,0.0,0.0,0.0,0.0,0.0,0.0,0.0,0.0,0.0,0.0,0.0,0.0,0.0,0.0,0.0,0.0,0.0,0.0,0.0,0.0,0.0,0.4404,0.0,0.0,0.0,0.0,0.0,0.0,0.0,0.0,0.0,0.0,0.0,0.0,0.0,0.0,0.0,0.0,0.0,0.0,0.0,0.0,0.0,0.0,0.0,0.0,0.0,0.0,0.0,0.0,0.0,0.0,0.0,0.0,0.0,0.0,0.0,0.0,0.0,0.0,0.0,0.0,0.0,0.0,0.0,0.0,0.0,0.0,0.0,0.0,0.0,0.0,0.0,0.0,0.0,0.0,0.0,0.0,0.0,0.0,0.0,1.0972,1.1263,1.1501,1.1616,1.1603,1.125,1.0806,0.0,0.0,0.0,0.0,0.0,0.0,0.0,0.0,0.0,0.0,0.0,0.0,0.0,0.0,0.0,0.0,0.0,0.0,0.0,0.0,0.0,0.0,0.0,0.0,0.0,0.0,0.0,0.0,0.0,0.0,0.0,0.0,0.0,0.0,0.0,0.0,0.0,0.0,0.0,0.0,0.0,0.0,0.0,0.0,0.0,0.0,0.0,0.0,0.0,0.0,0.0,0.0,0.0,0.0,0.0,0.0,0.0,0.0,0.0,0.0,0.0,0.0,0.0,0.0,0.0,0.0,0.0,0.0,0.0,0.0,0.0,0.0,0.0,0.0,0.0,0.0,0.0,0.0,0.0,0.0,0.0,0.0,0.0,0.0,0.0,0.0,0.0,0.0,0.0,0.0,0.0,0.0,0.0,0.0,0.0,0.0,0.0,0.0,0.0,0.0,0.0,0.0,0.0,0.0,0.0,0.0,0.0,1.0557,1.1046,1.1379,1.1538,1.1609,1.1579,1.1307,1.0941,1.027,0.0,0.0,0.0,0.0,0.0,0.0,0.0,0.0,0.0,0.0,0.0,0.0,0.0,0.0,0.0,0.0,0.0,0.0,0.0,0.0,0.0,0.0,0.0,0.0,0.0,0.0,0.0,0.0,0.0,0.0,0.0,0.0,0.0,0.0,0.0,0.0,0.0,0.0,0.9286,0.95,0.0,0.0,0.0,0.0,0.0,0.0,0.0,0.0,0.7288,0.0,0.0,0.0,0.0,0.0,0.0,0.0,0.0,0.0,0.0,0.0,0.0,0.0,0.0,0.0,0.0,0.0,0.0,0.0,0.0,0.0,0.0,0.0,0.0,0.0,0.0,0.0,0.0,0.0,0.0,0.0,0.0,0.0,0.0,0.0,0.0,0.0,0.0,0.0,0.0,0.0,0.0,0.0,0.0,0.0,0.0,0.0,0.0,0.0,0.0,0.0,0.0,0.0,0.0,0.0,0.0,1.0409,1.0517,1.0836,1.1379,1.1541,1.1558,1.1433,1.1257,1.0826,1.0068,0.0,0.0,0.0,0.0,0.0,0.0,0.0,0.0,0.0,0.0,0.0,0.0,0.0,0.0,0.0,0.0,0.0,0.0,0.0,0.0,0.0,0.0,0.0,0.0,0.0,0.0,0.0,0.0,0.0,0.0,0.0,0.0,0.0,0.0,0.0,0.0,0.0,0.0,0.0,0.9863,1.0032,0.0,0.0,0.0,0.0,0.0,0.0,0.0,0.0,0.8417,0.0,0.0,0.0,0.0,0.0,0.0,0.0,0.0,0.0,0.0,0.0,0.0,0.0,0.0,0.0,0.0,0.0,0.0,0.0,0.0,0.0,0.0,0.0,0.0,0.0,0.0,0.0,0.0,0.0,0.0,0.0,0.0,0.0,0.0,0.0,0.0,0.0,0.0,0.0,0.0,0.0,0.0,0.0,0.0,0.0,0.0,0.0,0.0,0.0,0.0,0.0,0.0,0.0,0.0,0.0,1.0249,1.0568,1.0907,1.126,1.1345,1.1348,1.127,1.0975,1.0575,0.0,0.0,0.0,0.0,0.0,0.0,0.0,0.0,0.0,0.0,0.0,0.0,0.0,0.0,0.0,0.0,0.0,0.0,0.0,0.0,0.0,0.0,0.0,0.0,0.0,0.0,0.0,0.0,0.0,0.0,0.0,0.0,0.0,0.0,0.0,0.0,0.0,0.0,0.0,0.0,0.9886,0.9988,1.0141,0.0,0.0,0.0,0.0,0.0,0.0,0.9262,0.903,0.0,0.0,0.0,0.0,0.0,0.0,0.0,0.0,0.0,0.0,0.0,0.0,0.0,0.0,0.0,0.0,0.0,0.0,0.0,0.0,0.0,0.0,0.0,0.0,0.0,0.0,0.0,0.0,0.0,0.0,0.0,0.0,0.0,0.0,0.0,0.0,0.0,0.0,0.0,0.0,0.0,0.0,0.0,0.0,0.0,0.0,0.0,0.0,0.0,0.0,0.0,0.0,0.0,0.0,0.0,0.995,1.0472,1.0914,1.1111,1.1148,1.1151,1.1114,1.0741,1.0358,0.0,0.0,0.0,0.0,0.0,0.0,0.0,0.0,0.0,0.0,0.0,0.0,0.0,0.0,0.0,0.0,0.0,0.0,0.0,0.0,0.0,0.0,0.0,0.0,0.0,0.0,0.0,0.0,0.0,0.0,0.0,0.0,0.0,0.0,0.0,0.0,0.0,0.0,0.0,0.0,0.0,0.9981,0.9974,0.9761,0.0,0.0,0.0,0.0,0.9299,0.9303,0.0,0.0,0.0,0.0,0.0,0.0,0.0,0.0,0.0,0.0,0.0,0.0,0.0,0.0,0.0,0.0,0.0,0.0,0.0,0.0,0.0,0.0,0.0,0.0,0.0,0.0,0.0,0.0,0.0,0.0,0.0,0.0,0.0,0.0,0.0,0.0,0.0,0.0,0.0,0.0,0.0,0.0,0.0,0.0,0.0,0.0,0.0,0.0,0.0,0.0,0.0,0.0,0.0,0.0,0.0,0.0,0.9836,1.0181,1.0558,1.0955,1.1097,1.1101,1.0907,1.0792,1.0368,0.0,0.0,0.0,0.0,0.0,0.0,0.0,0.0,0.0,0.0,0.0,0.0,0.0,0.0,0.0,0.0,0.0,0.0,0.0,0.0,0.0,0.0,0.0,0.0,0.0,0.0,0.0,0.0,0.0,0.0,0.0,0.0,0.0,0.0,0.0,0.0,0.0,0.0,0.0,0.0,0.0,1.0324,1.0021,0.9907,0.9781,0.0,0.0,0.9401,0.9537,0.9554,0.0,0.0,0.0,0.0,0.0,0.0,0.0,0.0,0.0,0.0,0.0,0.0,0.0,0.0,0.0,0.0,0.0,0.0,0.0,0.0,0.0,0.0,0.0,0.0,0.0,0.0,0.0,0.0,0.0,0.0,0.0,0.0,0.0,0.0,0.0,0.0,0.0,0.0,0.0,0.0,0.0,0.0,0.0,0.0,0.0,0.0,0.0,0.0,0.0,0.0,0.0,0.0,0.0,0.0,0.0,0.9357,0.9703,1.0161,1.0534,1.0806,1.088,1.0839,1.0694,1.0463,1.007,0.0,0.0,0.0,0.0,0.0,0.0,0.0,0.0,0.0,0.0,0.0,0.0,0.0,0.0,0.0,0.0,0.0,0.0,0.0,0.0,0.0,0.0,0.0,0.0,0.0,0.0,0.0,0.0,0.0,0.0,0.0,0.0,0.0,0.0,0.0,0.0,0.0,0.0,0.0,0.0,0.0,0.0,1.0185,1.0049,0.0,0.0,0.0,0.9503,0.9483,0.0,0.0,0.0,0.0,0.0,0.0,0.0,0.0,0.0,0.0,0.0,0.0,0.0,0.0,0.0,0.0,0.0,0.0,0.0,0.0,0.0,0.0,0.0,0.0,0.0,0.0,0.0,0.0,0.0,0.0,0.0,0.0,0.0,0.0,0.0,0.0,0.0,0.0,0.0,0.0,0.0,0.0,0.0,0.0,0.0,0.0,0.0,0.0,0.0,0.0,0.0,0.0,0.0,0.0,0.0,0.0,0.0,0.9612,1.0158,1.0531,1.0711,1.0721,1.0649,1.0493,1.0239,0.0,0.0,0.0,0.0,0.0,0.0,0.0,0.0,0.0,0.0,0.0,0.0,0.0,0.0,0.0,0.0,0.0,0.0,0.0,0.0,0.0,0.0,0.0,0.0,0.0,0.0,0.0,0.8209,0.0,0.0,0.0,0.0,0.0,0.0,0.0,0.0,0.0,0.0,0.0,0.0,0.0,0.0,1.1255,1.1446,1.1359,1.1302,0.0,0.0,1.0808,1.072,1.0361,1.0044,0.0,0.0,0.0,0.0,0.0,0.0,0.0,0.0,0.0,0.0,0.0,0.0,0.0,0.0,0.0,0.0,0.0,0.0,0.0,0.0,0.0,0.0,0.0,0.0,0.0,0.0,0.0,0.0,0.0,0.0,0.0,0.0,0.0,0.0,0.0,0.0,0.0,0.0,0.0,0.0,0.0,0.0,0.0,0.0,0.0,0.0,0.0,0.0,0.0,0.0,0.0,0.0,0.0,0.0,0.9181,0.9608,1.0059,1.0429,1.0704,1.0721,1.0646,1.0497,1.0341,0.9917,0.0,0.0,0.0,0.0,0.0,0.0,0.0,0.0,0.0,0.0,0.0,0.0,0.0,0.0,0.0,0.0,0.0,0.0,0.0,0.0,0.0,0.0,0.0,0.0,0.0,0.0,0.0,0.0,0.0,0.0,0.0,0.0,0.0,0.0,0.0,0.0,0.0,0.0,0.0,0.0,0.0,1.4497,1.4643,1.4694,1.4688,0.0,1.4431,1.4098,1.4232,1.2952,1.1879,1.1412,0.0,0.0,0.0,0.0,0.0,0.0,0.0,0.0,0.0,0.0,0.0,0.0,0.0,0.0,0.0,0.0,0.0,0.0,0.0,0.0,0.0,0.0,0.0,0.0,0.0,0.0,0.0,0.0,0.0,0.0,0.0,0.0,0.0,0.0,0.0,0.0,0.0,0.0,0.0,0.0,0.0,0.0,0.0,0.0,0.0,0.0,0.0,0.0,0.0,0.0,0.0,0.0,0.0,0.9069,0.933,0.9863,1.0239,1.0439,1.0449,1.0378,1.0222,1.0076,0.9693,0.0,0.0,0.0,0.0,0.0,0.0,0.0,0.0,0.0,0.0,0.0,0.0,0.0,0.0,0.0,0.0,0.0,0.0,0.0,0.0,0.0,0.0,0.0,0.0,0.0,0.0,0.0,0.0,1.1662,1.1904,1.1394,0.0,0.0,0.0,0.0,0.0,0.0,0.0,0.0,0.0,0.0,1.455,1.4816,1.4862,0.0,0.0,1.472,1.4562,1.4589,1.3839,1.2894,1.1872,1.0867,0.0,0.0,0.0,0.0,0.0,0.0,0.0,0.0,0.0,0.0,0.0,0.0,0.0,0.0,0.0,0.0,0.0,0.0,0.0,0.0,0.0,0.0,0.0,0.0,0.0,0.0,0.0,0.0,0.0,0.0,0.0,0.0,0.0,0.0,0.0,0.0,0.0,0.0,0.0,0.0,0.0,0.0,0.0,0.0,0.0,0.0,0.0,0.0,0.0,0.0,0.0,0.0,0.9008,0.9214,0.9744,1.0124,1.028,1.0343,1.0209,0.9994,0.9883,0.9783,0.0,0.0,0.0,0.0,0.0,0.0,0.0,0.0,0.0,0.0,0.0,0.0,0.0,0.0,0.0,0.0,0.0,0.0,0.0,0.0,0.0,0.0,0.0,0.0,0.0,0.0,0.0,0.0,1.2765,1.2969,1.3259,0.0,0.0,0.0,0.0,0.0,0.0,0.0,0.0,0.0,0.0,1.5909,1.626,1.6255,1.626,1.6315,1.6055,1.5856,1.592,1.5218,1.4323,1.3183,0.0,0.0,0.0,0.0,0.0,0.0,0.0,0.0,0.0,0.0,0.0,0.0,0.0,0.0,0.0,0.0,0.0,0.0,0.0,0.0,0.0,0.0,0.0,0.0,0.0,0.0,0.0,0.894,0.0,0.0,0.8937,0.0,0.0,0.0,0.0,0.0,0.0,0.0,0.0,0.0,0.0,0.0,0.0,0.0,0.0,0.0,0.0,0.0,0.0,0.0,0.0,0.0,0.0,0.9005,0.921,0.9734,1.0117,1.033,1.034,1.0262,1.0111,1.0039,1.0406,1.1199,0.0,0.0,0.0,0.0,0.0,0.0,0.0,0.0,0.0,0.0,0.0,0.0,0.0,0.0,0.0,0.0,0.0,0.0,0.0,0.0,0.0,0.0,0.0,0.0,0.0,0.0,1.2644,1.3312,1.4388,0.0,0.0,0.0,0.0,0.0,0.0,0.0,0.0,0.0,1.7747,1.8692,1.9394,1.9569,1.9674,1.9536,1.9608,1.9132,1.8768,1.8717,1.7457,1.6341,0.0,0.0,0.0,0.0,0.0,0.0,0.0,0.0,0.0,0.0,0.0,0.0,0.0,0.0,0.0,0.0,0.0,0.0,0.0,0.0,0.0,0.0,0.0,0.0,0.0,0.0,0.0,0.9327,0.9235,0.0,0.0,0.0,0.0,0.0,0.0,0.0,0.0,0.0,0.0,0.0,0.9067,0.9106,0.0,0.0,0.0,0.0,0.0,0.0,0.0,0.0,0.0,0.0,0.0,0.0,0.8862,0.9025,0.9503,1.0368,1.149,1.1555,1.2012,1.3031,1.2772,1.2493,1.2274,0.0,0.0,0.0,0.0,0.0,0.0,0.0,0.0,0.0,0.0,0.0,0.0,0.0,0.0,0.0,0.0,0.0,0.0,0.0,0.0,0.0,0.0,0.0,0.0,0.0,1.4604,0.0,0.0,0.0,0.0,0.0,0.0,0.0,0.0,0.0,0.0,1.7128,1.7589,1.7935,1.8644,1.9185,1.9472,1.9512,1.9512,0.0,0.0,0.0,0.0,0.0,0.0,0.0,0.0,0.0,0.0,0.0,0.0,0.0,0.0,1.3472,1.2297,1.162,1.1175,1.1175,0.0,0.0,0.0,0.0,0.0,0.0,0.0,0.0,0.0,0.0,0.0,0.0,0.0,0.0,1.0458,1.0402,0.9772,0.0,0.0,0.0,0.0,0.0,0.0,0.0,0.0,1.0044,1.0029,0.9374,0.9412,0.933,0.0,0.8991,0.9056,0.0,0.0,0.0,0.0,0.0,0.0,0.0,0.0,0.9613,0.9843,1.0721,1.1761,1.2816,1.2885,1.3322,1.4244,1.4463,1.4275,1.3644,1.3398,1.3128,0.0,0.0,0.0,0.0,0.0,0.0,0.0,0.0,0.0,0.0,0.0,0.0,0.0,0.0,0.0,0.0,0.0,0.0,0.0,0.0,0.0,0.0,0.0,1.5557,0.0,0.0,0.0,0.0,0.0,0.0,0.0,0.0,0.0,1.6981,1.7435,1.7896,1.8242,1.8771,1.9152,1.9339,0.0,0.0,0.0,0.0,0.0,0.0,0.0,1.8223,1.7104,1.6839,1.6387,1.5258,1.5832,1.6431,1.6205,0.0,0.0,1.3989,1.3236,1.2874,1.2869,1.3351,1.3701,1.3521,1.3958,1.4202,0.0,0.0,0.0,0.0,0.0,0.0,0.0,0.0,1.3141,1.2379,0.0,1.0692,0.0,0.0,0.0,0.0,0.9511,1.1122,0.0,0.0,1.1523,1.1347,0.9853,0.9849,0.9714,0.9572,0.9613,1.019,1.1181,1.1023,0.0,0.0,0.0,0.0,0.0,0.0,1.1166,1.1595,1.3208,1.4177,1.4192,1.424,1.4139,1.3973,1.511,1.5639,1.5328,1.5269,1.4904,1.4208,1.3708,0.0,0.0,0.0,0.0,0.0,0.0,0.0,0.0,0.0,0.0,0.0,0.0,0.0,0.0,0.0,0.0,0.0,0.0,0.0,0.0,1.6693,0.0,0.0,0.0,0.0,0.0,0.0,0.0,0.0,0.0,1.7582,1.7602,1.7883,1.8222,1.8818,0.0,0.0,0.0,0.0,1.9424,1.9424,1.9125,1.8888,1.8895,1.8875,1.8668,1.8109,0.0,0.0,1.7702,1.7602,1.7556,1.7589,1.7529,1.7147,1.5725,1.4292,1.3309,1.3299,1.4374,1.5138,1.5065,1.5991,1.6907,1.6668,0.0,0.0,0.0,0.0,1.4602,1.4943,1.5503,1.4945,1.4661,1.4563,1.3807,0.0,0.0,0.0,0.0,0.0,0.0,1.3308,1.3047,1.3571,1.3525,1.3209,1.315,1.3118,1.3117,1.3028,1.313,1.346,1.4291,1.3486,1.1295,0.0,0.0,0.0,0.0,1.2612,1.3075,1.3501,1.4395,1.5816,1.5647,1.5956,1.6777,1.714,1.7184,1.6948,1.6723,1.651,1.6307,1.4753,0.0,0.0,0.0,0.0,0.0,0.0,0.0,0.0,0.0,0.0,0.0,0.0,0.0,0.0,0.0,0.0,0.0,0.0,0.0,1.6086,1.6453,1.6627,0.0,0.0,0.0,0.0,0.0,0.0,0.0,0.0,0.0,1.8176,1.8484,1.8657,0.0,0.0,1.9292,1.9078,1.9232,1.9424,1.9424,1.9357,0.0,1.9245,1.9065,1.8798,1.8424,1.8263,1.8055,1.7889,1.7862,1.7842,1.7629,1.7589,1.7417,1.7087,1.6654,1.6268,1.6321,1.6649,1.6905,1.6827,1.7193,1.742,1.9832,1.8294,1.6424,1.6013,1.658,1.6642,1.7092,1.7817,1.7078,1.6691,1.6648,1.566,1.5059,1.4739,1.4328,0.0,0.0,0.0,1.4866,1.4514,1.5157,1.512,1.4599,1.4604,1.4604,1.4589,1.4488,1.4666,1.5239,1.5873,1.5599,1.4453,0.0,1.349,1.2705,1.3475,1.4109,1.4565,1.5043,1.5859,1.7067,1.6815,1.7034,1.7816,1.7862,1.7776,1.7589,1.7415,1.732,1.7199,1.5868,1.5335,0.0,0.0,0.0,0.0,0.0,0.0,0.0,0.0,0.0,0.0,0.0,1.5712,1.5424,0.0,0.0,0.0,1.5939,1.6219,1.6339,1.6673,0.0,0.0,0.0,0.0,0.0,0.0,0.0,1.74,1.7622,1.7949,1.843,1.8744,1.8905,1.8844,1.9145,1.9305,1.9125,0.0,1.9424,1.9424,1.9424,1.9424,1.9424,1.9118,1.8791,1.8377,1.8063,1.7869,1.7809,1.7862,1.7789,1.7642,1.7589,1.7589,1.7589,1.7589,1.7589,1.7589,1.7589,1.7589,1.7589,1.7589,1.7554,2.2445,2.2044,1.8119,1.7271,1.856,1.856,1.9525,2.0949,1.9274,1.8605,1.8547,1.6885,1.5846,1.5408,1.4829,0.0,1.4929,1.631,1.6332,1.5067,1.6537,1.6467,1.5046,1.5025,1.496,1.4955,1.4855,1.5451,1.6649,1.6339,1.6675,1.7602,1.6443,1.4993,1.3462,1.4694,1.5641,1.6072,1.7293,1.7955,1.7955,1.7729,1.7589,1.7589,1.7589,1.7589,1.7589,1.7582,1.7514,1.7246,1.6907,1.6486,1.5878,0.0,0.0,0.0,0.0,0.0,0.0,0.0,0.0,0.0,0.0,0.0,0.0,0.0,0.0,0.0,1.638,0.0,1.7146,1.7186,0.0,0.0,0.0,1.6734,1.6807,1.7034,1.7246,1.7266,0.0,0.0,1.8457,1.8738,1.9032,1.9383,1.9424,1.9417,1.9339,1.9397,1.9424,1.9424,1.9403,1.9332,1.935,1.9025,1.8637,1.8102,1.7789,1.7615,1.7655,1.7602,1.7589,1.7589,1.7589,1.7589,1.7589,1.7589,1.7589,1.7589,1.7589,1.7589,1.7582,1.7608,1.7501,2.2625,2.2331,2.1295,2.0875,2.0811,2.0811,2.0924,2.1039,2.0644,2.0454,2.0436,1.9776,1.9334,1.8939,1.8804,1.8753,1.8816,1.9176,1.9215,1.8898,1.906,1.8904,1.8595,1.8328,1.8227,1.8286,1.8222,1.8365,1.8706,1.8361,1.8217,1.8215,1.7718,1.7019,1.6271,1.6781,1.7178,1.7475,1.7649,1.7695,1.7695,1.7622,1.7589,1.7589,1.7589,1.7589,1.7589,1.7589,1.7601,1.7527,1.7253,1.6874,1.6506,1.5732,0.0,0.0,0.0,0.0,0.0,0.0,0.0,0.0,0.0,1.5611,1.5156,0.0,1.5825,0.0,1.6567,1.7032,1.6834,1.7072,0.0,0.0,1.6881,1.6981,1.7596,1.7582,1.7575,1.7756,1.8163,1.8417,1.8484,1.8744,1.9032,1.9377,1.9424,1.9343,1.9078,1.9232,1.9424,1.9403,1.9178,1.9032,1.8991,1.8584,1.8162,1.8015,1.7789,1.7589,1.7589,1.7589,1.7589,1.7589,1.7589,1.7589,1.7589,1.7589,1.7589,1.7589,1.7589,1.7589,1.7582,1.746,1.7286,2.2766,2.2612,2.2612,2.2358,2.1924,2.1728,2.1527,2.1296,2.1169,2.1102,2.1089,2.0808,2.0588,2.0428,2.0233,2.0173,2.0173,2.0173,2.0173,2.0153,1.9933,1.9806,1.9786,1.9506,1.9424,1.9424,1.9424,1.9424,1.9403,1.8938,1.8651,1.8484,1.8056,1.7675,1.7414,1.7502,1.7669,1.7782,1.7669,1.7589,1.7589,1.7589,1.7589,1.7589,1.7589,1.7522,1.7402,1.744,1.7328,1.7194,1.7041,1.6864,1.652,1.5925,1.5458,0.0,0.0,0.0,0.0,0.0,0.0,0.0,0.0,0.0,0.0,0.0,1.6079,1.6213,1.6787,1.7132,1.6921,1.7219,1.7393,1.7393,1.7194,1.7295,1.7789,1.7809,1.7856,1.7975,1.8135,1.8397,1.8644,1.8711,1.8891,1.9305,1.9424,1.937,1.9172,1.9272,1.9383,1.9185,1.9032,1.8818,1.8528,1.8209,1.7949,1.7862,1.7695,1.7589,1.7589,1.7589,1.7589,1.7589,1.7589,1.7589,1.7589,1.7589,1.7589,1.7589,1.7589,1.7535,1.7467,1.7313,1.7152,2.2866,2.2866,2.2866,2.2712,2.2432,2.1857,2.1655,2.1594,2.1243,2.1102,2.1096,2.0842,2.0735,2.0715,2.0461,2.0286,2.0341,2.028,2.0321,2.0274,1.9993,1.9833,1.9793,1.9564,1.9424,1.9424,1.9424,1.9424,1.9403,1.8771,1.8497,1.8464,1.7883,1.7589,1.7589,1.7589,1.7589,1.7589,1.7589,1.7589,1.7589,1.7589,1.7589,1.7582,1.7549,1.746,1.7213,1.7159,1.6974,1.6727,1.6707,1.6587,1.6333,1.6012,1.5718,0.0,1.5189,0.0,0.0,0.0,0.0,0.0,0.0,0.0,0.0,1.6067,1.6486,1.674,1.7085,1.7259,1.7259,1.7487,1.7589,1.7589,1.7589,1.7595,1.7642,1.7916,1.8049,1.8049,1.8082,1.8315,1.8768,1.8698,1.8764,1.9316,1.9424,1.9417,1.9417,1.9417,1.9272,1.8971,1.8801,1.8571,1.8075,1.7942,1.7829,1.7649,1.7595,1.7589,1.7589,1.7589,1.7589,1.7589,1.7589,1.7589,1.7589,1.7589,1.7589,1.7589,1.7542,1.7487,1.728,1.7159,1.6965,2.2866,2.2866,2.2866,2.2901,2.2732,2.2151,2.177,2.1601,2.1243,2.1102,2.1102,2.1049,2.1029,2.1022,2.0969,2.0949,2.0942,2.0942,2.0815,2.0581,2.0287,2.0027,1.9793,1.9506,1.9424,1.9424,1.9424,1.9424,1.941,1.8778,1.8497,1.8477,1.7883,1.7589,1.7589,0.0,0.0,0.0,1.7589,1.7589,1.7589,1.7589,1.7589,1.7582,1.7414,0.0,1.7199,1.6914,1.6767,1.6714,1.6707,0.0,0.0,0.0,0.0,0.0,0.0,0.0,0.0,0.0,0.0,0.0,1.5431,1.5498,1.5745,1.6506,1.7058,1.7119,1.7387,1.7502,1.7548,1.7542,1.7589,1.7589,1.7589,1.7682,1.7876,1.8217,1.8404,1.841,1.8611,1.8791,1.8898,1.8871,1.8971,1.9363,1.9424,1.9424,1.9424,1.9417,1.9252,1.8965,1.8475,1.8103,1.7722,1.7682,1.7682,1.7589,1.7589,1.7589,1.7589,1.7589,1.7589,1.7589,1.7589,1.7582,1.7575,1.7589,1.7562,1.7582,1.744,1.7266,1.7206,1.7005,1.6687,2.2866,2.2866,2.2866,2.2866,0.0,2.2238,2.1904,2.1737,2.1296,2.1102,2.1102,2.1102,2.1102,2.1102,2.1102,2.1102,2.1102,2.0962,2.0815,2.0655,2.0221,1.994,1.9786,1.9558,1.9424,1.9424,1.9424,1.9424,1.9397,1.8771,1.8497,1.8484,1.7883,1.7589,1.7589,1.7589,1.7589,1.7589,1.7589,1.7589,1.7589,1.7589,1.7589,1.7582,1.7494,0.0,0.0,0.0,0.0,0.0,0.0,0.0,0.0,0.0,0.0,1.5818,1.5551,1.5391,1.5391,1.5384,1.5451,1.5598,1.5872,1.6106,1.6253,1.6807,1.7259,1.7407,1.7548,1.7589,1.7589,1.7589,1.7589,1.7589,1.7589,1.7649,1.7836,1.8223,1.849,1.8517,1.8744,1.8971,1.9125,1.8998,1.9052,1.9312,1.9424,1.9424,1.941,1.9239,1.9005,1.8508,1.813,1.7776,1.7622,1.7589,1.7589,1.7589,1.7589,1.7589,1.7589,1.7589,1.7589,1.7589,1.7589,1.7549,1.7402,1.742,1.7328,1.7181,1.7034,1.6918,1.6804,1.6643,1.6406,2.2866,2.2866,2.2866,2.2866,2.2819,2.2238,2.1931,2.1804,2.1316,0.0,0.0,2.1102,2.1102,2.1102,2.1102,2.1082,2.1015,2.0788,2.0621,2.0494,2.002,1.9773,1.9706,1.9537,1.9424,1.9424,1.9424,1.9397,1.9265,1.8751,1.8464,1.837,1.7856,1.7589,1.7589,1.7589,1.7589,1.7589,1.7589,1.7589,1.7589,1.7589,1.7589,1.7589,1.7535,1.7255,1.6734,1.6653,1.638,1.5811,1.5825,1.5825,1.5825,1.5825,1.5825,1.5825,1.5825,1.5825,1.5825,1.5825,1.5804,1.5905,1.64,1.6727,1.678,1.7054,1.738,1.7562,1.7589,1.7589,1.7589,1.7589,1.7589,1.7589,1.7589,1.7589,1.7622,1.8063,1.8397,1.8444,1.8657,1.8951,1.9212,1.9065,1.9032,1.935,1.9424,1.9305,1.9205,1.8991,1.8677,1.8129,1.7842,1.7595,1.7589,1.7589,1.7589,1.7589,1.7589,1.7589,1.7589,1.7589,1.7589,1.7589,1.7589,1.7521,1.7273,1.7219,1.7092,1.676,1.666,1.656,1.6339,1.6274,1.6119,2.2866,2.2866,2.2866,2.2866,2.2887,2.2231,2.1704,2.1229,2.1142,2.1102,2.1102,2.1102,2.1102,2.1102,2.1102,2.0969,2.0742,2.0695,2.0408,1.9927,1.984,1.9673,1.9491,1.9444,1.9424,1.9424,1.9424,1.9232,1.8971,1.8644,1.8364,1.8042,1.7756,1.7589,1.7589,1.7589,1.7589,1.7589,1.7589,1.7589,1.7589,1.7589,1.7589,1.7569,1.74,1.7105,1.672,1.6473,1.6179,1.5804,1.5825,1.5825,1.5825,1.5825,1.5825,1.5825,1.5825,1.5825,1.5825,1.5825,1.5939,1.6199,1.652,1.6807,1.7119,1.7407,1.7542,1.7589,1.7589,1.7589,1.7589,1.7589,1.7589,1.7635,1.7641,1.7641,1.7694,1.8003,1.8232,1.8191,1.8364,1.8727,1.8918,1.9001,1.9132,1.9336,1.9377,1.9192,1.8784,1.8584,1.841,1.8042,1.7782,1.7609,1.7589,1.7589,1.7589,1.7589,1.7589,1.7589,1.7589,1.7589,1.7589,1.7589,1.7569,1.7494,1.7239,1.7199,1.7018,1.6693,1.648,1.6313,1.6233,1.6079,1.5851,2.2866,2.2866,2.2866,2.2866,2.2887,2.2231,2.165,2.1122,2.1102,2.1102,2.1102,2.1102,2.1102,2.1102,2.1102,2.0949,2.0668,2.0508,2.0207,1.98,1.9633,1.9499,1.943,1.9424,1.9424,1.9417,1.9199,1.9058,1.8891,1.8415,1.8129,1.7975,1.7736,1.7589,1.7589,1.7589,1.7589,1.7589,1.7589,1.7589,1.7589,1.7589,1.7589,1.7589,1.7448,1.7248,1.7012,1.666,1.6373,1.6086,1.5871,1.5825,1.5825,1.5825,1.5825,1.5825,1.5825,1.5825,1.5825,1.5985,1.6192,1.6486,1.678,1.7119,1.742,1.7502,1.7589,1.7589,1.7589,1.7589,1.7589,1.7589,1.7589,1.7589,1.8251,1.8655,1.8795,1.9664,1.9923,1.9374,2.005,2.015,1.8839,1.9423,1.966,1.9327,1.9125,1.9008,1.8606,1.8337,1.8136,1.7849,1.7669,1.7602,1.7589,1.7589,1.7589,1.7589,1.7589,1.7589,1.7589,1.7589,1.7589,1.7569,1.7521,1.7293,1.6967,1.6824,1.6567,1.6299,1.6146,1.6032,1.6005,1.5912,1.5838,2.2866,2.2866,2.2866,2.2786,2.2619,2.2111,2.159,2.1122,2.1102,2.1102,2.1102,2.1102,2.1102,2.1102,2.1102,2.0915,2.0581,2.0341,2.004,1.97,1.9472,1.9424,1.9424,1.9424,1.939,1.9252,1.9032,1.8858,1.8635,1.8209,1.7955,1.7869,1.7695,1.7589,1.7589,1.7589,1.7589,1.7589,1.7589,1.7589,1.7589,1.7589,1.7589,1.7589,1.7582,1.7494,1.7213,1.6927,1.6673,1.6386,1.6152,1.5951,1.5884,1.5932,1.5851,1.5838,1.5825,1.5858,1.5939,1.6139,1.6426,1.678,1.7065,1.7326,1.7542,1.7589,1.7589,1.7589,1.7589,1.7589,1.7635,1.7943,1.8042,1.8094,1.9272,2.0025,2.021,2.1254,2.1622,2.0767,2.1549,2.1413,2.012,2.0464,2.0985,2.0386,1.985,1.9591,1.9092,1.8876,1.8674,1.8138,1.7838,1.7635,1.7589,1.7589,1.7589,1.7589,1.7589,1.7589,1.7589,1.7589,1.7589,1.7562,1.74,1.7132,1.6774,1.6486,1.6219,1.5965,1.5872,1.5845,1.5852,1.5845,1.5825,2.2866,2.2866,2.2866,2.2552,2.2071,2.1802,2.1416,2.1129,2.1102,2.1102,2.1102,2.1102,2.1102,2.1102,2.1102,2.0815,2.0307,2.0247,1.994,1.9511,1.9437,1.9424,1.9424,1.9424,1.9225,1.8998,1.8925,1.8637,1.8135,1.8022,1.7896,1.7655,1.7595,1.7589,1.7589,1.7589,1.7589,1.7589,1.7589,1.7589,1.7589,1.7589,1.7589,1.7589,1.7589,1.7448,1.7233,1.7172,1.7025,1.67,1.6633,1.65,1.6266,1.6281,1.6112,1.5872,1.5838,1.5939,1.6199,1.6301,1.6576,1.7092,1.7192,1.7333,1.7549,1.7589,1.7589,1.7589,1.7589,1.7589,1.7687,1.8551,1.9117,1.9117,2.0487,2.1499,2.1507,2.1625,2.17,2.1599,2.1952,2.172,2.1663,2.2017,2.2576,2.276,2.2213,2.1534,2.0632,2.0701,2.0589,1.9539,1.8506,1.7838,1.7838,1.7635,1.7996,1.7838,1.774,1.7838,1.7943,1.7793,1.7589,1.7608,1.7367,1.7065,1.676,1.6473,1.6166,1.5919,1.5825,1.5825,1.5825,1.5825,1.5825,2.2866,2.2866,2.2866,2.2525,2.1984,2.1677,2.1383,2.1109,2.1102,2.1102,2.1102,2.1102,2.1102,2.1102,2.1102,2.0788,2.0254,2.0173,1.9927,1.9457,1.9424,1.9424,1.9424,1.9424,1.9212,1.8925,1.8751,1.845,1.8029,1.7856,1.7709,1.7602,1.7589,1.7589,1.7589,1.7589,1.7589,1.7589,1.7589,1.7589,1.7589,1.7589,1.7589,1.7589,1.7589,1.7535,1.7454,1.7293,1.7146,1.7018,1.68,1.6647,1.654,1.6526,1.648,1.6353,1.6297,1.64,1.652,1.6737,1.6945,1.7192,1.7367,1.7514,1.7569,1.7589,1.7589,1.7589,1.7589,1.7589,1.7635,1.8094,1.8401,1.8708,2.0326,2.1744,2.1693,2.3126,2.384,2.3117,2.3583,2.3388,2.2341,2.2341,2.2877,2.3297,2.2992,2.2478,2.1661,2.1664,2.1438,2.0939,2.0333,2.0076,1.9973,2.0025,1.9973,1.9973,2.0025,1.9922,1.8857,1.876,1.861,1.7786,1.7253,1.6901,1.674,1.6313,1.5959,1.5832,1.5825,1.5825,1.5825,1.5825,1.5825,2.2806,2.2719,2.2646,2.2325,2.1844,2.1614,2.1309,2.1122,2.1102,2.1102,2.1102,2.1102,2.1102,2.1102,2.1102,2.0788,2.022,2.0173,1.992,1.947,1.9424,1.9424,1.9424,1.9424,1.9172,1.8824,1.8597,1.8297,1.7882,1.7702,1.7589,1.7589,1.7589,1.7589,1.7589,1.7589,1.7589,1.7589,1.7589,1.7589,1.7589,1.7589,1.7589,1.7589,1.7589,1.7589,1.7628,1.7434,1.732,1.732,1.7061,1.6907,1.6827,1.6827,1.6794,1.6714,1.6707,1.6747,1.682,1.7085,1.7239,1.7326,1.7468,1.7589,1.7589,1.7589,1.7589,1.7589,1.7589,1.7589,1.7641,1.8304,1.8708,1.8909,2.1143,2.2767,2.2968,2.4667,2.5265,2.451,2.4962,2.5136,2.3548,2.3521,2.4053,2.4314,2.4061,2.3374,2.2911,2.2783,2.2767,2.2357,2.2508,2.2416,2.1904,2.1491,2.1693,2.1693,2.1491,2.0939,1.993,1.9627,1.9029,1.7746,1.712,1.6667,1.6526,1.6146,1.5791,1.5832,1.5825,1.5825,1.5825,1.5825,1.5825,2.2699,2.2372,2.1909,2.1702,2.1621,2.1269,2.1129,2.1102,2.1102,2.1102,2.1102,2.1102,2.1102,2.1102,2.1082,2.0782,2.0227,2.0214,1.9907,1.9457,1.9424,1.9424,1.9424,1.9417,1.9072,1.8584,1.8517,1.8196,1.7649,1.7595,1.7589,1.7589,1.7589,1.7589,1.7589,1.7589,1.7589,1.7589,1.7589,1.7589,1.7589,1.7589,1.7589,1.7589,1.7589,1.7589,1.7582,1.7569,1.7608,1.7555,1.7522,1.7454,1.7219,1.7179,1.7058,1.6774,1.6727,1.6847,1.7139,1.7213,1.7326,1.7502,1.7562,1.7589,1.7589,1.7589,1.7589,1.7589,1.7589,1.7589,1.7838,1.9517,2.0939,2.1194,2.3633,2.502,2.5274,2.5274,2.5684,2.5528,2.5577,2.5683,2.5952,2.6227,2.6157,2.6327,2.6316,2.5557,2.4298,2.4675,2.4538,2.3998,2.4146,2.4599,2.2408,2.2307,2.2156,2.2257,2.2466,2.155,2.0385,1.9391,1.8684,1.7883,1.742,1.6968,1.6437,1.6106,1.5899,1.5825,1.5825,1.5825,1.5825,1.5825,1.5825,2.2405,2.2104,2.1717,2.1621,2.1588,2.1236,2.1102,2.1102,2.1102,2.1102,2.1102,2.1102,2.1102,2.1102,2.0915,2.0615,2.0173,2.0047,1.974,1.945,1.9424,1.9424,1.9424,1.9424,1.9058,1.8564,1.849,1.8176,1.7642,1.7589,1.7589,1.7589,1.7589,1.7589,1.7589,1.7589,1.7589,1.7589,1.7589,1.7589,1.7589,1.7589,1.7589,1.7589,1.7589,1.7589,1.7589,1.7589,1.7589,1.7589,1.7589,1.7588,1.7442,1.7481,1.7434,1.7281,1.7268,1.7315,1.7408,1.7428,1.7521,1.7562,1.7589,1.7589,1.7589,1.7589,1.7589,1.7589,1.7589,1.7589,1.7943,1.9317,2.0333,2.0692,2.2726,2.4412,2.4609,2.5167,2.5684,2.5684,2.5684,2.5918,2.6131,2.6377,2.6455,2.6562,2.6475,2.5593,2.4413,2.427,2.4196,2.3949,2.4097,2.4402,2.4609,2.4304,2.4304,2.4304,2.4205,2.3583,2.2617,2.2013,2.1384,1.9605,1.8674,1.7506,1.7106,1.6183,1.5953,1.5825,1.5825,1.5825,1.5825,1.5825,1.5825,2.2111,2.1824,2.1537,2.1403,2.139,2.1196,2.1102,2.1102,2.1102,2.1102,2.1102,2.1102,2.1062,2.0929,2.0661,2.0368,2.0094,1.9887,1.9646,1.9379,1.9424,1.9424,1.9424,1.9424,1.9058,1.8524,1.8277,1.7969,1.7635,1.7589,1.7589,1.7589,1.7589,1.7589,1.7589,1.7589,1.7589,1.7589,1.7589,1.7589,1.7589,1.7589,1.7589,1.7589,1.7589,1.7589,1.7589,1.7589,1.7589,1.7589,1.7589,1.7589,1.7589,1.7589,1.7589,1.7589,1.7582,1.7589,1.7589,1.7589,1.7582,1.7589,1.7589,1.7589,1.7589,1.7589,1.7589,1.7589,1.7589,1.7589,1.7891,1.8812,1.9576,1.9826,2.1702,2.3026,2.3126,2.384,2.451,2.4824,2.451,2.47,2.5273,2.5061,2.482,2.488,2.487,2.4272,2.3347,2.3076,2.3276,2.3583,2.3741,2.4402,2.4913,2.5118,2.5118,2.5177,2.5177,2.4815,2.4353,2.3998,2.3183,2.146,1.9954,1.8622,1.7491,1.6504,1.6062,1.5832,1.5825,1.5825,1.5825,1.5825,1.5825,2.181,2.1594,2.1236,2.1136,2.1142,2.1116,2.1102,2.1102,2.1102,2.1102,2.1102,2.1102,2.0962,2.0681,2.0421,2.01,1.9867,1.978,1.9613,1.9437,1.9424,1.9424,1.9424,1.9424,1.9058,1.8477,1.7889,1.7622,1.7589,1.7589,1.7589,1.7589,1.7589,1.7589,1.7589,1.7589,1.7589,1.7589,1.7589,1.7589,1.7589,1.7589,1.7589,1.7589,1.7589,1.7589,1.7589,1.7589,1.7589,1.7589,1.7589,1.7589,1.7589,1.7589,1.7589,1.7589,1.7589,1.7589,1.7589,1.7589,1.7589,1.7589,1.7589,1.7589,1.7589,1.7589,1.7589,1.7589,1.7589,1.7589,1.7786,1.8655,1.9472,1.9731,2.1049,2.1904,2.1853,2.1803,2.2257,2.3226,2.2826,2.2416,2.3044,2.2987,2.2493,2.2594,2.2384,2.2375,2.2274,2.2005,2.2257,2.3285,2.3534,2.3782,2.4805,2.5684,2.5684,2.5635,2.5577,2.5323,2.4716,2.4245,2.3855,2.2353,2.033,1.8991,1.7481,1.6572,1.6008,1.5825,1.5825,1.5825,1.5825,1.5825,1.5825,2.1516,2.1249,2.1149,2.1102,2.1102,2.1102,2.1102,2.1102,2.1102,2.1102,2.1102,2.1102,2.0949,2.0661,2.0368,2.0074,1.9793,1.9606,1.9452,1.9437,1.9424,1.9424,1.9424,1.9417,1.9058,1.8477,1.7869,1.7589,1.7589,1.7589,1.7589,1.7589,1.7589,1.7589,1.7589,1.7589,1.7589,1.7589,1.7589,1.7589,1.7589,1.7589,1.7589,1.7589,1.7589,1.7589,1.7589,1.7589,1.7589,1.7589,1.7589,1.7589,1.7589,1.7589,1.7589,1.7589,1.7589,1.7589,1.7589,1.7589,1.7589,1.7589,1.7589,1.7589,1.7589,1.7589,1.7589,1.7589,1.7589,1.7589,1.7687,1.7943,1.8603,1.9531,2.0845,2.1541,2.144,2.1541,2.1895,2.2156,2.1954,2.1954,2.2156,2.1744,2.1853,2.2617,2.2206,2.1845,2.2567,2.1448,2.1355,2.3126,2.3018,2.3425,2.4854,2.5684,2.5684,2.5684,2.5684,2.5635,2.5069,2.4688,2.4277,2.3163,2.1117,1.9423,1.7908,1.6816,1.6285,1.592,1.5872,1.5872,1.5825,1.5825,1.5825,2.1383,2.1116,2.1102,2.1102,2.1102,2.1102,2.1102,2.1102,2.1102,2.1102,2.1089,2.0989,2.0788,2.0494,2.0207,1.9913,1.9633,1.9446,1.9424,1.9424,1.9424,1.9424,1.9383,1.9125,1.8878,1.845,1.7869,1.7589,1.7589,1.7589,1.7589,1.7589,1.7589,1.7589,1.7589,1.7589,1.7589,1.7589,1.7589,1.7589,1.7589,1.7589,1.7589,1.7589,1.7589,1.7589,1.7589,1.7589,1.7589,1.7589,1.7589,1.7589,1.7589,1.7589,1.7589,1.7589,1.7589,1.7589,1.7589,1.7589,1.7589,1.7589,1.7589,1.7589,1.7589,1.7589,1.7589,1.7589,1.7589,1.7589,1.7589,1.7641,1.8042,1.876,1.9517,2.0128,2.0179,2.0179,2.0479,2.0582,2.0436,2.0743,2.1397,2.0582,2.1092,2.2215,2.1803,2.1448,2.2165,2.1499,2.2206,2.2926,2.3176,2.3989,2.5323,2.5684,2.5684,2.5684,2.5684,2.5684,2.543,2.5323,2.5033,2.3749,2.197,2.0718,1.9217,1.7621,1.6763,1.6433,1.6177,1.5872,1.5825,1.5825,1.5825,2.1396,2.1122,2.1102,2.1102,2.1102,2.1102,2.1102,2.1102,2.1102,2.1102,2.1049,2.0835,2.0541,2.0234,1.998,1.9686,1.9412,1.9386,1.9424,1.9424,1.9424,1.9424,1.937,1.8844,1.8571,1.8417,1.7876,1.7602,1.7589,1.7589,1.7589,1.7589,1.7589,1.7589,1.7589,1.7589,1.7589,1.7589,1.7589,1.7589,1.7589,1.7589,1.7589,1.7589,1.7589,1.7589,1.7589,1.7589,1.7589,1.7589,1.7589,1.7589,1.7589,1.7589,1.7589,1.7589,1.7589,1.7589,1.7589,1.7589,1.7589,1.7589,1.7589,1.7589,1.7589,1.7589,1.7589,1.7589,1.7589,1.7589,1.7589,1.7589,1.7687,1.7635,1.8048,1.8048,1.774,1.7838,1.8527,1.9116,1.8586,1.8586,2.107,1.9487,1.9879,2.1143,2.11,2.1151,2.2013,2.2416,2.2567,2.3026,2.3692,2.4196,2.543,2.5684,2.5684,2.5684,2.5684,2.5684,2.5684,2.5674,2.5616,2.4304,2.3026,2.1837,2.0622,1.9154,1.7911,1.741,1.6916,1.6191,1.5825,1.5825,1.5825,2.157,2.1122,2.1102,2.1102,2.1102,2.1102,2.1102,2.1102,2.1102,2.1102,2.1042,2.0802,2.0501,2.0221,1.992,1.9639,1.9477,1.9424,1.9424,1.9424,1.9424,1.9424,1.9303,1.8771,1.849,1.839,1.7883,1.7589,1.7589,1.7589,1.7589,1.7589,1.7589,1.7589,1.7589,1.7589,1.7589,1.7589,1.7589,1.7589,1.7589,1.7589,1.7589,1.7589,1.7589,1.7589,1.7589,1.7589,1.7589,1.7589,1.7589,1.7589,1.7589,1.7589,1.7589,1.7589,1.7589,1.7589,1.7589,1.7589,1.7589,1.7589,1.7589,1.7589,1.7589,1.7589,1.7589,1.7589,1.7589,1.7595,1.7595,1.7609,1.7609,1.7589,1.7642,1.7622,1.7589,1.7648,1.7867,1.829,1.8164,1.9155,2.0091,2.0346,2.0471,2.2274,2.2299,2.1912,2.3194,2.3026,2.2926,2.3998,2.4658,2.4815,2.5177,2.5528,2.5684,2.5684,2.5684,2.5684,2.5684,2.5684,2.5616,2.514,2.3952,2.2738,2.199,2.0928,1.9906,1.8745,1.7918,1.7272,1.6224,1.5879,1.5872,2.1416,2.1102,2.1102,2.1102,2.1102,2.1102,2.1102,2.1102,2.1102,2.1102,2.1015,2.0661,2.0394,2.014,1.98,1.9539,1.9437,1.9424,1.9424,1.9424,1.9424,1.9357,1.9098,1.8691,1.843,1.8257,1.7816,1.7615,1.7589,1.7589,1.7589,1.7589,1.7589,1.7589,1.7589,1.7589,1.7589,1.7589,1.7589,1.7589,1.7589,1.7589,1.7589,1.7589,1.7589,1.7589,1.7589,1.7589,1.7589,1.7589,1.7589,1.7589,1.7589,1.7589,1.7589,1.7589,1.7589,1.7589,1.7589,1.7589,1.7589,1.7589,1.7589,1.7589,1.7589,1.7589,1.7589,1.7589,1.7695,1.7769,1.7802,1.7883,1.7949,1.7996,1.7963,1.7856,1.7682,1.833,1.8713,1.9049,1.966,2.0575,2.1901,2.1645,2.2565,2.3877,2.372,2.4113,2.492,2.3967,2.3534,2.4609,2.5226,2.5323,2.5323,2.5577,2.5684,2.5684,2.5684,2.5684,2.5684,2.5684,2.5577,2.5324,2.4496,2.3801,2.3128,2.2435,2.1557,2.0409,1.9404,1.8324,1.7305,1.6408,1.6347,2.1136,2.1102,2.1102,2.1102,2.1102,2.1102,2.1102,2.1102,2.1102,2.1076,2.0935,2.0468,2.0234,2.016,1.9639,1.943,1.9424,1.9424,1.9424,1.9424,1.9397,1.9219,1.8865,1.8637,1.835,1.8022,1.7736,1.7609,1.7589,1.7589,1.7589,1.7589,1.7589,1.7589,1.7589,1.7589,1.7589,1.7589,1.7589,1.7589,1.7589,1.7589,1.7589,1.7589,1.7589,1.7589,1.7589,1.7589,1.7589,1.7589,1.7589,1.7589,1.7589,1.7589,1.7589,1.7589,1.7589,1.7589,1.7589,1.7589,1.7589,1.7589,1.7589,1.7589,1.7589,1.7589,1.7609,1.7689,1.7889,1.8003,1.8062,1.8317,1.839,1.8384,1.843,1.8258,1.835,1.9367,2.034,2.0499,2.1828,2.3394,2.4175,2.4202,2.394,2.5376,2.5153,2.5283,2.5729,2.5258,2.4947,2.5274,2.5577,2.5635,2.5635,2.5684,2.5684,2.5684,2.5684,2.5684,2.5684,2.5635,2.5528,2.5169,2.4687,2.4409,2.42,2.3489,2.2749,2.1825,2.0607,1.9542,1.8554,1.7717,1.7359,2.1323,2.1102,2.1102,2.1102,2.1102,2.1102,2.1102,2.1102,2.1102,2.0989,2.0728,2.0381,2.0114,1.9887,1.9546,1.9424,1.9424,1.9424,1.9424,1.9424,1.9424,1.9052,1.8684,1.8497,1.8317,1.8016,1.7722,1.7589,1.7589,1.7589,1.7589,1.7589,1.7589,1.7589,1.7589,1.7589,1.7589,1.7589,1.7589,1.7589,1.7589,1.7589,1.7589,1.7589,1.7589,1.7589,1.7589,1.7589,1.7589,1.7589,1.7589,1.7589,1.7589,1.7589,1.7589,1.7589,1.7589,1.7589,1.7589,1.7589,1.7589,1.7589,1.7589,1.7589,1.7589,1.7602,1.7709,1.7876,1.7962,1.8196,1.8404,1.8457,1.8544,1.8571,1.8606,1.8968,1.9816,2.0403,2.0801,2.1324,2.2546,2.3827,2.5165,2.5271,2.5582,2.6605,2.6635,2.6408,2.6305,2.625,2.6064,2.5889,2.5693,2.5693,2.5684,2.5684,2.5684,2.5684,2.5684,2.5684,2.5684,2.5625,2.5528,2.5314,2.5022,2.4752,2.4377,2.4449,2.3698,2.2712,2.1682,2.0583,1.9558,1.8885,1.839,2.1256,2.1109,2.1102,2.1102,2.1102,2.1102,2.1102,2.1102,2.1102,2.0949,2.0661,2.0368,2.0074,1.9786,1.9506,1.9424,1.9424,1.9424,1.9424,1.939,1.9232,1.8911,1.8544,1.8323,1.813,1.7842,1.7675,1.7589,1.7589,1.7589,1.7589,1.7589,1.7589,1.7589,1.7589,1.7589,1.7589,1.7589,1.7589,1.7589,1.7589,1.7589,1.7589,1.7589,1.7589,1.7589,1.7589,1.7589,1.7589,1.7589,1.7589,1.7589,1.7589,1.7589,1.7589,1.7589,1.7589,1.7589,1.7589,1.7589,1.7589,1.7589,1.7589,1.7589,1.7635,1.7695,1.7862,1.8009,1.8242,1.8577,1.8851,1.8911,1.8898,1.8905,1.8948,1.9605,2.0818,2.1588,2.2343,2.3214,2.4823,2.5864,2.6563,2.6454,2.657,2.7341,2.7314,2.7065,2.6637,2.6523,2.6309,2.6103,2.5859,2.5693,2.5684,2.5684,2.5684,2.5684,2.5684,2.5684,2.5684,2.5577,2.5479,2.5216,2.4903,2.4335,2.4018,2.4212,2.4022,2.2703,2.1631,2.1101,2.0586,1.987,1.9622,2.1102,2.1102,2.1102,2.1102,2.1102,2.1102,2.1102,2.1102,2.1102,2.0909,2.0608,2.0327,2.004,1.9726,1.9486,1.943,1.941,1.9336,1.9303,1.9219,1.8965,1.8684,1.839,1.8163,1.7936,1.7615,1.7589,1.7589,1.7589,1.7589,1.7589,1.7589,1.7589,1.7589,1.7589,1.7589,1.7589,1.7589,1.7589,1.7589,1.7589,1.7589,1.7589,1.7589,1.7589,1.7589,1.7589,1.7589,1.7589,1.7589,1.7589,1.7589,1.7589,1.7589,1.7589,1.7589,1.7589,1.7589,1.7589,1.7589,1.7589,1.7589,1.7655,1.7669,1.7729,1.7943,1.8089,1.8315,1.8644,1.9038,1.9383,1.9733,1.9639,1.9608,1.9686,2.0651,2.1768,2.3044,2.4236,2.5272,2.6332,2.7359,2.7747,2.7781,2.7892,2.7914,2.7836,2.7669,2.7178,2.6875,2.6709,2.6523,2.6328,2.6074,2.6025,2.5927,2.5898,2.5762,2.5742,2.5723,2.5713,2.5635,2.5479,2.5069,2.4658,2.4196,2.389,2.3898,2.3408,2.2239,2.1645,2.1246,2.1015,2.0785,2.0597,2.1102,2.1102,2.1102,2.1102,2.1102,2.1102,2.1102,2.1102,2.1089,2.0802,2.0347,2.0241,1.992,1.9553,1.947,1.9424,1.9292,1.9152,1.9025,1.8951,1.8691,1.841,1.8135,1.7989,1.7796,1.7662,1.7589,1.7589,1.7589,1.7589,1.7589,1.7589,1.7589,1.7589,1.7589,1.7589,1.7589,1.7589,1.7589,1.7589,1.7589,1.7589,1.7589,1.7589,1.7589,1.7589,1.7589,1.7589,1.7589,1.7589,1.7589,1.7589,1.7589,1.7589,1.7589,1.7589,1.7589,1.7589,1.7589,1.7589,1.7589,1.7642,1.7796,1.7896,1.7982,1.8243,1.849,1.8764,1.9018,1.9363,1.9417,2.0148,2.0422,2.0371,2.1266,2.2822,2.3526,2.4514,2.5557,2.6262,2.7444,2.8301,2.8301,2.8301,2.8184,2.8086,2.8057,2.792,2.7607,2.7393,2.7256,2.707,2.6885,2.6611,2.6377,2.6318,2.625,2.5996,2.5918,2.581,2.5781,2.5703,2.5479,2.5128,2.4873,2.4559,2.4254,2.384,2.3018,2.2122,2.1737,2.1503,2.118,2.0908,2.0645,2.1102,2.1102,2.1102,2.1102,2.1102,2.1102,2.1102,2.1082,2.0949,2.0641,2.0287,2.0067,1.978,1.9511,1.9424,1.9357,1.9118,1.9005,1.8844,1.8677,1.8397,1.8203,1.7955,1.7842,1.7736,1.7615,1.7589,1.7589,1.7589,1.7589,1.7589,1.7589,1.7589,1.7589,1.7589,1.7589,1.7589,1.7589,1.7589,1.7589,1.7589,1.7589,1.7589,1.7589,1.7589,1.7589,1.7589,1.7589,1.7589,1.7589,1.7589,1.7589,1.7589,1.7589,1.7589,1.7589,1.7589,1.7589,1.7589,1.7595,1.7649,1.7822,1.7929,1.8069,1.8303,1.8544,1.8831,1.9092,1.9225,1.9424,1.9424,2.0206,2.0371,2.0816,2.1983,2.3375,2.4654,2.5599,2.6327,2.6943,2.7736,2.8301,2.8301,2.8301,2.8301,2.8301,2.8301,2.8154,2.7959,2.7793,2.7679,2.749,2.7275,2.7031,2.6797,2.6728,2.6602,2.6338,2.6143,2.6074,2.5957,2.5918,2.5605,2.5274,2.502,2.4815,2.4254,2.3741,2.2868,2.2206,2.2306,2.2197,2.1519,2.1044,2.1003,2.1102,2.1102,2.1102,2.1102,2.1102,2.1102,2.1102,2.1049,2.0808,2.0521,2.0153,1.9933,1.9653,1.9491,1.939,1.9219,1.8931,1.8878,1.8657,1.8377,1.8096,1.7889,1.7876,1.7749,1.7595,1.7602,1.7589,1.7589,1.7589,1.7589,1.7589,1.7589,1.7589,1.7589,1.7589,1.7589,1.7589,1.7589,1.7589,1.7589,1.7589,1.7589,1.7589,1.7589,1.7589,1.7589,1.7589,1.7589,1.7589,1.7589,1.7589,1.7589,1.7589,1.7589,1.7589,1.7589,1.7589,1.7589,1.7595,1.7695,1.7809,1.7922,1.8102,1.8295,1.8557,1.8838,1.9105,1.937,1.9424,1.9424,1.9482,1.9764,2.0422,2.1373,2.2258,2.3367,2.5206,2.6436,2.7159,2.7726,2.8184,2.8301,2.8301,2.8301,2.8301,2.8301,2.8301,2.8301,2.8115,2.8008,2.7871,2.7783,2.7607,2.7393,2.7226,2.7168,2.7002,2.6758,2.6572,2.6465,2.6279,2.6113,2.577,2.5517,2.5118,2.4815,2.4205,2.3791,2.3226,2.2968,2.3135,2.2741,2.1804,2.1896,2.2288,2.1102,2.1102,2.1102,2.1102,2.1102,2.1102,2.1102,2.1069,2.0788,2.0514,2.0214,1.9913,1.9619,1.9477,1.9424,1.9192,1.8918,1.8677,1.8417,1.809,1.7816,1.7689,1.7655,1.7622,1.7589,1.7589,1.7589,1.7589,1.7589,1.7589,1.7589,1.7589,1.7589,1.7589,1.7589,1.7589,1.7589,1.7589,1.7589,1.7589,1.7589,1.7589,1.7589,1.7589,1.7589,1.7589,1.7589,1.7589,1.7589,1.7589,1.7589,1.7589,1.7589,1.7589,1.7589,1.7589,1.7589,1.7589,1.7649,1.7809,1.7962,1.8155,1.849,1.8715,1.8925,1.9092,1.935,1.9397,1.9424,1.9424,1.9649,2.0479,2.1202,2.2315,2.3479,2.4765,2.6273,2.706,2.778,2.795,2.8237,2.8301,2.8301,2.8301,2.8301,2.8301,2.8301,2.8301,2.8271,2.8154,2.8096,2.8008,2.7969,2.7764,2.7656,2.7598,2.7471,2.7226,2.7031,2.6865,2.668,2.6455,2.6103,2.5761,2.539,2.5186,2.4971,2.4501,2.384,2.3633,2.3791,2.2976,2.1845,2.2416,2.3484,2.1102,2.1102,2.1102,2.1102,2.1102,2.1102,2.1102,2.1009,2.0621,2.0354,2.0154,1.9746,1.9479,1.9437,1.9424,1.9098,1.8738,1.8551,1.8217,1.7876,1.7662,1.7589,1.7595,1.7589,1.7589,1.7589,1.7589,1.7589,1.7589,1.7589,1.7589,1.7589,1.7589,1.7589,1.7589,1.7589,1.7589,1.7589,1.7589,1.7589,1.7589,1.7589,1.7589,1.7589,1.7589,1.7589,1.7589,1.7589,1.7589,1.7589,1.7589,1.7589,1.7589,1.7602,1.7642,1.7856,1.7856,1.7856,1.7869,1.7935,1.8149,1.849,1.8791,1.8965,1.9138,1.9272,1.9424,1.9424,1.9424,1.9424,1.9424,1.9982,2.1316,2.271,2.4258,2.5818,2.6888,2.7618,2.8237,2.8291,2.8301,2.8301,2.8301,2.8301,2.8301,2.8301,2.8301,2.8301,2.8301,2.8252,2.8232,2.8242,2.8213,2.8154,2.8076,2.8018,2.7988,2.7773,2.75,2.7324,2.7119,2.6855,2.6475,2.6123,2.5731,2.5635,2.5664,2.5323,2.4756,2.455,2.4402,2.3683,2.3076,2.384,2.451,2.1102,2.1102,2.1102,2.1102,2.1096,2.1036,2.0995,2.0922,2.0374,2.0127,1.9993,1.9613,1.9437,1.9424,1.939,1.9105,1.8631,1.8531,1.8176,1.7836,1.7622,1.7589,1.7589,1.7589,1.7589,1.7589,1.7589,1.7589,1.7589,1.7589,1.7589,1.7589,1.7589,1.7589,1.7589,1.7589,1.7589,1.7589,1.7589,1.7589,1.7589,1.7589,1.7589,1.7589,1.7589,1.7589,1.7589,1.7589,1.7589,1.7589,1.7589,1.7589,1.7589,1.7595,1.7729,1.7923,1.7942,1.8069,1.8169,1.8315,1.8524,1.8778,1.9032,1.9152,1.935,1.9424,1.9424,1.9424,1.9424,1.9424,1.9482,1.9758,2.1373,2.2934,2.4322,2.6109,2.7555,2.8014,2.8291,2.8301,2.8301,2.8301,2.8301,2.8301,2.8301,2.8301,2.8301,2.8301,2.8301,2.8301,2.8301,2.8301,2.8291,2.8271,2.8262,2.8252,2.8291,2.8232,2.7959,2.7715,2.7461,2.7158,2.6807,2.6465,2.6123,2.5859,2.5762,2.5723,2.5684,2.5323,2.5011,2.4913,2.4864,2.543,2.5479,2.1102,2.1102,2.1102,2.1089,2.1076,2.0815,2.0715,2.0655,2.0094,1.9853,1.9786,1.9519,1.9424,1.9424,1.9397,1.9185,1.8865,1.8611,1.8297,1.7996,1.7749,1.7629,1.7602,1.7589,1.7589,1.7589,1.7589,1.7589,1.7589,1.7589,1.7589,1.7589,1.7589,1.7589,1.7589,1.7589,1.7589,1.7589,1.7589,1.7589,1.7589,1.7589,1.7589,1.7589,1.7589,1.7589,1.7589,1.7589,1.7589,1.7589,1.7589,1.7589,1.7589,1.7642,1.7816,1.8043,1.8129,1.8335,1.8664,1.8695,1.8844,1.8985,1.9138,1.935,1.9417,1.9424,1.9424,1.9424,1.9424,1.9424,1.9815,2.0594,2.1536,2.287,2.4156,2.5772,2.7114,2.8004,2.8237,2.8291,2.8301,2.8301,2.8301,2.8301,2.8301,2.8301,2.8301,2.8301,2.8301,2.8301,2.8301,2.8301,2.8301,2.8291,2.8291,2.8301,2.8301,2.8301,2.8144,2.7939,2.7725,2.7412,2.7109,2.6768,2.6426,2.6143,2.582,2.5762,2.5713,2.5693,2.5577,2.5323,2.5323,2.5528,2.5684,2.1102,2.1089,2.0922,2.0842,2.0835,2.0728,2.0575,2.0361,1.9973,1.9693,1.9533,1.9477,1.9424,1.9424,1.941,1.9205,1.8945,1.8831,1.8415,1.8095,1.7856,1.7762,1.7682,1.7602,1.7589,1.7589,1.7589,1.7589,1.7589,1.7589,1.7589,1.7589,1.7589,1.7589,1.7589,1.7589,1.7589,1.7589,1.7589,1.7589,1.7589,1.7589,1.7589,1.7589,1.7589,1.7589,1.7589,1.7589,1.7589,1.7589,1.7589,1.7595,1.7649,1.7762,1.7996,1.829,1.8437,1.8751,1.9011,1.9058,1.9005,1.9192,1.9305,1.9424,1.9424,1.9424,1.9424,1.9424,1.9424,1.9424,1.9591,1.9924,2.0702,2.2258,2.3869,2.5434,2.6608,2.7501,2.8228,2.8237,2.8237,2.8301,2.8301,2.8301,2.8301,2.8301,2.8301,2.8301,2.8301,2.8301,2.8301,2.8301,2.8301,2.8301,2.8301,2.8301,2.8301,2.8301,2.8301,2.8135,2.7939,2.7757,2.7444,2.706,2.6728,2.6426,2.6143,2.5898,2.5791,2.5703,2.5693,2.5635,2.5684,2.5684,2.5684,2.1056,2.0962,2.0762,2.0675,2.0655,2.0488,2.0301,2.008,1.9786,1.9573,1.9424,1.9424,1.9424,1.9424,1.9417,1.9285,1.9052,1.8858,1.8611,1.8295,1.8082,1.7943,1.7782,1.7709,1.7709,1.7629,1.7589,1.7589,1.7589,1.7589,1.7589,1.7589,1.7589,1.7589,1.7589,1.7589,1.7589,1.7589,1.7589,1.7589,1.7589,1.7589,1.7589,1.7589,1.7589,1.7589,1.7589,1.7589,1.7589,1.7589,1.7595,1.7642,1.7762,1.7949,1.8237,1.8544,1.8818,1.9065,1.9212,1.9232,1.9152,1.9305,1.9403,1.9424,1.9424,1.9424,1.9424,1.9424,1.9424,1.9424,1.9482,2.004,2.0644,2.2138,2.3311,2.4765,2.5936,2.6943,2.7672,2.8174,2.8237,2.8237,2.8237,2.8237,2.8184,2.8237,2.8301,2.8301,2.8301,2.8301,2.8301,2.8301,2.8301,2.8301,2.8301,2.8301,2.8301,2.8301,2.8301,2.8301,2.8125,2.791,2.7757,2.7432,2.709,2.6719,2.6416,2.6162,2.5947,2.5713,2.5703,2.5684,2.5684,2.5684,2.5684,2.0942,2.0695,2.0723,2.0641,2.0555,2.006,1.9833,1.9786,1.9539,1.9457,1.9424,1.9424,1.9424,1.9424,1.9424,1.9383,1.9212,1.8851,1.8657,1.8621,1.8323,1.8042,1.7929,1.7923,1.7749,1.7622,1.7589,1.7589,1.7589,1.7589,1.7589,1.7589,1.7589,1.7589,1.7589,1.7589,1.7589,1.7589,1.7589,1.7589,1.7589,1.7589,1.7589,1.7589,1.7589,1.7589,1.7589,1.7589,1.7589,1.7589,1.7649,1.7762,1.7902,1.8035,1.8342,1.8824,1.8911,1.9098,1.9319,1.9397,1.941,1.9417,1.9424,1.9424,1.9424,1.9424,1.9424,1.9424,1.9424,1.9424,1.9873,2.0429,2.0916,2.1529,2.2645,2.3654,2.4765,2.5827,2.6445,2.734,2.7906,2.8237,2.8237,2.8174,2.8067,2.8121,2.8237,2.8301,2.8301,2.8301,2.8301,2.8301,2.8301,2.8301,2.8301,2.8301,2.8301,2.8301,2.8301,2.8301,2.8301,2.8174,2.7969,2.7754,2.7532,2.7139,2.6768,2.6406,2.6289,2.6113,2.5771,2.5693,2.5684,2.5742,2.582,2.0762,2.0641,2.0261,2.0094,2.0067,1.9893,1.97,1.9519,1.947,1.9424,1.9424,1.9424,1.9424,1.9424,1.9424,1.9424,1.937,1.933,1.9132,1.8865,1.8497,1.8243,1.8029,1.7889,1.7709,1.7615,1.7589,1.7589,1.7589,1.7589,1.7589,1.7589,1.7589,1.7589,1.7589,1.7589,1.7589,1.7589,1.7589,1.7589,1.7589,1.7595,1.7602,1.7609,1.7609,1.7609,1.7595,1.7595,1.7629,1.7662,1.7749,1.7909,1.8109,1.8255,1.8691,1.8971,1.9058,1.9245,1.941,1.9417,1.9424,1.9437,1.943,1.943,1.943,1.9424,1.9424,1.9444,1.9477,1.947,1.9649,1.9707,2.004,2.0307,2.1145,2.1975,2.3039,2.4044,2.4939,2.6045,2.6834,2.7017,2.7099,2.7585,2.7668,2.8001,2.8246,2.8306,2.831,2.8301,2.8301,2.8301,2.8301,2.8301,2.8301,2.8301,2.8301,2.8301,2.8301,2.8301,2.8301,2.8301,2.8232,2.8027,2.7803,2.7611,2.7249,2.6875,2.6777,2.6592,2.6181,2.5908,2.5888,2.6055,2.6211,2.0461,2.0327,1.996,1.974,1.9659,1.9653,1.9533,1.9444,1.9424,1.9424,1.9424,1.9424,1.9424,1.9424,1.9424,1.9424,1.9417,1.9232,1.9343,1.8998,1.8657,1.8417,1.8156,1.7876,1.7742,1.7635,1.7589,1.7589,1.7589,1.7589,1.7589,1.7589,1.7589,1.7589,1.7589,1.7589,1.7589,1.7589,1.7589,1.7655,1.7722,1.7769,1.7762,1.7762,1.7742,1.7709,1.7655,1.7669,1.7742,1.7816,1.7989,1.8175,1.8375,1.8595,1.8978,1.9112,1.9219,1.9352,1.9424,1.9424,1.947,1.9539,1.9439,1.9426,1.9446,1.9439,1.9559,1.9593,1.9553,1.9586,1.9613,1.9593,1.9596,1.988,2.006,2.0952,2.1843,2.2902,2.3738,2.4838,2.548,2.5681,2.6213,2.6672,2.7151,2.7704,2.8195,2.8294,2.8398,2.8418,2.8369,2.8301,2.8301,2.8301,2.8301,2.8301,2.8301,2.8301,2.8301,2.8301,2.8301,2.8301,2.8301,2.8291,2.8076,2.7851,2.7598,2.7363,2.7109,2.6875,2.6611,2.6377,2.6201,2.6348,2.6592,2.0054,1.982,1.9793,1.9619,1.9464,1.9457,1.9379,1.9424,1.9424,1.9424,1.9424,1.9424,1.9424,1.9424,1.9424,1.9424,1.9403,1.9118,1.9138,1.9078,1.8704,1.8517,1.8303,1.807,1.7782,1.7635,1.7589,1.7589,1.7589,1.7589,1.7589,1.7589,1.7589,1.7589,1.7589,1.7589,1.7589,1.7589,1.7675,1.7782,1.7849,1.7982,1.7995,1.7982,1.7942,1.7862,1.7796,1.7796,1.7923,1.8076,1.829,1.8591,1.8804,1.8925,1.9125,1.9265,1.9352,1.9417,1.9424,1.9424,1.9519,1.9646,1.9546,1.9593,1.9666,1.9666,1.9766,1.9893,1.992,1.9993,1.9987,1.988,1.9713,1.9717,1.9569,2.0275,2.1111,2.1956,2.265,2.3422,2.4065,2.4678,2.5996,2.6622,2.6834,2.7241,2.7901,2.8717,2.8789,2.8701,2.8603,2.8301,2.8301,2.8301,2.8301,2.8301,2.8301,2.8301,2.8301,2.8301,2.8301,2.8301,2.8301,2.8301,2.8301,2.8135,2.7891,2.7598,2.7285,2.71,2.7129,2.6865,2.6719,2.6855,2.7041,1.988,1.978,1.9579,1.9504,1.943,1.9424,1.9424,1.9424,1.9424,1.9424,1.9424,1.9424,1.9424,1.9424,1.9424,1.9417,1.9383,1.9272,1.9138,1.8945,1.8631,1.839,1.815,1.7903,1.7689,1.7622,1.7589,1.7589,1.7589,1.7589,1.7589,1.7589,1.7589,1.7589,1.7589,1.7589,1.7589,1.7642,1.7769,1.7889,1.8062,1.8209,1.831,1.8337,1.8142,1.7995,1.7935,1.7842,1.7936,1.8055,1.835,1.8637,1.8891,1.9105,1.9325,1.9397,1.9424,1.9424,1.9424,1.9424,1.9506,1.9753,1.972,1.9867,1.9973,2.0047,2.006,2.018,2.0214,2.0241,2.0174,2.002,1.9887,1.976,1.9606,1.9836,2.0591,2.0835,2.1598,2.2451,2.3094,2.4252,2.5586,2.625,2.646,2.6852,2.7564,2.8676,2.916,2.9072,2.8828,2.8516,2.8301,2.8301,2.8301,2.8301,2.8301,2.8301,2.8301,2.8301,2.8301,2.8301,2.8301,2.8301,2.8301,2.8262,2.8174,2.79,2.7656,2.7851,2.7881,2.7529,2.7285,2.7393,2.7471,1.9633,1.9606,1.9446,1.9424,1.9424,1.9424,1.9424,1.9424,1.9424,1.9424,1.9424,1.9424,1.9424,1.9339,1.9245,1.9172,1.9165,1.8991,1.8871,1.8718,1.8464,1.825,1.7929,1.7749,1.7629,1.7589,1.7589,1.7589,1.7589,1.7589,1.7589,1.7589,1.7589,1.7589,1.7589,1.7589,1.7589,1.7695,1.7856,1.8022,1.8283,1.849,1.8611,1.8624,1.8382,1.8288,1.8182,1.8043,1.821,1.8348,1.8677,1.8905,1.9105,1.9285,1.9417,1.9424,1.9424,1.9424,1.9424,1.9424,1.9599,1.984,1.9973,2.0221,2.0307,2.0374,2.0454,2.0548,2.0468,2.0388,2.0261,2.014,2.0034,1.9927,1.9753,1.9586,1.9738,1.9866,2.064,2.1648,2.269,2.3849,2.4838,2.5611,2.6754,2.8223,2.9021,2.9516,2.9717,2.9414,2.9101,2.874,2.8467,2.8301,2.8301,2.8301,2.832,2.832,2.8301,2.8301,2.8301,2.8301,2.8301,2.8301,2.8301,2.8271,2.8242,2.8262,2.8164,2.8301,2.8301,2.7998,2.7773,2.7842,2.79,1.943,1.9437,1.9424,1.9424,1.9366,1.939,1.937,1.9319,1.9316,1.9383,1.9403,1.9424,1.9397,1.9239,1.9078,1.8945,1.8865,1.8711,1.8584,1.8457,1.8189,1.8002,1.7896,1.7736,1.7609,1.7589,1.7589,1.7589,1.7589,1.7589,1.7589,1.7589,1.7589,1.7589,1.7589,1.7589,1.7629,1.7776,1.7996,1.8189,1.8497,1.8738,1.8951,1.8951,1.8865,1.8778,1.8644,1.8698,1.8905,1.9005,1.9105,1.9245,1.939,1.941,1.9424,1.9424,1.9424,1.9424,1.9424,1.9424,1.97,1.9987,2.018,2.0501,2.0608,2.0648,2.0722,2.0815,2.0762,2.0668,2.0555,2.0401,2.0274,2.0127,1.9953,1.9953,2.0107,2.0476,2.1254,2.2173,2.3085,2.4313,2.6132,2.7035,2.7258,2.9327,3.0374,3.0479,3.0225,2.9795,2.9394,2.8994,2.8721,2.8467,2.8301,2.831,2.835,2.835,2.835,2.8418,2.8506,2.8428,2.8301,2.8301,2.8301,2.8301,2.8291,2.8301,2.8301,2.8301,2.8301,2.8301,2.8252,2.8193,2.8174,1.9424,1.9424,1.9424,1.9424,1.939,1.9125,1.9038,1.9011,1.8784,1.8958,1.9363,1.9339,1.9225,1.9011,1.8945,1.8804,1.8584,1.8437,1.8337,1.821,1.7982,1.7889,1.7749,1.7649,1.7589,1.7589,1.7589,1.7589,1.7589,1.7589,1.7589,1.7589,1.7589,1.7589,1.7589,1.7589,1.7675,1.7876,1.817,1.8377,1.8557,1.8971,1.9316,1.9178,1.9092,1.8945,1.8798,1.8684,1.8804,1.8905,1.8965,1.9132,1.9403,1.9417,1.9424,1.9424,1.9424,1.9424,1.9437,1.9484,1.9713,2.0034,2.0314,2.0628,2.0822,2.0869,2.0935,2.1022,2.1036,2.0929,2.0815,2.0655,2.0521,2.0347,2.016,2.0334,2.0501,2.1197,2.1878,2.2624,2.3507,2.5184,2.7013,2.8057,2.8296,2.9167,3.0305,3.0655,3.043,3.0059,2.9687,2.9307,2.8994,2.874,2.8535,2.8496,2.8633,2.8584,2.8564,2.8633,2.8691,2.8496,2.8301,2.8301,2.8301,2.8301,2.8301,2.8301,2.8301,2.8301,2.8301,2.8301,2.8301,2.8252,2.8271,1.9424,1.9424,1.9424,1.9285,1.9152,1.8985,1.8858,1.8711,1.8557,1.8671,1.9035,1.9078,1.9005,1.8758,1.8731,1.8571,1.831,1.813,1.7976,1.7869,1.7856,1.7736,1.7629,1.7589,1.7589,1.7589,1.7589,1.7589,1.7589,1.7589,1.7589,1.7589,1.7589,1.7589,1.7589,1.7609,1.7756,1.7989,1.8357,1.8551,1.8677,1.9092,1.941,1.9343,1.9225,1.9112,1.9085,1.8951,1.9011,1.9085,1.9152,1.9199,1.9403,1.9424,1.9424,1.9424,1.9424,1.9424,1.945,1.9519,1.974,2.008,2.0401,2.0722,2.0969,2.1015,2.1015,2.1089,2.1089,2.1002,2.0922,2.0782,2.0788,2.0688,2.0408,2.0334,2.0581,2.1064,2.1472,2.1874,2.3241,2.5375,2.7202,2.9039,2.9369,2.9799,3.0811,3.0879,3.0605,3.041,3.001,2.9697,2.9443,2.9238,2.9092,2.9043,2.9127,2.8975,2.8838,2.8662,2.8603,2.8428,2.8301,2.8301,2.8301,2.8301,2.8301,2.8301,2.8301,2.8301,2.8301,2.8301,2.831,2.8369,2.8457,1.9424,1.9424,1.9424,1.9199,1.8945,1.8871,1.8698,1.845,1.8377,1.8357,1.841,1.8671,1.8631,1.851,1.8424,1.8217,1.8023,1.7842,1.7655,1.7629,1.7622,1.7615,1.7615,1.7589,1.7589,1.7589,1.7589,1.7589,1.7589,1.7589,1.7589,1.7589,1.7589,1.7589,1.7589,1.7669,1.7842,1.8163,1.8464,1.8724,1.8971,1.9219,1.9383,1.9424,1.9424,1.9424,1.9366,1.9359,1.9359,1.9345,1.9319,1.9332,1.9403,1.9424,1.9424,1.9424,1.9424,1.9424,1.947,1.9613,1.9893,2.0147,2.0508,2.0775,2.1022,2.1102,2.1102,2.1102,2.1102,2.1076,2.0995,2.0962,2.0982,2.0962,2.0655,2.0434,2.0722,2.1206,2.1581,2.1902,2.3915,2.6045,2.776,2.9658,3.0274,3.0772,3.0898,3.0898,3.084,3.0713,3.0459,3.0254,3.0059,2.9863,2.958,2.9548,2.9489,2.9453,2.9287,2.8867,2.8555,2.8545,2.8467,2.8301,2.8301,2.8301,2.8301,2.8301,2.8301,2.8301,2.8301,2.833,2.8525,2.8594,2.8711,1.9424,1.9424,1.9424,1.9192,1.8898,1.8671,1.8404,1.8062,1.7869,1.7756,1.7876,1.807,1.8102,1.8069,1.8075,1.7983,1.7769,1.7602,1.7595,1.7589,1.7589,1.7589,1.7589,1.7589,1.7589,1.7589,1.7589,1.7589,1.7589,1.7589,1.7589,1.7589,1.7589,1.7602,1.7629,1.7776,1.8056,1.8343,1.8644,1.8931,1.9165,1.9383,1.9403,1.9424,1.9424,1.9424,1.9424,1.9424,1.9424,1.9424,1.9424,1.9424,1.9424,1.9424,1.9424,1.9424,1.9424,1.9424,1.9511,1.97,1.9993,2.016,2.0521,2.0828,2.1009,2.1102,2.1102,2.1102,2.1102,2.1102,2.1049,2.1049,2.1062,2.1062,2.0882,2.0869,2.1002,2.2159,2.3171,2.4348,2.6045,2.7751,2.9285,3.0401,3.0587,3.0898,3.0898,3.0898,3.0898,3.0869,3.084,3.0703,3.0547,3.0146,2.9783,2.9812,2.9792,2.9795,2.9707,2.9238,2.8926,2.8838,2.8711,2.8398,2.8301,2.8301,2.8301,2.8301,2.8301,2.8301,2.8301,2.8369,2.8603,2.8818,2.8935]}]]